Date StartTime U_cm/s V_cm/s W_cm/s Ustd_cm/s Vstd_cm/s Wstd_cm/s Uvar_(cm/s)^2 Vvar_(cm/s)^2 Wvar_(cm/s)^2 KE_(m/s)^2 TurbulentKE_(m/s)^2 HorizWindSpeed_cm/s FrictionSpeec_cm/s DragCoef SpeedOfSound_m/s SonicTemperature_C Pressure_mb 
03/30/2014  00:00:00      -58.433       93.399      -11.094       36.095       61.033       32.951     1302.869     3725.053     1085.768        0.919        0.306      110.172       23.954        0.047      334.618        4.709      856.216
03/30/2014  00:01:00       14.428      102.665       -2.088       41.359       59.890       35.888     1710.563     3586.799     1287.915        0.867        0.329      103.674       24.063        0.054      334.585        4.653      856.233
03/30/2014  00:02:00       33.079      135.458       -4.889       78.526       95.401       56.596     6166.406     9101.377     3203.083        1.897        0.924      139.438       54.885        0.155      334.508        4.525      856.247
03/30/2014  00:03:00        0.752      146.771      -11.583       66.084       61.729       40.236     4367.135     3810.509     1618.951        1.573        0.490      146.773       31.093        0.045      334.542        4.584      856.265
03/30/2014  00:04:00      -71.412      109.211       -9.732       63.040       65.512       40.134     3974.076     4291.879     1610.727        1.350        0.494      130.486       38.378        0.087      334.541        4.579      856.282
03/30/2014  00:05:00     -117.994       51.539       -4.343       50.594       45.255       24.696     2559.744     2047.973      609.869        1.091        0.261      128.759       19.546        0.023      334.576        4.639      856.335
03/30/2014  00:06:00      -77.894      -22.866       -5.367       73.299       65.573       34.395     5372.755     4299.850     1183.045        0.874        0.543       81.180       32.351        0.159      334.662        4.781      856.384
03/30/2014  00:07:00     -163.791      -23.625       -6.653       58.080       53.345       31.394     3373.273     2845.665      985.595        1.732        0.360      165.486       32.309        0.038      334.544        4.586      856.417
03/30/2014  00:08:00     -101.738      -28.342       -6.087       37.313       23.966       16.178     1392.296      574.358      261.715        0.671        0.111      105.612       15.434        0.021      334.519        4.544      856.424
03/30/2014  00:09:00      -90.764       -9.007       -3.491       46.283       32.043       21.698     2142.127     1026.775      470.783        0.598        0.182       91.209       24.751        0.074      334.520        4.547      856.415
03/30/2014  00:10:00     -104.094       15.710       -7.559       39.909       38.079       26.591     1592.760     1450.046      707.076        0.744        0.187      105.273       23.637        0.050      334.483        4.488      856.401
03/30/2014  00:11:00      -25.066       11.183       12.539       44.697       15.199       21.350     1997.817      230.997      455.831        0.180        0.134       27.447       27.268        0.987      334.605        4.687      856.392
03/30/2014  00:12:00       10.434       14.746       -0.765       49.152       16.169       19.948     2415.936      261.438      397.940        0.170        0.154       18.064       13.839        0.587      334.522        4.550      856.383
03/30/2014  00:13:00      -38.971       21.525        3.878       78.187       37.098       26.808     6113.210     1376.244      718.648        0.510        0.410       44.520       20.967        0.222      334.607        4.691      856.388
03/30/2014  00:14:00     -102.998       30.685      -15.726       51.421       46.042       21.667     2644.151     2119.845      469.456        0.851        0.262      107.472       16.434        0.023      334.492        4.500      856.391
03/30/2014  00:15:00      -30.760       66.279       -5.412       24.058       34.588       14.645      578.804     1196.343      214.466        0.368        0.099       73.069       15.225        0.043      334.707        4.857      856.386
03/30/2014  00:16:00     -111.261      129.777      -36.187       42.325       76.934       27.333     1791.420     5918.868      747.116        1.949        0.423      170.942       18.946        0.012      334.499        4.508      856.378
03/30/2014  00:17:00      -54.723      207.536      -15.417       68.914      132.246       44.950     4749.176    17488.987     2020.467        3.528        1.213      214.630       55.640        0.067      334.508        4.525      856.336
03/30/2014  00:18:00      -62.269      206.803      -22.175       47.094       46.418       29.997     2217.832     2154.659      899.846        2.620        0.264      215.974       24.013        0.012      334.488        4.492      856.287
03/30/2014  00:19:00      -39.339      123.729      -12.307       30.081       66.701       31.180      904.887     4449.028      972.165        1.167        0.316      129.832       30.516        0.055      334.631        4.730      856.247
03/30/2014  00:20:00       -3.206      252.396      -25.183       49.232       91.690       35.186     2423.779     8407.145     1238.035        3.821        0.603      252.416       39.921        0.025      334.477        4.472      856.223
03/30/2014  00:21:00      -74.476      235.958      -28.580       38.604       58.335       29.995     1490.280     3403.018      899.706        3.392        0.290      247.432       29.844        0.015      334.507        4.522      856.207
03/30/2014  00:22:00     -144.271      309.336      -44.674       68.013      128.782       48.014     4625.756    16584.796     2305.310        7.100        1.176      341.325       55.776        0.027      334.438        4.407      856.204
03/30/2014  00:23:00     -120.326      135.678      -17.039       73.520       90.591       36.638     5405.130     8206.773     1342.315        2.406        0.748      181.348       39.254        0.047      334.451        4.431      856.186
03/30/2014  00:24:00      -65.859      134.937       -7.795       41.364       59.490       39.798     1710.963     3539.006     1583.920        1.472        0.342      150.152       33.912        0.051      334.482        4.484      856.201
03/30/2014  00:25:00      -20.729      159.025       -8.925       60.795      125.273       40.128     3696.067    15693.337     1610.216        2.339        1.050      160.370       50.554        0.099      334.526        4.553      856.197
03/30/2014  00:26:00      -65.152       49.345       -9.912       54.019       61.658       29.785     2918.029     3801.698      887.129        0.719        0.380       81.730       20.697        0.064      334.539        4.578      856.189
03/30/2014  00:27:00      -93.946      128.328      -29.521       44.772       52.186       35.326     2004.504     2723.404     1247.919        1.607        0.299      159.041       26.945        0.029      334.436        4.406      856.183
03/30/2014  00:28:00      -95.563       65.027      -15.537       49.064       92.835       26.364     2407.249     8618.272      695.051        1.266        0.586      115.589       22.108        0.037      334.494        4.503      856.175
03/30/2014  00:29:00     -116.959       49.778      -13.032       78.944       65.829       30.676     6232.090     4333.494      941.006        1.391        0.575      127.111       28.098        0.049      334.485        4.487      856.171
03/30/2014  00:30:00      -71.283       22.549        7.986       50.097       51.132       30.197     2509.666     2614.442      911.889        0.584        0.302       74.765       13.978        0.035      334.497        4.509      856.178
03/30/2014  00:31:00     -112.435        3.586      -25.611       46.193       39.508       35.660     2133.821     1560.909     1271.631        0.914        0.248      112.492       22.875        0.041      334.445        4.423      856.199
03/30/2014  00:32:00      -48.476       34.251      -19.088       45.247       61.502       30.292     2047.325     3782.468      917.595        0.532        0.337       59.356       31.059        0.274      334.325        4.224      856.211
03/30/2014  00:33:00      -57.216       83.254       -1.097       73.823       58.104       46.582     5449.786     3376.029     2169.849        1.060        0.550      101.019       25.637        0.064      334.376        4.308      856.193
03/30/2014  00:34:00      -30.454      159.504        6.791       50.370      104.691       45.534     2537.112    10960.265     2073.380        2.099        0.779      162.385       51.626        0.101      334.433        4.402      856.178
03/30/2014  00:35:00      -72.912      138.913       -2.964       53.773       63.069       43.258     2891.576     3977.670     1871.257        1.668        0.437      156.886       42.772        0.074      334.403        4.352      856.182
03/30/2014  00:36:00     -100.422      125.455      -23.106       59.071       49.133       39.120     3489.345     2414.020     1530.384        1.689        0.372      160.697       37.081        0.053      334.355        4.269      856.191
03/30/2014  00:37:00      -82.315       88.972      -13.370       61.519       59.976       36.328     3784.541     3597.143     1319.752        1.178        0.435      121.210       33.279        0.075      334.338        4.243      856.205
03/30/2014  00:38:00      -63.917      125.897      -10.445       46.766       58.490       30.272     2187.097     3421.023      916.400        1.328        0.326      141.193       31.083        0.048      334.427        4.392      856.224
03/30/2014  00:39:00      -75.024      187.897      -16.197       70.220       67.072       43.952     4930.869     4498.607     1931.755        2.628        0.568      202.321       49.689        0.060      334.317        4.208      856.231
03/30/2014  00:40:00     -145.310      132.293      -27.102       74.366       70.336       41.313     5530.294     4947.085     1706.724        2.577        0.609      196.511       46.338        0.056      334.363        4.285      856.226
03/30/2014  00:41:00      -69.923      138.736      -12.829       60.735       74.827       36.778     3688.753     5599.095     1352.587        1.747        0.532      155.361       30.094        0.038      334.338        4.242      856.211
03/30/2014  00:42:00      -89.413       38.205       -3.092       54.150       58.391       31.868     2932.224     3409.513     1015.562        0.841        0.368       97.234       31.874        0.107      334.401        4.349      856.186
03/30/2014  00:43:00      -28.383       74.333        4.893       36.664       77.846       29.709     1344.235     6060.052      882.648        0.732        0.414       79.568       21.501        0.073      334.453        4.435      856.163
03/30/2014  00:44:00      -51.492      147.634       -6.548       60.394       70.404       40.752     3647.431     4956.658     1660.729        1.738        0.513      156.356       41.606        0.071      334.412        4.367      856.148
03/30/2014  00:45:00      -51.831      222.923      -24.862       58.952       92.237       35.898     3475.378     8507.683     1288.668        3.313        0.664      228.869       33.301        0.021      334.254        4.101      856.162
03/30/2014  00:46:00      -78.003      157.516      -16.592       55.842       68.033       34.252     3118.339     4628.461     1173.176        2.004        0.446      175.772       30.549        0.030      334.349        4.260      856.179
03/30/2014  00:47:00      -78.980      114.478       -4.883       64.820       58.600       35.920     4201.652     3433.919     1290.249        1.414        0.446      139.079       32.077        0.053      334.397        4.342      856.203
03/30/2014  00:48:00     -128.505      154.407      -16.610       81.598       88.522       41.636     6658.199     7836.193     1733.526        2.843        0.811      200.886       42.597        0.045      334.346        4.254      856.197
03/30/2014  00:49:00     -107.625       94.902      -16.486       32.294       83.971       28.405     1042.900     7051.162      806.824        1.488        0.445      143.490       19.456        0.018      334.354        4.269      856.196
03/30/2014  00:50:00      -99.835       50.848       -6.678       71.788       52.773       38.163     5153.456     2785.015     1456.379        1.099        0.470      112.038       35.489        0.100      334.405        4.356      856.171
03/30/2014  00:51:00     -120.724      141.299      -22.565       78.462       85.860       50.907     6156.216     7371.864     2591.488        2.558        0.806      185.848       53.382        0.083      334.391        4.330      856.176
03/30/2014  00:52:00     -109.102      173.260      -19.560       70.170       83.250       42.586     4923.789     6930.487     1813.557        2.798        0.683      204.749       37.431        0.033      334.279        4.144      856.181
03/30/2014  00:53:00     -103.352      127.957      -21.934       57.734       64.130       35.666     3333.193     4112.620     1272.055        1.813        0.436      164.483       32.114        0.038      334.328        4.227      856.171
03/30/2014  00:54:00      -86.821      105.976      -14.525       48.198       71.696       43.738     2323.057     5140.255     1912.982        1.418        0.469      136.999       46.528        0.115      334.276        4.140      856.176
03/30/2014  00:55:00      -94.576      162.520      -16.559       58.323       99.753       40.340     3401.603     9950.641     1627.286        2.530        0.749      188.035       41.977        0.050      334.273        4.135      856.182
03/30/2014  00:56:00     -115.952      113.360      -25.740       50.211       57.024       29.711     2521.115     3251.688      882.754        1.681        0.333      162.158       24.052        0.022      334.280        4.149      856.193
03/30/2014  00:57:00     -120.853       88.880      -19.707       55.255       60.860       31.749     3053.075     3703.929     1008.020        1.533        0.388      150.017       32.230        0.046      334.275        4.138      856.212
03/30/2014  00:58:00     -143.232      186.010      -42.816       64.955      102.304       43.169     4219.208    10466.103     1863.521        3.675        0.827      234.766       42.267        0.032      334.272        4.133      856.208
03/30/2014  00:59:00     -140.228      163.453      -29.285       65.282       83.839       46.095     4261.689     7028.965     2124.708        3.032        0.671      215.362       42.008        0.038      334.269        4.127      856.196
03/30/2014  01:00:00     -173.021      216.693      -29.040       70.818       98.051       50.609     5015.257     9613.994     2561.275        4.746        0.860      277.294       52.657        0.036      334.249        4.093      856.153
03/30/2014  01:01:00     -143.068      151.302      -17.228       69.038       91.609       52.889     4766.284     8392.281     2797.219        2.980        0.798      208.232       43.091        0.043      334.262        4.116      856.149
03/30/2014  01:02:00     -136.796      133.813      -25.735       53.288      103.298       44.762     2839.619    10670.463     2003.605        2.639        0.776      191.361       47.528        0.062      334.269        4.129      856.157
03/30/2014  01:03:00     -149.554      213.772      -35.013       59.242      110.992       42.212     3509.576    12319.166     1781.831        4.345        0.881      260.893       28.894        0.012      334.242        4.081      856.169
03/30/2014  01:04:00      -96.307       67.450      -10.024       58.907       54.492       39.555     3470.047     2969.389     1564.564        1.096        0.400      117.578       24.468        0.043      334.290        4.166      856.202
03/30/2014  01:05:00     -115.895       82.620      -15.359       60.063       53.615       35.404     3607.603     2874.607     1253.440        1.411        0.387      142.330       36.043        0.064      334.251        4.100      856.236
03/30/2014  01:06:00     -103.477       44.837       -9.894       52.252       44.487       35.713     2730.246     1979.106     1275.387        0.940        0.299      112.774       33.830        0.090      334.283        4.155      856.237
03/30/2014  01:07:00     -102.695      -33.056       -1.203       56.017       54.401       35.928     3137.941     2959.472     1290.850        0.951        0.369      107.884       30.302        0.079      334.277        4.143      856.230
03/30/2014  01:08:00     -167.727      -46.010       -7.287       81.961       93.881       40.458     6717.585     8813.706     1636.824        2.373        0.858      173.923       34.647        0.040      334.265        4.120      856.239
03/30/2014  01:09:00     -102.101       37.177       -9.058       71.987       45.640       29.774     5182.105     2083.012      886.501        1.002        0.408      108.659       33.993        0.098      334.272        4.136      856.252
03/30/2014  01:10:00     -135.249      120.525      -19.351       88.702      117.391       46.261     7867.958    13780.570     2140.062        2.849        1.189      181.159       38.513        0.045      334.290        4.162      856.209
03/30/2014  01:11:00      -97.580       65.372      -10.396       39.339       85.635       35.149     1547.582     7333.277     1235.463        1.201        0.506      117.454       28.885        0.060      334.263        4.118      856.159
03/30/2014  01:12:00     -116.865       92.059      -18.475       56.919       66.096       28.042     3239.789     4368.629      786.335        1.543        0.420      148.769       17.985        0.015      334.225        4.056      856.120
03/30/2014  01:13:00      -96.055      111.660      -19.920       51.957       44.302       28.444     2699.508     1962.664      809.070        1.378        0.274      147.291       27.954        0.036      334.257        4.110      856.101
03/30/2014  01:14:00      -95.162      147.971      -22.337       47.450       52.414       29.796     2251.485     2747.228      887.808        1.867        0.294      175.930       32.422        0.034      334.181        3.982      856.122
03/30/2014  01:15:00      -94.251       92.316      -17.342       43.999       56.165       34.624     1935.888     3154.504     1198.789        1.200        0.314      131.929       33.359        0.064      334.105        3.858      856.160
03/30/2014  01:16:00      -62.491       80.036       -4.569       34.617       44.723       26.366     1198.321     2000.176      695.186        0.711        0.195      101.543       19.462        0.037      334.152        3.936      856.218
03/30/2014  01:17:00     -129.347       93.692      -24.844       72.645       46.054       28.347     5277.351     2120.948      803.526        1.716        0.410      159.714       26.531        0.028      334.195        4.005      856.281
03/30/2014  01:18:00      -99.865      103.845      -11.146       55.409       63.695       38.966     3070.108     4057.000     1518.351        1.476        0.432      144.073       38.149        0.070      334.243        4.086      856.304
03/30/2014  01:19:00     -130.894       32.838      -14.722       62.916       58.566       36.024     3958.368     3430.031     1297.753        1.356        0.434      134.950       25.208        0.035      334.197        4.009      856.296
03/30/2014  01:20:00     -109.236      107.011       -6.499       74.935       62.212       43.264     5615.269     3870.278     1871.798        1.739        0.568      152.918       42.409        0.077      334.210        4.031      856.252
03/30/2014  01:21:00      -92.498      151.476      -23.601       45.336       57.265       25.535     2055.324     3279.260      652.051        1.902        0.299      177.484       16.771        0.009      334.273        4.135      856.189
03/30/2014  01:22:00     -198.261       91.105      -26.262       96.365       73.086       37.756     9286.306     5341.606     1425.531        3.217        0.803      218.191       31.796        0.021      334.200        4.012      856.151
03/30/2014  01:23:00     -182.617      187.431      -43.357       80.136       68.247       47.784     6421.833     4657.655     2283.347        4.186        0.668      261.685       45.532        0.030      334.126        3.889      856.147
03/30/2014  01:24:00     -121.189      111.571      -27.088       48.130       43.904       35.022     2316.492     1927.565     1226.572        1.667        0.274      164.726       19.389        0.014      334.153        3.937      856.156
03/30/2014  01:25:00      -56.736       83.073       -5.340       55.938       71.788       34.275     3129.047     5153.467     1174.808        0.980        0.473      100.599       30.355        0.091      334.255        4.106      856.179
03/30/2014  01:26:00      -92.347       72.427      -20.923       55.392       57.089       33.833     3068.317     3259.145     1144.644        1.084        0.374      117.361       35.082        0.089      334.188        3.993      856.195
03/30/2014  01:27:00     -188.950       87.204      -21.707      125.987       64.219       35.587    15872.784     4124.097     1266.420        3.252        1.063      208.102       36.853        0.031      334.150        3.930      856.198
03/30/2014  01:28:00     -119.474       64.481      -11.154       78.802       63.630       26.797     6209.753     4048.722      718.081        1.476        0.549      135.764       27.576        0.041      334.139        3.911      856.211
03/30/2014  01:29:00     -134.770       24.676      -19.471       61.301       68.562       33.795     3757.864     4700.771     1142.075        1.437        0.480      137.011       13.862        0.010      334.153        3.937      856.195
03/30/2014  01:30:00      -93.228       23.021        4.280       84.567       89.488       52.295     7151.497     8008.095     2734.735        1.356        0.895       96.029       48.716        0.257      334.182        3.984      856.177
03/30/2014  01:31:00     -103.512      102.601       -7.875       61.713       90.036       43.849     3808.485     8106.481     1922.740        1.757        0.692      145.745       32.991        0.051      334.172        3.968      856.166
03/30/2014  01:32:00     -114.213      131.671      -18.872       64.930       73.030       43.416     4215.865     5333.336     1884.955        2.108        0.572      174.304       35.190        0.041      334.178        3.975      856.141
03/30/2014  01:33:00     -145.100      136.569      -22.161       73.843       98.289       44.995     5452.775     9660.683     2024.510        2.866        0.857      199.261       49.061        0.061      334.107        3.858      856.104
03/30/2014  01:34:00     -174.252      187.790      -29.816       77.862      113.298       43.449     6062.423    12836.358     1887.777        4.365        1.039      256.181       34.210        0.018      334.096        3.839      856.059
03/30/2014  01:35:00      -98.010      153.952      -24.223       63.344       60.314       33.994     4012.452     3637.754     1155.618        2.135        0.440      182.503       26.882        0.022      334.133        3.901      856.017
03/30/2014  01:36:00      -95.657      164.882      -19.883       45.844       61.941       43.842     2101.660     3836.640     1922.081        2.229        0.393      190.620       28.939        0.023      334.214        4.035      855.984
03/30/2014  01:37:00      -87.987      143.696      -16.941       68.144       75.808       41.899     4643.639     5746.850     1755.550        2.041        0.607      168.493       34.085        0.041      334.242        4.085      855.992
03/30/2014  01:38:00     -106.753       92.263      -21.090       61.644       96.587       38.263     3800.022     9329.017     1464.029        1.747        0.730      141.099       30.095        0.045      334.183        3.985      856.016
03/30/2014  01:39:00     -104.428      145.737      -18.366       57.659       84.197       43.918     3324.514     7089.095     1928.797        2.241        0.617      179.289       39.229        0.048      334.162        3.950      856.025
03/30/2014  01:40:00      -81.690      144.711      -13.278       49.405      103.179       36.764     2440.878    10645.937     1351.592        2.111        0.722      166.176       36.707        0.049      334.201        4.016      856.017
03/30/2014  01:41:00      -54.023      166.641      -16.556       50.679       77.002       38.637     2568.405     5929.287     1492.779        2.047        0.500      175.179       40.129        0.052      334.163        3.952      855.990
03/30/2014  01:42:00      -29.137      289.219      -35.466       45.156       73.102       29.266     2039.102     5343.963      856.513        4.700        0.412      290.683       28.974        0.010      333.966        3.624      855.933
03/30/2014  01:43:00     -123.482      210.870      -36.149       83.839       59.338       41.842     7028.937     3521.010     1750.711        3.666        0.615      244.365       39.837        0.027      333.997        3.674      855.909
03/30/2014  01:44:00     -112.955      170.362      -25.239       53.834       79.063       47.454     2898.089     6251.016     2251.843        2.691        0.570      204.407       49.786        0.059      334.011        3.700      855.910
03/30/2014  01:45:00      -67.871      155.049      -26.856       42.072       59.014       30.178     1770.034     3482.666      910.711        1.776        0.308      169.253       25.452        0.023      334.008        3.695      855.881
03/30/2014  01:46:00      -42.513      166.987      -20.513       40.501       63.305       29.566     1640.329     4007.574      874.119        1.832        0.326      172.314       31.133        0.033      334.079        3.813      855.844
03/30/2014  01:47:00      -64.320      208.992      -19.564       45.204       79.807       35.850     2043.410     6369.078     1285.210        2.895        0.485      218.666       36.809        0.028      334.066        3.791      855.849
03/30/2014  01:48:00      -88.491      159.231      -15.471       48.570       84.081       36.569     2359.018     7069.611     1337.273        2.209        0.538      182.168       40.582        0.050      334.125        3.888      855.914
03/30/2014  01:49:00      -78.885      131.656      -21.798       83.921       74.322       47.035     7042.789     5523.805     2212.245        1.940        0.739      153.480       47.941        0.098      334.050        3.765      856.007
03/30/2014  01:50:00     -127.132      100.375      -16.533       65.521       85.739       37.867     4292.953     7351.115     1433.879        1.979        0.654      161.980       25.253        0.024      334.092        3.834      856.080
03/30/2014  01:51:00     -111.118      148.389      -24.807       78.362       48.607       43.253     6140.567     2362.641     1870.812        2.268        0.519      185.382       34.358        0.034      334.047        3.760      856.115
03/30/2014  01:52:00     -122.231      147.649      -30.542       63.727       69.116       44.983     4061.119     4777.026     2023.468        2.427        0.543      191.678       44.343        0.054      334.047        3.760      856.130
03/30/2014  01:53:00     -157.129      116.918      -35.904       38.963       61.031       27.508     1518.107     3724.831      756.676        2.282        0.300      195.855       20.965        0.011      334.056        3.774      856.142
03/30/2014  01:54:00      -92.080       48.063       -6.963       50.116       92.756       38.527     2511.595     8603.583     1484.363        1.172        0.630      103.869       27.243        0.069      334.094        3.839      856.144
03/30/2014  01:55:00      -79.098       34.360      -10.311       47.882       68.743       32.056     2292.644     4725.588     1027.576        0.779        0.402       86.239       29.557        0.117      334.092        3.838      856.135
03/30/2014  01:56:00     -134.855       87.653      -16.182       66.018       58.842       33.644     4358.441     3462.437     1131.891        1.754        0.448      160.838       28.553        0.032      334.026        3.726      856.126
03/30/2014  01:57:00      -95.475      176.040      -22.378       67.478      104.462       45.675     4553.288    10912.288     2086.222        2.908        0.878      200.264       51.237        0.065      333.972        3.634      856.111
03/30/2014  01:58:00      -98.996       18.228       -3.664       54.556       46.223       30.307     2976.412     2136.529      918.497        0.809        0.302      100.660       25.994        0.067      334.065        3.792      856.100
03/30/2014  01:59:00      -71.897       27.893       -6.853       64.118       54.022       22.933     4111.065     2918.364      525.919        0.677        0.378       77.118       18.559        0.058      334.008        3.697      856.084
03/30/2014  02:00:00      -80.277       45.069        4.482       59.696       56.534       35.474     3563.570     3196.102     1258.379        0.826        0.401       92.063       23.208        0.064      334.066        3.792      856.072
03/30/2014  02:01:00     -113.416       54.039      -11.198       78.322       55.969       35.061     6134.261     3132.527     1229.268        1.320        0.525      125.632       29.653        0.056      334.021        3.718      856.084
03/30/2014  02:02:00     -137.818      230.006      -34.246       56.807       82.312       39.000     3226.990     6775.295     1520.963        4.229        0.576      268.135       35.652        0.018      333.964        3.621      856.088
03/30/2014  02:03:00     -115.477      159.471      -26.191       61.292       51.951       36.358     3756.655     2698.936     1321.883        2.361        0.389      196.891       33.284        0.029      333.996        3.675      856.073
03/30/2014  02:04:00     -145.169      132.229      -28.823       75.611       94.214       38.551     5717.041     8876.321     1486.147        2.773        0.804      196.363       46.305        0.056      333.981        3.650      856.052
03/30/2014  02:05:00     -117.996      163.924      -30.391       56.842       53.152       35.529     3231.024     2825.149     1262.286        2.452        0.366      201.976       35.213        0.030      333.996        3.675      856.025
03/30/2014  02:06:00     -115.657      141.920      -25.364       54.619       58.423       33.304     2983.262     3413.284     1109.145        2.083        0.375      183.079       32.241        0.031      334.040        3.748      855.972
03/30/2014  02:07:00      -48.731      121.748       -7.774       32.480       48.151       25.624     1054.943     2318.564      656.591        1.064        0.202      131.139       20.768        0.025      334.165        3.957      855.926
03/30/2014  02:08:00      -51.984      162.425      -16.812       44.382       51.540       29.090     1969.760     2656.386      846.209        1.742        0.274      170.541       25.508        0.022      334.114        3.872      855.909
03/30/2014  02:09:00     -102.911      164.608      -24.418       77.201       75.804       44.189     5959.965     5746.181     1952.709        2.597        0.683      194.130       41.669        0.046      334.049        3.763      855.918
03/30/2014  02:10:00      -76.995      164.877      -12.971       62.795       72.384       33.967     3943.229     5239.449     1153.752        2.181        0.517      181.969       37.904        0.043      334.042        3.751      855.912
03/30/2014  02:11:00      -39.825      156.449      -12.336       60.134       72.297       44.401     3616.045     5226.922     1971.437        1.851        0.541      161.438       23.854        0.022      334.107        3.860      855.898
03/30/2014  02:12:00      -98.622      116.683      -16.977       49.420       79.666       41.555     2442.300     6346.598     1726.784        1.707        0.526      152.778       35.958        0.055      334.100        3.850      855.868
03/30/2014  02:13:00     -104.116      121.627      -32.724       51.803       38.936       24.720     2683.544     1515.986      611.075        1.576        0.241      160.104       21.851        0.019      334.017        3.711      855.812
03/30/2014  02:14:00      -45.431       97.699       -8.439       45.169       53.807       30.436     2040.206     2895.227      926.330        0.877        0.293      107.746       23.880        0.049      334.056        3.776      855.754
03/30/2014  02:15:00      -79.510      169.333      -16.980       78.337       91.890       49.677     6136.621     8443.768     2467.831        2.616        0.852      187.071       45.299        0.059      334.120        3.880      855.740
03/30/2014  02:16:00      -84.926       82.776      -10.139       53.883       52.186       44.316     2903.363     2723.351     1963.948        1.088        0.380      118.593       39.221        0.109      334.150        3.932      855.735
03/30/2014  02:17:00     -125.675       92.854      -24.411       47.159       77.743       28.337     2223.937     6044.003      802.977        1.704        0.454      156.257       30.554        0.038      334.111        3.866      855.730
03/30/2014  02:18:00     -140.264       87.993      -28.191       42.792       42.906       31.949     1831.121     1840.919     1020.707        1.645        0.235      165.580       26.537        0.026      334.102        3.853      855.705
03/30/2014  02:19:00     -144.428      103.797      -26.629       78.053       49.054       40.299     6092.290     2406.313     1624.044        2.123        0.506      177.857       41.583        0.055      334.167        3.959      855.716
03/30/2014  02:20:00     -100.899       69.425      -15.559       45.709       61.006       38.052     2089.323     3721.733     1447.934        1.125        0.363      122.476       25.483        0.043      334.172        3.969      855.752
03/30/2014  02:21:00      -92.665       41.992       -3.542       70.955       51.879       30.376     5034.596     2691.431      922.730        0.950        0.432      101.735       31.267        0.094      334.164        3.956      855.813
03/30/2014  02:22:00     -165.270      132.918      -38.471       85.040       89.856       45.586     7231.859     8074.134     2078.071        3.192        0.869      212.088       40.880        0.037      334.089        3.829      855.879
03/30/2014  02:23:00     -156.555      269.008      -45.995       74.141      110.266       53.371     5496.871    12158.674     2848.422        5.974        1.025      311.247       50.222        0.026      333.967        3.625      855.914
03/30/2014  02:24:00      -91.476      148.715      -20.624       62.931       69.138       36.199     3960.252     4780.042     1310.400        2.048        0.503      174.597       35.472        0.041      334.019        3.712      855.910
03/30/2014  02:25:00      -30.010      160.791       -1.332       42.426      106.973       40.565     1799.925    11443.252     1645.493        2.082        0.744      163.567       39.673        0.059      334.096        3.841      855.880
03/30/2014  02:26:00      -85.329      338.612      -36.324       69.285      144.010       47.994     4800.445    20738.968     2303.395        7.555        1.392      349.198       56.679        0.026      333.981        3.649      855.842
03/30/2014  02:27:00     -136.460      202.334      -38.049       84.518      108.599       56.619     7143.221    11793.648     3205.713        4.157        1.107      244.050       55.605        0.052      333.977        3.642      855.861
03/30/2014  02:28:00     -123.974       80.673      -11.541       62.186       92.635       45.644     3867.159     8581.239     2083.408        1.827        0.727      147.911       29.398        0.040      334.049        3.763      855.886
03/30/2014  02:29:00     -126.686      246.997      -28.675       76.856       89.160       50.218     5906.778     7949.469     2521.850        4.713        0.819      277.592       45.628        0.027      333.980        3.647      855.910
03/30/2014  02:30:00     -133.299      152.655      -36.313       54.365       65.174       34.866     2955.510     4247.701     1215.616        2.540        0.421      202.662       28.394        0.020      333.968        3.628      855.938
03/30/2014  02:31:00      -59.221      191.034      -27.094       54.735       76.314       33.879     2995.973     5823.766     1147.810        2.535        0.498      200.003       29.653        0.022      333.970        3.630      856.012
03/30/2014  02:32:00      -45.976      216.112      -10.689       63.166      128.302       46.179     3989.989    16461.384     2132.519        3.575        1.129      220.948       49.053        0.049      334.069        3.795      856.062
03/30/2014  02:33:00     -137.401      135.074      -29.718       77.360       72.526       46.568     5984.618     5260.051     2168.606        2.571        0.671      192.676       44.742        0.054      333.997        3.676      856.111
03/30/2014  02:34:00     -127.268      124.237      -18.456       52.517       63.207       43.697     2758.055     3995.187     1909.468        2.032        0.433      177.854       31.569        0.032      334.014        3.706      856.136
03/30/2014  02:35:00      -96.879       42.002      -15.620       37.175       64.998       31.133     1381.982     4224.736      969.275        0.898        0.329      105.593       22.397        0.045      334.010        3.700      856.114
03/30/2014  02:36:00     -125.892      -36.264       -8.543       73.303       63.509       30.422     5373.285     4033.370      925.487        1.378        0.517      131.011       33.112        0.064      334.096        3.842      856.093
03/30/2014  02:37:00     -145.830      -39.988       -9.530      116.642       83.278       49.837    13605.468     6935.286     2483.750        2.299        1.151      151.213       62.117        0.169      334.072        3.801      856.069
03/30/2014  02:38:00     -115.395       39.837       -0.290       85.221       74.344       40.638     7262.550     5527.065     1651.448        1.467        0.722      122.078       35.135        0.083      334.024        3.724      856.061
03/30/2014  02:39:00      -14.139        2.717       -5.916       27.438       37.397       20.300      752.833     1398.511      412.077        0.140        0.128       14.398       15.643        1.180      334.084        3.823      856.055
03/30/2014  02:40:00     -101.151       19.338       -6.447       57.054       43.002       29.845     3255.196     1849.159      890.720        0.832        0.300      102.983       17.784        0.030      334.113        3.871      856.071
03/30/2014  02:41:00      -87.925       -9.259       -1.247       56.293       58.711       33.618     3168.904     3446.990     1130.144        0.778        0.387       88.411       24.072        0.074      334.015        3.709      856.070
03/30/2014  02:42:00     -166.303        7.997      -22.081       68.722       72.234       37.543     4722.713     5217.812     1409.480        1.978        0.568      166.495       19.382        0.014      333.992        3.670      856.045
03/30/2014  02:43:00     -109.266       46.585       -2.655       71.914       68.479       28.845     5171.682     4689.328      832.052        1.240        0.535      118.782       31.604        0.071      334.004        3.691      856.036
03/30/2014  02:44:00     -202.243       37.562      -22.803       60.151       45.574       34.634     3618.159     2077.023     1199.513        2.486        0.345      205.701       26.884        0.017      333.989        3.664      856.018
03/30/2014  02:45:00     -112.196       26.788       -2.720       73.741       77.208       42.850     5437.704     5961.104     1836.103        1.327        0.662      115.349       13.214        0.013      334.001        3.687      855.985
03/30/2014  02:46:00     -162.834      153.345      -36.792      108.865       81.478       54.442    11851.581     6638.633     2963.919        3.641        1.073      223.673       65.580        0.086      334.066        3.791      855.916
03/30/2014  02:47:00     -145.095      169.611      -35.176       70.420       56.463       36.070     4958.988     3188.018     1301.046        3.025        0.472      223.205       30.187        0.018      334.064        3.786      855.873
03/30/2014  02:48:00     -156.912      259.028      -44.099       79.668       76.491       52.669     6347.021     5850.800     2774.064        5.431        0.749      302.848       48.755        0.026      333.916        3.541      855.834
03/30/2014  02:49:00      -72.342      147.451       -9.310       55.339       91.837       43.236     3062.452     8433.977     1869.394        2.021        0.668      164.241       21.430        0.017      334.063        3.785      855.804
03/30/2014  02:50:00      -82.361      123.790      -18.050       70.143       85.023       39.656     4920.024     7228.937     1572.614        1.807        0.686      148.686       42.994        0.084      333.972        3.636      855.783
03/30/2014  02:51:00     -103.721      157.570      -18.624       53.631       83.275       36.548     2876.293     6934.774     1335.755        2.354        0.557      188.644       31.218        0.027      333.996        3.676      855.758
03/30/2014  02:52:00     -164.456       76.726      -19.312       78.675       84.921       33.599     6189.795     7211.613     1128.911        2.392        0.727      181.473       32.087        0.031      334.016        3.709      855.754
03/30/2014  02:53:00     -138.569      144.132      -27.888       60.178       61.997       39.897     3621.353     3843.576     1591.747        2.490        0.453      199.938       35.320        0.031      334.025        3.724      855.746
03/30/2014  02:54:00     -141.920      156.716      -37.062       56.600       89.926       46.462     3203.566     8086.754     2158.703        2.976        0.672      211.427       43.034        0.041      334.075        3.804      855.745
03/30/2014  02:55:00      -91.409      122.844      -14.945       70.322       79.602       44.005     4945.237     6336.487     1936.473        1.844        0.661      153.121       34.454        0.051      334.075        3.806      855.740
03/30/2014  02:56:00     -102.332      146.033      -14.139       66.451       65.844       44.606     4415.735     4335.409     1989.658        2.137        0.537      178.319       30.757        0.030      334.047        3.761      855.752
03/30/2014  02:57:00      -71.771       77.316       -9.914       40.601       58.156       30.839     1648.432     3382.166      951.055        0.860        0.299      105.493       27.343        0.067      334.046        3.760      855.766
03/30/2014  02:58:00      -96.004       90.808      -23.096       60.002       75.662       29.742     3600.194     5724.681      884.616        1.410        0.510      132.147       23.728        0.032      334.065        3.792      855.798
03/30/2014  02:59:00     -143.959       69.602      -18.866       66.200       83.013       43.903     4382.402     6891.198     1927.462        1.956        0.660      159.902       34.875        0.048      334.092        3.834      855.843
03/30/2014  03:00:00      -88.962      102.923      -23.398       49.510       52.028       31.299     2451.283     2706.923      979.621        1.260        0.307      136.042       24.236        0.032      334.066        3.793      855.885
03/30/2014  03:01:00      -73.733       48.822       -8.130       86.350       49.419       34.380     7456.279     2442.215     1181.958        0.948        0.554       88.432       39.318        0.198      334.144        3.922      855.912
03/30/2014  03:02:00     -105.489      201.374      -30.993       78.492      100.838       44.725     6161.067    10168.256     2000.288        3.548        0.916      227.331       45.975        0.041      334.020        3.714      855.934
03/30/2014  03:03:00     -129.308       46.885      -14.009       66.443       80.243       39.620     4414.690     6438.916     1569.723        1.577        0.621      137.546       37.734        0.075      333.945        3.591      855.959
03/30/2014  03:04:00      -42.527       69.266       20.157       51.020       85.353       51.370     2603.077     7285.073     2638.840        0.977        0.626       81.279       36.791        0.205      334.089        3.830      855.966
03/30/2014  03:05:00      -77.445       86.900      -14.005       32.188       66.598       37.250     1036.050     4435.233     1387.548        1.030        0.343      116.402       31.179        0.072      333.988        3.663      855.990
03/30/2014  03:06:00      -92.227       46.435       -2.861       46.843       37.194       29.087     2194.254     1383.416      846.048        0.755        0.221      103.257       19.741        0.037      333.941        3.588      856.024
03/30/2014  03:07:00     -114.054       56.248      -11.658       51.655       51.896       30.260     2668.231     2693.246      915.645        1.129        0.314      127.170       25.569        0.040      333.975        3.643      856.054
03/30/2014  03:08:00      -56.542       50.239       -2.632       45.342       53.026       34.172     2055.919     2811.707     1167.747        0.588        0.302       75.637       29.743        0.155      334.084        3.823      856.081
03/30/2014  03:09:00      -65.173      -10.205      -14.018       36.774       49.286       28.054     1352.353     2429.062      787.030        0.456        0.228       65.967       25.052        0.144      334.065        3.792      856.106
03/30/2014  03:10:00      -83.360       60.812        0.455       78.343       59.397       32.776     6137.641     3528.041     1074.255        1.069        0.537      103.184       30.599        0.088      334.107        3.860      856.134
03/30/2014  03:11:00      -71.485       23.573        6.726       44.337       66.927       29.882     1965.802     4479.172      892.929        0.652        0.367       75.271       16.208        0.046      334.177        3.977      856.155
03/30/2014  03:12:00      -69.162      110.284      -11.315       53.146       41.697       25.856     2824.524     1738.674      668.548        1.115        0.262      130.177       16.261        0.016      334.063        3.787      856.184
03/30/2014  03:13:00      -60.828       93.813       -5.375       29.387       50.629       27.496      863.621     2563.294      756.022        0.836        0.209      111.807       16.341        0.021      334.085        3.824      856.201
03/30/2014  03:14:00      -62.326      170.368       -9.760       42.419       74.356       37.725     1799.399     5528.787     1423.197        2.088        0.438      181.410       34.763        0.037      333.992        3.669      856.218
03/30/2014  03:15:00     -112.958      179.155      -28.675       67.137       72.341       45.628     4507.379     5233.250     2081.880        2.875        0.591      211.793       43.712        0.043      333.873        3.469      856.237
03/30/2014  03:16:00      -79.211      244.895      -24.113       50.021       75.218       38.076     2502.053     5657.753     1449.813        3.822        0.480      257.387       29.421        0.013      333.861        3.451      856.261
03/30/2014  03:17:00      -80.069      198.414      -18.315       56.043       75.634       34.495     3140.806     5720.507     1189.889        2.808        0.503      213.961       35.072        0.027      333.876        3.475      856.286
03/30/2014  03:18:00      -34.056      267.572      -30.612       45.499       56.938       26.966     2070.182     3241.920      727.163        3.986        0.302      269.730       24.819        0.008      333.717        3.209      856.288
03/30/2014  03:19:00      -27.752      268.656      -36.794       46.960       68.782       37.501     2205.195     4730.895     1406.308        4.132        0.417      270.086       31.446        0.014      333.609        3.030      856.291
03/30/2014  03:20:00      -20.317      259.875      -29.995       48.484      116.003       37.222     2350.706    13456.625     1385.477        4.302        0.860      260.668       54.279        0.043      333.543        2.923      856.293
03/30/2014  03:21:00       -4.384      257.319      -31.436       52.213       79.840       39.904     2726.158     6374.482     1592.330        3.895        0.535      257.356       39.876        0.024      333.467        2.796      856.283
03/30/2014  03:22:00      -61.643      223.277      -27.908       53.412       51.121       26.365     2852.867     2613.367      695.113        3.030        0.308      231.630       15.599        0.005      333.502        2.854      856.267
03/30/2014  03:23:00      -29.958      172.024      -25.409       54.404       38.784       28.878     2959.765     1504.163      833.951        1.822        0.265      174.613       18.820        0.012      333.495        2.847      856.240
03/30/2014  03:24:00      -11.136      238.844      -29.188       41.787       55.605       23.931     1746.166     3091.917      572.683        3.172        0.271      239.104       24.093        0.010      333.433        2.740      856.215
03/30/2014  03:25:00        6.985      186.813      -25.723       50.331       63.444       33.714     2533.183     4025.086     1136.640        2.165        0.385      186.944       28.191        0.023      333.406        2.698      856.176
03/30/2014  03:26:00      -49.336      174.785      -28.963       45.910       59.465       24.995     2107.700     3536.130      624.760        2.004        0.313      181.614       28.090        0.024      333.515        2.878      856.153
03/30/2014  03:27:00      -51.891      237.331      -31.636       56.250       45.186       28.612     3164.008     2041.816      818.640        3.302        0.301      242.938       19.580        0.006      333.442        2.756      856.128
03/30/2014  03:28:00      -52.039      146.143      -13.420       38.067       60.387       30.237     1449.081     3646.547      914.282        1.513        0.300      155.132       31.740        0.042      333.539        2.918      856.100
03/30/2014  03:29:00      -74.201      164.682      -14.993       55.613       58.367       41.824     3092.787     3406.689     1749.253        2.055        0.412      180.626       39.466        0.048      333.516        2.879      856.075
03/30/2014  03:30:00      -82.656      155.496      -24.810       26.883       46.588       26.861      722.718     2170.450      721.509        1.762        0.181      176.100       17.672        0.010      333.468        2.800      856.061
03/30/2014  03:31:00      -67.586       50.867       -8.933       26.641       39.406       21.001      709.750     1552.842      441.059        0.497        0.135       84.590       18.059        0.046      333.475        2.813      856.043
03/30/2014  03:32:00      -77.575       83.012      -12.479       34.208       60.496       22.997     1170.185     3659.718      528.858        0.921        0.268      113.617       23.383        0.042      333.492        2.841      856.049
03/30/2014  03:33:00      -65.586       83.527      -18.733       41.633       46.820       27.746     1733.267     2192.074      769.849        0.816        0.235      106.199       21.940        0.043      333.561        2.955      856.049
03/30/2014  03:34:00     -111.107       28.699      -12.795       39.642       29.073       21.065     1571.520      845.247      443.747        0.810        0.143      114.753        8.717        0.006      333.573        2.976      856.049
03/30/2014  03:35:00      -71.654       41.301      -10.507       32.973       32.569       22.573     1087.226     1060.723      509.519        0.480        0.133       82.705       20.294        0.060      333.545        2.930      856.047
03/30/2014  03:36:00      -76.284       71.098       -5.953       30.785       75.026       24.913      947.723     5628.910      620.678        0.905        0.360      104.279       27.310        0.069      333.580        2.988      856.057
03/30/2014  03:37:00      -97.246       49.737       -7.300       39.769       75.966       23.065     1581.545     5770.853      531.976        0.993        0.394      109.227       17.522        0.026      333.612        3.040      856.060
03/30/2014  03:38:00      -77.958        7.353       -5.426       28.854       30.059       18.748      832.566      903.532      351.476        0.412        0.104       78.304       10.808        0.019      333.560        2.954      856.062
03/30/2014  03:39:00     -120.510      -14.457      -20.870       38.193       54.719       29.415     1458.741     2994.190      865.267        1.024        0.266      121.374       14.805        0.015      333.652        3.108      856.054
03/30/2014  03:40:00     -191.891      -30.339      -25.894       40.412       33.177       27.627     1633.097     1100.694      763.240        2.095        0.175      194.274       24.087        0.015      333.604        3.027      856.075
03/30/2014  03:41:00     -136.306      -75.878      -20.273       74.684       61.884       38.175     5577.669     3829.568     1457.356        1.780        0.543      156.003       30.977        0.039      333.609        3.035      856.075
03/30/2014  03:42:00     -251.677      -66.608      -37.865       81.145       69.656       33.905     6584.502     4852.019     1149.551        4.090        0.629      260.342       20.808        0.006      333.572        2.971      856.081
03/30/2014  03:43:00     -340.016     -103.551      -20.746      125.806      106.652       53.335    15827.273    11374.588     2844.627        7.840        1.502      355.434       42.505        0.014      333.806        3.360      856.059
03/30/2014  03:44:00     -322.337      -53.523      -18.627      130.876       85.872       60.548    17128.649     7374.064     3666.039        6.764        1.408      326.750       71.528        0.048      333.786        3.325      856.065
03/30/2014  03:45:00     -333.028     -177.480      -25.972       96.816       84.205       59.779     9373.297     7090.559     3573.486        8.156        1.002      377.368       44.810        0.014      333.824        3.387      856.058
03/30/2014  03:46:00     -411.365     -121.387      -13.858      133.700      100.523       61.780    17875.626    10104.962     3816.784       10.797        1.590      428.901       61.775        0.021      333.890        3.498      856.052
03/30/2014  03:47:00     -355.362      -43.761      -27.712      156.090      109.949       60.883    24364.068    12088.778     3706.776        8.455        2.008      358.046       70.771        0.039      333.903        3.519      856.035
03/30/2014  03:48:00     -217.860      -78.884       11.019      128.723      137.309       56.745    16569.692    18853.727     3220.026        4.622        1.932      231.702       61.595        0.071      333.891        3.501      856.015
03/30/2014  03:49:00     -276.248      -31.393       -1.749      117.432       99.238       58.004    13790.216     9848.134     3364.466        5.215        1.350      278.027       54.434        0.038      333.894        3.505      856.021
03/30/2014  03:50:00     -410.184      -57.558      -24.698      138.478       98.291       67.486    19176.182     9661.086     4554.312       10.278        1.670      414.203       60.881        0.022      333.954        3.604      856.019
03/30/2014  03:51:00     -386.885      -14.406      -19.986      111.359      116.451       64.282    12400.752    13560.922     4132.114        9.018        1.505      387.153       61.130        0.025      333.961        3.617      856.012
03/30/2014  03:52:00     -378.504      -47.535        7.607      177.409      159.005       91.422    31473.936    25282.436     8357.981       10.534        3.256      381.477       98.307        0.066      334.004        3.688      856.002
03/30/2014  03:53:00     -477.794     -123.320      -31.211      105.910      120.823       63.497    11217.027    14598.255     4031.873       13.715        1.492      493.452       54.399        0.012      333.999        3.678      856.037
03/30/2014  03:54:00     -274.241       -6.961      -29.629      116.025      105.744       52.097    13461.794    11181.831     2714.110        5.174        1.368      274.329       50.772        0.034      333.989        3.663      856.056
03/30/2014  03:55:00     -328.212      -55.849      -14.416       85.949       89.113       48.451     7387.163     7941.058     2347.506        6.436        0.884      332.929       49.363        0.022      333.975        3.640      856.068
03/30/2014  03:56:00     -285.198      -89.160       -5.687       76.869       99.621       42.167     5908.842     9924.395     1778.055        5.346        0.881      298.810       35.967        0.014      333.966        3.625      856.096
03/30/2014  03:57:00     -410.965      -73.911      -26.349      148.967      113.189       65.553    22191.066    12811.671     4297.146       10.717        1.965      417.558       71.389        0.029      333.955        3.606      856.093
03/30/2014  03:58:00     -273.542      -47.525      -17.653      143.392      101.412       63.085    20561.229    10284.357     3979.707        5.610        1.741      277.640       63.044        0.052      333.978        3.645      856.058
03/30/2014  03:59:00     -429.003       62.616      -40.853      134.783      117.313       71.779    18166.342    13762.369     5152.165       11.335        1.854      433.549       67.897        0.025      333.932        3.568      856.072
03/30/2014  04:00:00     -472.251      -62.720      -30.801      118.739      152.067       60.686    14099.057    23124.291     3682.793       13.440        2.045      476.397       58.331        0.015      333.921        3.551      856.060
03/30/2014  04:01:00     -346.374     -110.839       -9.768      111.634      104.287       62.503    12462.106    10875.706     3906.663        7.979        1.362      363.676       57.233        0.025      333.922        3.552      856.034
03/30/2014  04:02:00     -414.315     -129.583      -32.490      183.034      139.841       67.906    33501.344    19555.507     4611.249       12.357        2.883      434.107       67.974        0.025      333.910        3.531      855.998
03/30/2014  04:03:00     -178.803      -92.064        9.213      140.838      110.788       65.829    19835.244    12274.062     4333.401        3.848        1.822      201.113       66.391        0.109      333.921        3.552      855.981
03/30/2014  04:04:00     -212.340      -60.897        5.557      115.939      103.505       53.702    13441.794    10713.277     2883.869        3.793        1.352      220.900       59.873        0.073      333.884        3.489      855.966
03/30/2014  04:05:00     -307.922      -40.193       -0.976      205.537      165.364       85.054    42245.643    27345.372     7234.151        8.661        3.841      310.534       95.314        0.094      333.907        3.526      855.946
03/30/2014  04:06:00     -368.422      -89.126      -22.514      216.439      182.045      106.780    46845.974    33140.475    11401.881       11.777        4.569      379.050      116.002        0.094      333.901        3.515      855.914
03/30/2014  04:07:00     -195.481      -37.836       16.707      148.609      120.538       76.617    22084.512    14529.313     5870.211        4.120        2.124      199.109       71.707        0.130      333.926        3.558      855.914
03/30/2014  04:08:00     -352.107      -86.098      -13.406      143.261      116.452       69.693    20523.715    13560.966     4857.123        8.525        1.947      362.481       67.998        0.035      333.859        3.447      855.906
03/30/2014  04:09:00     -305.891      -85.209       -6.438      242.302      173.556       96.954    58710.210    30121.856     9399.994        9.953        4.912      317.538      116.111        0.134      333.896        3.508      855.865
03/30/2014  04:10:00     -454.943      -41.716      -32.468      140.814      126.277       67.601    19828.588    15945.826     4569.840       12.505        2.017      456.851       74.647        0.027      333.817        3.378      855.886
03/30/2014  04:11:00     -477.864      -47.248      -37.068      179.137      138.510       76.075    32090.223    19184.972     5787.434       14.450        2.853      480.194       86.002        0.032      333.799        3.346      855.880
03/30/2014  04:12:00     -330.187      -14.114       -8.258      159.574      117.092       69.692    25463.894    13710.487     4856.990        7.665        2.202      330.488       72.801        0.049      333.810        3.364      855.872
03/30/2014  04:13:00     -363.434      -13.233      -17.583      187.407      135.453       74.877    35121.340    18347.450     5606.624        9.581        2.954      363.675       84.968        0.055      333.780        3.314      855.887
03/30/2014  04:14:00     -453.546     -100.171      -18.878      195.978      142.734       76.627    38407.277    20373.131     5871.655       14.036        3.233      464.476       95.663        0.042      333.744        3.256      855.885
03/30/2014  04:15:00     -431.486     -142.572      -32.410      194.934      184.761       85.524    37999.288    34136.523     7314.369       14.349        3.973      454.430       82.329        0.033      333.747        3.260      855.858
03/30/2014  04:16:00     -548.110     -150.333      -29.255      177.031      119.614       80.329    31339.975    14307.441     6452.676       18.798        2.605      568.352       86.598        0.023      333.664        3.125      855.899
03/30/2014  04:17:00     -347.539     -130.289      -12.871      158.138      137.685       71.811    25007.644    18957.203     5156.873        9.351        2.456      371.159       83.455        0.051      333.661        3.118      855.901
03/30/2014  04:18:00     -337.007     -143.797        5.408      174.991      108.878       65.619    30621.951    11854.520     4305.830        9.052        2.339      366.403       76.449        0.044      333.647        3.097      855.904
03/30/2014  04:19:00     -362.493     -106.839      -11.624      179.594      156.400       75.148    32253.936    24460.892     5647.197       10.264        3.118      377.910       76.133        0.041      333.640        3.084      855.920
03/30/2014  04:20:00     -339.626      -85.844      -13.674      112.832      119.326       60.027    12731.127    14238.638     3603.250        7.673        1.529      350.307       60.833        0.030      333.630        3.068      855.933
03/30/2014  04:21:00     -265.616        7.714       -5.812      125.390      111.545       60.275    15722.706    12442.271     3633.043        5.122        1.590      265.728       61.253        0.053      333.638        3.081      855.928
03/30/2014  04:22:00     -329.528      -84.788      -19.959      130.444      118.945       69.927    17015.518    14147.975     4889.823        7.611        1.803      340.261       85.982        0.064      333.633        3.072      855.941
03/30/2014  04:23:00     -340.971      -39.984      -14.997      121.784      136.686       62.521    14831.426    18683.007     3908.833        7.775        1.871      343.307       61.092        0.032      333.615        3.043      855.949
03/30/2014  04:24:00     -194.007      -22.752       -1.402      162.517      112.764       60.780    26411.887    12715.758     3694.237        4.048        2.141      195.336       70.984        0.132      333.659        3.116      855.957
03/30/2014  04:25:00     -178.683       18.863      -13.510      125.226       92.015       53.800    15681.489     8466.775     2894.450        2.975        1.352      179.676       32.101        0.032      333.645        3.093      855.966
03/30/2014  04:26:00     -352.616       -1.521      -43.917      105.002       71.995       47.403    11025.384     5183.259     2247.040        7.236        0.923      352.619       36.194        0.011      333.637        3.080      855.999
03/30/2014  04:27:00     -286.289       -2.941      -31.489      101.039      103.660       64.626    10208.900    10745.438     4176.551        5.404        1.257      286.304       38.507        0.018      333.666        3.126      856.012
03/30/2014  04:28:00     -186.080      -84.197      -12.499      114.601       78.916       50.749    13133.502     6227.775     2575.421        3.190        1.097      204.243       48.416        0.056      333.700        3.184      856.038
03/30/2014  04:29:00     -323.428     -119.294      -10.564      144.249      111.612       63.368    20807.907    12457.129     4015.551        7.811        1.864      344.727       72.955        0.045      333.654        3.109      856.078
03/30/2014  04:30:00     -401.187     -117.258      -13.625      152.907      128.610       73.643    23380.599    16540.473     5423.356       11.011        2.267      417.972       86.994        0.043      333.676        3.143      856.090
03/30/2014  04:31:00     -357.822     -110.838      -18.550      142.368      131.611       62.751    20268.543    17321.532     3937.653        9.109        2.076      374.596       59.957        0.026      333.698        3.179      856.089
03/30/2014  04:32:00     -308.355     -142.814       10.129      117.699      115.648       64.051    13853.000    13374.431     4102.544        7.345        1.566      339.821       56.791        0.028      333.696        3.173      856.079
03/30/2014  04:33:00     -234.957      -34.016      -16.606      108.638       75.616       60.094    11802.285     5717.822     3611.237        3.888        1.057      237.407       63.195        0.071      333.729        3.230      856.104
03/30/2014  04:34:00     -338.277       60.327      -20.312      154.150       91.870       65.342    23762.167     8440.115     4269.572        7.747        1.824      343.614       74.452        0.047      333.696        3.176      856.089
03/30/2014  04:35:00     -348.067      -90.363      -20.719      123.052      136.546       61.894    15141.707    18644.801     3830.829        8.367        1.881      359.605       48.107        0.018      333.699        3.182      856.077
03/30/2014  04:36:00     -326.226      -59.772      -17.281      129.208       97.399       64.715    16694.637     9486.608     4188.078        7.033        1.518      331.656       74.928        0.051      333.690        3.165      856.118
03/30/2014  04:37:00     -297.842      -64.247       -2.306      140.335      102.906       60.904    19693.968    10589.603     3709.240        6.341        1.700      304.692       68.131        0.050      333.683        3.154      856.145
03/30/2014  04:38:00     -339.525       -1.922      -15.004      156.395      124.819       59.717    24459.520    15579.764     3566.104        7.955        2.180      339.531       66.946        0.039      333.698        3.177      856.157
03/30/2014  04:39:00     -310.602       48.807      -20.670      155.198      128.709       62.077    24086.477    16565.897     3853.531        7.189        2.225      314.414       69.810        0.049      333.710        3.198      856.161
03/30/2014  04:40:00     -161.697       20.140        3.536      183.751       75.820       58.428    33764.500     5748.736     3413.818        3.474        2.146      162.946       77.746        0.228      333.732        3.238      856.181
03/30/2014  04:41:00     -284.798       17.859       -9.060      104.175       87.552       58.604    10852.473     7665.284     3434.487        5.173        1.098      285.357       52.981        0.034      333.687        3.160      856.204
03/30/2014  04:42:00     -320.999      -52.503      -10.231      159.298       96.652       65.021    25375.986     9341.531     4227.775        7.242        1.947      325.265       78.981        0.059      333.664        3.125      856.221
03/30/2014  04:43:00     -335.277      -56.739      -15.488      131.447      122.869       64.496    17278.414    15096.680     4159.694        7.620        1.827      340.044       69.167        0.041      333.659        3.116      856.224
03/30/2014  04:44:00     -448.545      -18.613      -14.974      284.390      141.794      100.050    80877.489    20105.458    10009.948       15.636        5.550      448.931      137.242        0.093      333.645        3.091      856.222
03/30/2014  04:45:00     -282.326      -65.141      -13.492      155.517      115.177       66.380    24185.472    13265.805     4406.338        6.299        2.093      289.744       52.751        0.033      333.642        3.087      856.205
03/30/2014  04:46:00     -340.668       -8.518      -22.574      155.256      119.729       62.025    24104.459    14335.077     3847.094        7.945        2.114      340.775       70.293        0.043      333.624        3.057      856.220
03/30/2014  04:47:00     -428.013      -57.717      -29.176      173.983      135.719       83.989    30270.047    18419.609     7054.122       12.155        2.787      431.887       85.525        0.039      333.606        3.028      856.216
03/30/2014  04:48:00     -436.453     -157.447       -6.334      131.340      140.355       68.681    17250.116    19699.400     4717.122       12.849        2.083      463.983       66.359        0.020      333.583        2.990      856.195
03/30/2014  04:49:00     -260.149      -44.516       -5.228      161.147      128.547       87.693    25968.233    16524.225     7690.123        5.992        2.509      263.930       85.291        0.104      333.603        3.022      856.215
03/30/2014  04:50:00     -437.637      -72.362      -20.626      165.827      176.792       90.889    27498.553    31255.284     8260.806       13.209        3.351      443.579       86.189        0.038      333.568        2.966      856.239
03/30/2014  04:51:00     -398.650      -60.633      -18.972      156.407      133.982       61.293    24463.279    17951.069     3756.810       10.456        2.309      403.235       62.460        0.024      333.541        2.919      856.267
03/30/2014  04:52:00     -364.419      -46.455      -11.998      151.329      137.875       69.867    22900.441    19009.467     4881.419        9.094        2.340      367.368       76.382        0.043      333.532        2.905      856.274
03/30/2014  04:53:00     -331.999      -69.830      -16.471      132.636      123.724       58.619    17592.253    15307.606     3436.220        7.585        1.817      339.263       58.069        0.029      333.534        2.906      856.282
03/30/2014  04:54:00     -316.961     -113.422       -5.545      190.091      128.169       80.519    36134.749    16427.220     6483.357        8.619        2.952      336.643       80.493        0.057      333.554        2.942      856.281
03/30/2014  04:55:00     -411.514     -100.328      -11.424      217.324      163.442       80.023    47229.567    26713.138     6403.725       12.993        4.017      423.567       66.059        0.024      333.509        2.866      856.290
03/30/2014  04:56:00     -324.093     -105.350      -10.788      187.213      151.519       85.330    35048.877    22958.086     7281.150        9.076        3.264      340.785       99.757        0.086      333.538        2.914      856.295
03/30/2014  04:57:00     -354.020     -113.241        1.913      176.808      100.820       60.680    31260.969    10164.714     3682.054        9.162        2.255      371.690       74.419        0.040      333.529        2.899      856.315
03/30/2014  04:58:00     -357.759      -20.900      -24.043      174.106      152.461       78.893    30312.960    23244.438     6224.166        9.438        2.989      358.369       83.310        0.054      333.524        2.891      856.342
03/30/2014  04:59:00     -505.189     -174.403      -23.333      200.380      171.653       79.620    40152.204    29464.672     6339.305       18.105        3.798      534.446       82.822        0.024      333.523        2.891      856.329
03/30/2014  05:00:00     -461.212      -18.343      -38.792      180.234       96.837       62.476    32484.320     9377.474     3903.283       13.015        2.288      461.577       76.126        0.027      333.530        2.903      856.347
03/30/2014  05:01:00     -395.489      -32.263      -48.789      115.420      116.770       55.237    13321.883    13635.297     3051.124        9.491        1.500      396.803       41.863        0.011      333.549        2.934      856.351
03/30/2014  05:02:00     -305.276      -73.298      -26.427      102.119      115.960       67.062    10428.220    13446.756     4497.329        6.381        1.419      313.952       61.370        0.038      333.587        2.997      856.350
03/30/2014  05:03:00     -450.168     -108.345       -9.210      143.426      121.392       69.098    20570.995    14735.906     4774.581       12.727        2.004      463.022       68.054        0.022      333.555        2.943      856.347
03/30/2014  05:04:00     -300.587      -61.502      -11.422      183.135      100.754       65.327    33538.577    10151.291     4267.635        7.110        2.398      306.815       87.284        0.081      333.566        2.962      856.371
03/30/2014  05:05:00     -396.603      -53.498       -5.545      137.463      131.470       75.002    18896.065    17284.258     5625.295       10.099        2.090      400.195       72.032        0.032      333.563        2.956      856.396
03/30/2014  05:06:00     -330.305      -87.486      -18.586      124.602       95.366       55.419    15525.624     9094.645     3071.269        7.239        1.385      341.695       52.513        0.024      333.545        2.928      856.406
03/30/2014  05:07:00     -298.699     -158.632       -1.401      147.086      116.106       67.659    21634.243    13480.700     4577.688        7.703        1.985      338.208       48.208        0.020      333.584        2.990      856.389
03/30/2014  05:08:00     -352.068        5.578      -25.011      179.825      134.450       84.873    32337.011    18076.880     7203.455        9.110        2.881      352.112       89.345        0.064      333.559        2.949      856.391
03/30/2014  05:09:00     -295.931     -109.355      -17.292      230.501      123.697       76.312    53130.939    15301.026     5823.530        8.703        3.713      315.490      101.455        0.103      333.570        2.968      856.391
03/30/2014  05:10:00     -281.125     -104.870      -11.892      139.891      110.117       64.953    19569.569    12125.844     4218.872        6.303        1.796      300.048       63.471        0.045      333.584        2.991      856.369
03/30/2014  05:11:00     -306.710      -89.492      -20.439      115.618      106.265       49.535    13367.635    11292.322     2453.720        6.480        1.356      319.499       48.041        0.023      333.559        2.951      856.375
03/30/2014  05:12:00     -331.511     -143.037      -16.335      152.156       98.409       62.396    23151.479     9684.331     3893.314        8.367        1.836      361.053       69.618        0.037      333.548        2.933      856.390
03/30/2014  05:13:00     -311.506      -67.602       -8.097      161.091      116.367       62.897    25950.326    13541.323     3956.073        7.255        2.172      318.757       70.809        0.049      333.542        2.922      856.401
03/30/2014  05:14:00     -461.190      -51.282      -21.534      200.097      186.001       79.717    40038.668    34596.464     6354.768       14.837        4.049      464.032       98.117        0.045      333.558        2.949      856.398
03/30/2014  05:15:00     -227.758      -28.229       -2.466      177.276      129.012       71.704    31426.732    16644.009     5141.501        5.293        2.661      229.501       91.702        0.160      333.556        2.946      856.409
03/30/2014  05:16:00     -216.002      -90.466      -10.687       94.468       77.838       45.035     8924.177     6058.711     2028.121        3.598        0.851      234.182       40.240        0.030      333.563        2.957      856.419
03/30/2014  05:17:00     -324.373     -126.222      -11.473      101.094       74.795       50.817    10219.945     5594.272     2582.407        6.984        0.920      348.066       49.081        0.020      333.517        2.880      856.437
03/30/2014  05:18:00     -390.743      -89.932      -23.976      112.189      116.236       60.503    12586.399    13510.717     3660.648        9.554        1.488      400.958       63.341        0.025      333.523        2.890      856.452
03/30/2014  05:19:00     -230.060      -22.022       -1.298      109.306       76.249       45.668    11947.722     5813.961     2085.552        3.663        0.992      231.112       47.548        0.042      333.525        2.894      856.458
03/30/2014  05:20:00     -241.621       14.397      -28.487       54.125       49.998       40.739     2929.469     2499.782     1659.674        3.324        0.354      242.050       30.487        0.016      333.518        2.879      856.467
03/30/2014  05:21:00     -228.414      -40.990      -19.381       81.296       87.308       48.710     6609.009     7622.688     2372.681        3.541        0.830      232.063       32.773        0.020      333.543        2.923      856.486
03/30/2014  05:22:00     -162.664      -65.464       -7.683      122.197       78.542       50.077    14932.096     6168.770     2507.700        2.720        1.180      175.343       47.215        0.073      333.563        2.957      856.499
03/30/2014  05:23:00     -271.338       -2.494      -25.024       89.337      114.358       47.027     7981.042    13077.690     2211.494        4.876        1.164      271.349       38.380        0.020      333.517        2.879      856.522
03/30/2014  05:24:00     -233.458      -60.107      -41.363       70.395       90.368       39.542     4955.525     8166.363     1563.600        3.725        0.734      241.071       31.703        0.017      333.540        2.916      856.533
03/30/2014  05:25:00     -181.003      -65.539      -17.800      108.290       78.700       43.270    11726.714     6193.737     1872.286        2.858        0.990      192.503       45.865        0.057      333.525        2.893      856.554
03/30/2014  05:26:00     -265.725      -45.446      -22.763      105.513       58.248       44.798    11133.015     3392.876     2006.817        4.486        0.827      269.584       37.597        0.019      333.523        2.889      856.568
03/30/2014  05:27:00     -201.002        1.320      -24.666       83.015       98.203       46.326     6891.464     9643.820     2146.102        2.984        0.934      201.007       47.483        0.056      333.538        2.916      856.568
03/30/2014  05:28:00     -165.082      -18.529       -6.980       86.799       86.158       39.996     7534.071     7423.197     1599.681        2.210        0.828      166.119       41.833        0.063      333.578        2.982      856.583
03/30/2014  05:29:00     -185.034       14.016       -7.135      112.446       59.502       44.281    12644.171     3540.444     1960.845        2.631        0.907      185.564       47.654        0.066      333.565        2.962      856.602
03/30/2014  05:30:00     -285.334      -87.925       -3.409      141.200      105.349       59.422    19937.474    11098.423     3530.958        6.186        1.728      298.574       54.051        0.033      333.583        2.990      856.611
03/30/2014  05:31:00     -251.954     -133.068        6.225      149.198      114.106       58.101    22260.084    13020.154     3375.757        5.993        1.933      284.935       60.832        0.046      333.616        3.045      856.603
03/30/2014  05:32:00     -155.721      -48.407       13.640      123.059       77.499       55.610    15143.455     6006.163     3092.426        2.551        1.212      163.071       62.907        0.149      333.649        3.100      856.617
03/30/2014  05:33:00     -242.624        1.423      -24.023       73.139       75.390       42.080     5349.320     5683.720     1770.745        3.612        0.640      242.629       39.446        0.026      333.597        3.013      856.639
03/30/2014  05:34:00     -132.938      -25.256       -9.502       89.789       94.073       35.790     8062.126     8849.656     1280.928        1.829        0.910      135.316       32.243        0.057      333.601        3.022      856.632
03/30/2014  05:35:00     -275.436        1.428      -18.312      119.771      116.078       47.749    14345.004    13474.116     2280.013        5.314        1.505      275.440       43.555        0.025      333.615        3.042      856.632
03/30/2014  05:36:00     -218.940       -7.321      -18.235       90.052       69.060       37.658     8109.351     4769.271     1418.104        3.131        0.715      219.063       28.101        0.016      333.602        3.022      856.646
03/30/2014  05:37:00     -131.060      -44.659       13.672       84.930       86.120       48.422     7213.033     7416.613     2344.737        1.816        0.849      138.460       40.381        0.085      333.614        3.044      856.657
03/30/2014  05:38:00     -104.701      -16.499      -12.925       95.735       50.985       47.718     9165.170     2599.454     2276.972        1.272        0.702      105.993       35.460        0.112      333.648        3.100      856.669
03/30/2014  05:39:00      -72.787        2.737        1.480       47.962       74.485       38.957     2300.355     5547.992     1517.630        0.733        0.468       72.838       40.282        0.306      333.661        3.121      856.691
03/30/2014  05:40:00      -80.670       -2.606       -0.297       40.070       57.840       27.508     1605.584     3345.421      756.675        0.611        0.285       80.712       22.731        0.079      333.685        3.161      856.701
03/30/2014  05:41:00     -116.118       25.575      -19.665       49.455       71.852       34.864     2445.834     5162.708     1215.483        1.167        0.441      118.901       19.713        0.027      333.654        3.110      856.723
03/30/2014  05:42:00      -80.157       38.404       -7.622       63.187       91.508       30.535     3992.564     8373.682      932.356        1.063        0.665       88.882       23.104        0.068      333.688        3.166      856.748
03/30/2014  05:43:00     -172.182       67.850      -19.196      103.247       71.078       42.006    10660.002     5052.047     1764.467        2.604        0.874      185.069       37.363        0.041      333.649        3.099      856.757
03/30/2014  05:44:00      -89.314       61.977       -8.604       40.274       59.255       27.535     1621.985     3511.147      758.151        0.889        0.295      108.711       22.621        0.043      333.660        3.118      856.773
03/30/2014  05:45:00     -126.845       83.656      -17.881       77.225       64.290       49.748     5963.714     4133.166     2474.848        1.799        0.629      151.947       54.802        0.130      333.683        3.157      856.791
03/30/2014  05:46:00     -126.163       82.377      -11.222       91.471       62.063       41.437     8366.899     3851.760     1717.002        1.838        0.697      150.675       45.155        0.090      333.668        3.132      856.824
03/30/2014  05:47:00     -145.146      -21.203       -2.441       75.456       75.254       52.097     5693.547     5663.133     2714.125        1.779        0.704      146.687       51.478        0.123      333.725        3.226      856.841
03/30/2014  05:48:00     -143.588        9.277      -14.638       64.441       77.632       28.993     4152.621     6026.726      840.589        1.597        0.551      143.887       26.258        0.033      333.681        3.155      856.865
03/30/2014  05:49:00      -40.708        8.375       -3.791       38.110       34.832       22.898     1452.401     1213.234      524.316        0.247        0.159       41.561       13.111        0.100      333.686        3.161      856.880
03/30/2014  05:50:00     -133.046       25.938       -6.817       72.005       53.475       31.682     5184.790     2859.617     1003.764        1.373        0.452      135.551       31.368        0.054      333.681        3.155      856.882
03/30/2014  05:51:00      -74.848       -5.236        5.593       78.742       62.464       46.605     6200.234     3901.741     2171.988        0.897        0.614       75.031       45.554        0.369      333.752        3.272      856.896
03/30/2014  05:52:00      -24.245       19.173       12.249       75.781       78.772       41.260     5742.792     6205.019     1702.363        0.738        0.683       30.909       39.863        1.663      333.781        3.321      856.883
03/30/2014  05:53:00     -125.259       -7.738       -5.381       75.062       78.201       49.658     5634.268     6115.438     2465.901        1.499        0.711      125.498       42.121        0.113      333.772        3.305      856.878
03/30/2014  05:54:00      -74.060       41.766       20.582       85.496       64.170       45.030     7309.624     4117.785     2027.719        1.055        0.673       85.025       41.490        0.238      333.811        3.370      856.885
03/30/2014  05:55:00     -115.785       -7.017      -19.417       48.112       31.005       25.070     2314.722      961.288      628.488        0.887        0.195      115.998       17.535        0.023      333.815        3.377      856.913
03/30/2014  05:56:00      -91.264        6.122      -10.290       81.620       59.330       41.218     6661.808     3520.008     1698.956        1.017        0.594       91.469       42.045        0.211      333.731        3.237      856.928
03/30/2014  05:57:00     -270.359     -110.200      -16.782      124.692      101.447       62.273    15548.193    10291.564     3877.980        5.761        1.486      291.955       59.297        0.041      333.663        3.122      856.932
03/30/2014  05:58:00     -239.671      -64.906      -22.719      119.093       73.501       51.845    14183.133     5402.435     2687.899        4.222        1.114      248.304       59.836        0.058      333.654        3.107      856.958
03/30/2014  05:59:00     -145.938      -29.332      -13.445       73.617       58.785       31.247     5419.439     3455.727      976.399        1.609        0.493      148.856       34.373        0.053      333.680        3.152      856.976
03/30/2014  06:00:00     -147.416       91.830      -36.397       63.988       79.464       38.221     4094.436     6314.500     1460.842        2.168        0.593      173.679       37.689        0.047      333.706        3.193      856.989
03/30/2014  06:01:00     -100.217       44.277       -6.499       58.549       54.682       39.170     3427.999     2990.106     1534.324        1.000        0.398      109.562       37.442        0.117      333.686        3.163      856.985
03/30/2014  06:02:00     -113.889       50.175      -14.157       91.652       65.993       35.512     8400.135     4355.035     1261.123        1.485        0.701      124.451       42.589        0.117      333.714        3.209      857.006
03/30/2014  06:03:00     -188.915       97.201      -31.383       92.988       55.050       43.406     8646.859     3030.470     1884.078        2.984        0.678      212.455       38.567        0.033      333.650        3.103      857.009
03/30/2014  06:04:00     -136.179       62.554      -35.791       47.057       51.649       28.113     2214.367     2667.571      790.331        1.470        0.284      149.859       24.790        0.027      333.663        3.123      857.020
03/30/2014  06:05:00      -48.464       36.160        9.186       40.927       38.515       22.475     1675.012     1483.427      505.144        0.370        0.183       60.468       22.404        0.137      333.744        3.259      857.047
03/30/2014  06:06:00      -35.399       95.804        5.150       40.881       73.828       34.847     1671.220     5450.501     1214.293        0.940        0.417      102.135       39.146        0.147      333.763        3.291      857.056
03/30/2014  06:07:00      -41.333       99.247       -6.084       31.912       48.956       29.642     1018.360     2396.668      878.627        0.794        0.215      107.510       20.642        0.037      333.806        3.364      857.070
03/30/2014  06:08:00      -70.893       85.886      -15.090       25.209       64.343       28.383      635.499     4139.980      805.606        0.910        0.279      111.365       26.829        0.058      333.701        3.188      857.078
03/30/2014  06:09:00      -80.943       87.721      -17.527       40.185       39.551       23.820     1614.860     1564.301      567.391        0.915        0.187      119.360       23.946        0.040      333.717        3.215      857.091
03/30/2014  06:10:00      -50.665       56.488        7.965       33.423       51.593       28.929     1117.081     2661.878      836.872        0.522        0.231       75.880       25.208        0.110      333.758        3.281      857.099
03/30/2014  06:11:00      -79.516       89.940      -15.108       59.688       72.074       35.149     3562.714     5194.657     1235.476        1.231        0.500      120.050       33.275        0.077      333.725        3.228      857.118
03/30/2014  06:12:00     -114.030      126.729      -31.568       64.420       57.052       37.487     4149.998     3254.914     1405.288        1.943        0.441      170.479       39.820        0.055      333.725        3.226      857.121
03/30/2014  06:13:00      -50.935      102.339      -20.040       40.310       41.160       26.514     1624.857     1694.116      703.003        0.874        0.201      114.314       19.046        0.028      333.767        3.298      857.139
03/30/2014  06:14:00      -65.902      156.071      -18.923       40.081       68.656       29.649     1606.471     4713.705      879.039        1.813        0.360      169.415       35.992        0.045      333.706        3.193      857.157
03/30/2014  06:15:00      -32.505      111.741      -10.279       63.403       62.178       31.105     4019.955     3866.099      967.496        1.125        0.443      116.372       27.688        0.057      333.632        3.075      857.156
03/30/2014  06:16:00      -18.507      199.748      -28.273       28.090       34.017       21.525      789.047     1157.190      463.334        2.172        0.120      200.603       15.804        0.006      333.512        2.872      857.143
03/30/2014  06:17:00      -43.690      105.849       -9.672       28.569       61.351       28.881      816.212     3763.915      834.102        0.931        0.271      114.511       33.596        0.086      333.753        3.274      857.140
03/30/2014  06:18:00      -35.488       70.065      -11.475       54.020       76.341       27.502     2918.135     5827.970      756.338        0.790        0.475       78.540       34.065        0.188      333.662        3.123      857.134
03/30/2014  06:19:00      -68.805       44.568      -10.366       32.033       42.706       24.999     1026.098     1823.776      624.946        0.515        0.174       81.979       20.576        0.063      333.653        3.108      857.129
03/30/2014  06:20:00     -113.502       34.338      -21.149       39.563       80.996       30.942     1565.228     6560.394      957.379        1.179        0.454      118.582       35.453        0.089      333.614        3.043      857.145
03/30/2014  06:21:00     -109.310       -2.399       -7.998       55.552       56.657       34.797     3086.022     3210.007     1210.850        0.976        0.375      109.336       15.359        0.020      333.647        3.099      857.142
03/30/2014  06:22:00      -77.808       54.733      -11.693       44.167       59.674       26.023     1950.685     3560.944      677.218        0.769        0.309       95.131       19.098        0.040      333.665        3.129      857.146
03/30/2014  06:23:00      -85.201      130.536       -9.446       40.192       73.049       35.071     1615.384     5336.145     1229.970        1.628        0.409      155.881       23.630        0.023      333.628        3.067      857.137
03/30/2014  06:24:00      -62.542      123.648       -7.982       26.813       53.138       29.502      718.913     2823.687      870.354        1.184        0.221      138.566       21.884        0.025      333.654        3.111      857.137
03/30/2014  06:25:00      -66.170       66.822       -8.916       37.909       35.104       26.254     1437.123     1232.314      689.273        0.614        0.168       94.041       25.752        0.075      333.724        3.227      857.150
03/30/2014  06:26:00      -72.839       85.712      -16.070       30.307       52.555       24.774      918.535     2762.080      613.761        0.860        0.215      112.482       19.351        0.030      333.677        3.149      857.172
03/30/2014  06:27:00      -76.225       75.877      -25.612       47.571       88.081       29.305     2263.000     7758.305      858.766        1.155        0.544      107.553       33.482        0.097      333.617        3.049      857.173
03/30/2014  06:28:00     -100.283       69.046      -16.077       58.885       41.835       31.262     3467.471     1750.132      977.330        1.064        0.310      121.755       29.004        0.057      333.684        3.161      857.171
03/30/2014  06:29:00     -135.302       21.388      -20.841       64.510       42.377       22.718     4161.557     1795.836      516.124        1.283        0.324      136.982       21.677        0.025      333.684        3.159      857.187
03/30/2014  06:30:00     -152.773      -41.517      -10.922       61.432       50.646       34.466     3773.843     2565.027     1187.926        1.635        0.376      158.314       35.391        0.050      333.641        3.087      857.218
03/30/2014  06:31:00     -100.217      -19.466      -16.669       53.414       45.939       24.714     2853.048     2110.426      610.805        0.814        0.279      102.090       17.007        0.028      333.671        3.139      857.232
03/30/2014  06:32:00      -96.048        6.221      -19.471       41.131       54.466       27.563     1691.738     2966.493      759.717        0.753        0.271       96.249       19.718        0.042      333.601        3.023      857.237
03/30/2014  06:33:00     -162.723       59.091      -28.947       37.469       37.406       26.269     1403.895     1399.220      690.084        1.715        0.175      173.120       16.816        0.009      333.617        3.049      857.246
03/30/2014  06:34:00      -69.486       42.058       -3.924       86.760       49.133       33.719     7527.333     2414.086     1136.964        0.884        0.554       81.223       34.570        0.181      333.615        3.045      857.253
03/30/2014  06:35:00      -50.097       91.609        6.149       52.334       65.756       36.623     2738.859     4323.894     1341.280        0.967        0.420      104.412       24.607        0.056      333.685        3.161      857.251
03/30/2014  06:36:00     -100.132       77.389       -8.780       81.353       60.213       45.627     6618.270     3625.620     2081.839        1.421        0.616      126.553       48.258        0.145      333.674        3.143      857.247
03/30/2014  06:37:00      -95.985      131.073      -17.935       45.076       48.602       26.217     2031.837     2362.128      687.321        1.590        0.254      162.460       20.132        0.015      333.683        3.158      857.256
03/30/2014  06:38:00      -70.308       92.474      -13.930       33.860       39.891       27.088     1146.528     1591.253      733.739        0.858        0.174      116.167       16.782        0.021      333.744        3.260      857.260
03/30/2014  06:39:00     -111.435       72.027      -22.296       65.276       39.294       22.543     4260.918     1544.029      508.197        1.221        0.316      132.686       24.720        0.035      333.726        3.229      857.265
03/30/2014  06:40:00      -13.727       94.846       -2.445       42.966       54.733       32.315     1846.085     2995.725     1044.239        0.754        0.294       95.834       16.725        0.030      333.829        3.400      857.263
03/30/2014  06:41:00      -58.680       69.560      -14.365       43.580       52.606       36.008     1899.248     2767.368     1296.585        0.722        0.298       91.006       32.393        0.127      333.782        3.321      857.266
03/30/2014  06:42:00      -76.754      102.562      -27.583       41.642       43.586       24.618     1734.067     1899.747      606.047        1.070        0.212      128.102       23.292        0.033      333.673        3.141      857.269
03/30/2014  06:43:00      -98.821       24.498       -8.305       33.343       38.819       24.458     1111.745     1506.948      598.171        0.683        0.161      101.813       16.509        0.026      333.676        3.145      857.278
03/30/2014  06:44:00      -88.495      -22.081      -13.833       38.146       19.620       16.082     1455.123      384.961      258.624        0.530        0.105       91.209       11.173        0.015      333.695        3.178      857.283
03/30/2014  06:45:00      -98.053      -40.239       -4.048       31.517       33.354       23.264      993.301     1112.519      541.233        0.695        0.132      105.989       16.976        0.026      333.724        3.226      857.299
03/30/2014  06:46:00     -123.510       21.718      -11.737       64.292       38.365       23.586     4133.471     1471.890      556.311        1.101        0.308      125.405       27.350        0.048      333.694        3.175      857.295
03/30/2014  06:47:00      -98.352       60.441      -10.937       69.473       47.769       34.790     4826.500     2281.866     1210.335        1.088        0.416      115.439       25.393        0.048      333.774        3.309      857.302
03/30/2014  06:48:00      -54.195       23.837       -1.591       31.992       38.793       20.619     1023.507     1504.873      425.158        0.323        0.148       59.206       16.235        0.075      333.807        3.363      857.307
03/30/2014  06:49:00      -74.318       66.479      -18.090       33.953       25.045       17.342     1152.810      627.232      300.729        0.617        0.104       99.713       16.854        0.029      333.820        3.383      857.298
03/30/2014  06:50:00      -81.050       13.029       -6.580       53.566       39.361       30.104     2869.309     1549.314      906.260        0.605        0.266       82.091       27.445        0.112      333.862        3.455      857.304
03/30/2014  06:51:00     -106.415       43.312       -5.493       62.821       36.789       31.745     3946.510     1353.432     1007.748        0.977        0.315      114.891       32.263        0.079      333.854        3.442      857.294
03/30/2014  06:52:00     -160.277       24.119      -15.297       71.994       56.505       29.469     5183.097     3192.780      868.442        1.787        0.462      162.081       26.252        0.026      333.892        3.501      857.303
03/30/2014  06:53:00     -119.608      -21.243       -2.926       77.176       43.324       28.930     5956.109     1876.967      836.945        1.172        0.434      121.480       38.630        0.101      333.932        3.573      857.306
03/30/2014  06:54:00      -42.478      -31.567       10.804       52.087       41.801       37.517     2713.026     1747.314     1407.491        0.439        0.293       52.923       31.051        0.344      333.988        3.666      857.309
03/30/2014  06:55:00      -60.998       -0.537        7.979       49.242       50.089       28.740     2424.749     2508.871      825.965        0.477        0.288       61.001       26.728        0.192      333.987        3.663      857.315
03/30/2014  06:56:00     -122.976       33.592       -9.204       50.984       60.301       29.930     2599.385     3636.249      895.812        1.173        0.357      127.482       26.544        0.043      333.940        3.587      857.337
03/30/2014  06:57:00     -146.561       11.454      -18.045       50.398       64.235       27.651     2539.960     4126.129      764.553        1.468        0.372      147.008       23.328        0.025      334.001        3.685      857.350
03/30/2014  06:58:00     -232.652      -65.513      -21.390       81.910       63.954       33.451     6709.184     4090.124     1118.942        3.540        0.596      241.700       29.477        0.015      333.964        3.621      857.359
03/30/2014  06:59:00     -186.543      -71.494      -29.972      118.663       41.146       38.854    14080.955     1692.960     1509.626        2.904        0.864      199.774       29.063        0.021      333.978        3.644      857.368
03/30/2014  07:00:00     -185.546       23.985      -19.006       69.720       55.343       33.190     4860.826     3062.883     1101.565        2.219        0.451      187.090       33.606        0.032      334.006        3.692      857.388
03/30/2014  07:01:00     -169.656      -27.166       -5.364       62.417       47.208       32.537     3895.865     2228.586     1058.628        1.837        0.359      171.818       28.661        0.028      333.997        3.677      857.418
03/30/2014  07:02:00      -38.605      -27.478       17.556       76.577       65.491       36.340     5863.999     4289.011     1320.567        0.701        0.574       47.386       45.212        0.910      334.047        3.762      857.428
03/30/2014  07:03:00     -175.350       54.161        2.297      122.456       50.134       53.488    14995.452     2513.424     2860.929        2.702        1.018      183.524       67.207        0.134      334.032        3.735      857.433
03/30/2014  07:04:00     -202.446      -62.987      -20.626       84.909       77.691       33.657     7209.535     6035.954     1132.804        2.987        0.719      212.018       36.502        0.030      333.997        3.678      857.431
03/30/2014  07:05:00     -112.316      -28.943       10.958      109.524       44.259       41.477    11995.573     1958.879     1720.374        1.462        0.784      115.985       47.209        0.166      334.044        3.756      857.438
03/30/2014  07:06:00     -142.640       18.496       -3.643       69.785       67.247       51.726     4869.883     4522.140     2675.629        1.638        0.603      143.834       43.186        0.090      334.017        3.713      857.431
03/30/2014  07:07:00     -181.347      -26.291      -15.614      135.140       78.872       40.222    18262.722     6220.733     1617.824        2.996        1.305      183.243       40.233        0.048      334.006        3.691      857.430
03/30/2014  07:08:00     -242.983      -36.347       -5.443      114.734       91.104       45.669    13163.833     8300.028     2085.676        4.197        1.177      245.686       44.434        0.033      333.999        3.680      857.445
03/30/2014  07:09:00     -331.868       -1.439      -22.291      114.106       88.325       44.610    13020.278     7801.372     1990.027        6.672        1.141      331.871       27.017        0.007      333.975        3.640      857.468
03/30/2014  07:10:00     -215.683      -65.891       -0.286       84.104       95.904       44.435     7073.474     9197.482     1974.443        3.455        0.912      225.523       43.857        0.038      333.977        3.644      857.497
03/30/2014  07:11:00     -227.757      -30.786      -12.713       84.648       84.293       43.382     7165.298     7105.380     1881.955        3.456        0.808      229.828       47.456        0.043      333.972        3.635      857.524
03/30/2014  07:12:00     -202.480      -17.410      -13.084       67.151       53.881       44.583     4509.306     2903.162     1987.659        2.543        0.470      203.227       38.019        0.035      333.973        3.637      857.546
03/30/2014  07:13:00     -188.910       -2.096      -15.943       61.791       55.536       28.204     3818.141     3084.212      795.471        2.182        0.385      188.921       19.841        0.011      333.950        3.600      857.560
03/30/2014  07:14:00     -147.774       10.362       -9.257       68.114       64.596       39.528     4639.554     4172.625     1562.489        1.620        0.519      148.137       22.944        0.024      333.931        3.569      857.579
03/30/2014  07:15:00     -214.552       40.288      -10.889       73.639       68.845       36.798     5422.657     4739.582     1354.065        2.964        0.576      218.302       38.618        0.031      333.943        3.587      857.606
03/30/2014  07:16:00     -129.065      -46.655       -1.480      104.302       78.835       47.544    10878.955     6214.949     2260.433        1.909        0.968      137.238       51.489        0.141      333.958        3.613      857.635
03/30/2014  07:17:00     -208.787       13.107      -27.662       97.395       58.584       40.370     9485.831     3432.040     1629.721        2.954        0.727      209.198       36.165        0.030      333.935        3.574      857.645
03/30/2014  07:18:00     -266.548      -60.892      -26.279       88.736      125.043       55.899     7874.129    15635.785     3124.650        5.104        1.332      273.415       49.951        0.033      333.938        3.577      857.643
03/30/2014  07:19:00     -205.606      -42.290      -28.152       85.980       60.804       40.028     7392.597     3697.174     1602.244        2.877        0.635      209.910       14.971        0.005      333.964        3.622      857.661
03/30/2014  07:20:00     -306.400      -99.041       -5.168      143.656      100.128       55.282    20636.914    10025.573     3056.126        6.871        1.686      322.009       61.959        0.037      333.942        3.584      857.646
03/30/2014  07:21:00     -114.413      -58.024       -7.750       84.910       58.147       36.741     7209.771     3381.090     1349.937        1.423        0.597      128.286       34.777        0.073      333.955        3.610      857.659
03/30/2014  07:22:00     -100.430        7.691      -18.835       60.694       58.559       24.098     3683.722     3429.168      580.720        0.910        0.385      100.724       18.163        0.033      333.966        3.629      857.668
03/30/2014  07:23:00     -147.173      -65.105       -4.346       68.995       49.770       35.005     4760.266     2477.087     1225.356        1.719        0.423      160.930       26.417        0.027      333.965        3.625      857.665
03/30/2014  07:24:00     -192.469      -26.878      -26.772       66.565       54.493       29.324     4430.833     2969.440      859.899        2.337        0.413      194.337       34.181        0.031      333.951        3.600      857.677
03/30/2014  07:25:00     -224.880     -100.417       -7.581      101.470       90.166       45.958    10296.246     8129.850     2112.129        4.062        1.027      246.282       50.056        0.041      333.950        3.596      857.670
03/30/2014  07:26:00      -80.988      -22.311      -15.049      107.970       55.529       30.224    11657.484     3083.430      913.509        1.147        0.783       84.005       33.976        0.164      333.971        3.637      857.698
03/30/2014  07:27:00       -7.881      -22.660      -15.879       44.318       20.570       14.220     1964.121      423.143      202.195        0.171        0.129       23.991       10.158        0.179      334.023        3.724      857.712
03/30/2014  07:28:00      -34.143       -2.580       11.079       50.515       48.138       29.976     2551.815     2317.221      898.581        0.353        0.288       34.241       22.618        0.436      333.978        3.649      857.729
03/30/2014  07:29:00     -176.619      -18.720       -0.060       99.859       99.647       51.195     9971.786     9929.603     2620.923        2.703        1.126      177.608       50.410        0.081      333.961        3.619      857.726
03/30/2014  07:30:00     -169.355      -47.639        1.875      149.634       69.767       44.116    22390.440     4867.460     1946.201        3.007        1.460      175.928       53.368        0.092      333.978        3.647      857.739
03/30/2014  07:31:00     -297.961      -10.416      -36.988       78.407       61.355       45.636     6147.684     3764.439     2082.662        5.112        0.600      298.143       40.507        0.018      333.970        3.630      857.771
03/30/2014  07:32:00     -300.310      -49.519      -35.930       67.369       78.514       39.593     4538.649     6164.387     1567.632        5.310        0.614      304.365       26.265        0.007      333.991        3.666      857.776
03/30/2014  07:33:00     -101.354      -12.067        8.103       65.233       67.319       38.816     4255.314     4531.900     1506.703        1.039        0.515      102.070       34.515        0.114      333.959        3.616      857.798
03/30/2014  07:34:00     -183.366      -48.136        6.750      106.052       91.431       52.517    11247.100     8359.623     2758.083        2.917        1.118      189.579       54.542        0.083      333.979        3.648      857.820
03/30/2014  07:35:00     -168.897      -64.077       -1.122      104.175       83.084       48.819    10852.380     6902.990     2383.305        2.638        1.007      180.643       45.229        0.063      333.967        3.628      857.850
03/30/2014  07:36:00     -184.662       -8.373      -24.469       94.196       96.164       58.239     8872.847     9247.454     3391.813        2.814        1.076      184.851       55.050        0.089      333.963        3.620      857.881
03/30/2014  07:37:00     -259.935       18.815      -20.767      105.495       74.569       50.776    11129.235     5560.485     2578.178        4.381        0.963      260.615       39.844        0.023      333.957        3.610      857.908
03/30/2014  07:38:00     -243.279       -1.958      -18.782       88.729       61.001       39.949     7872.762     3721.098     1595.937        3.636        0.659      243.287       42.064        0.030      333.959        3.613      857.931
03/30/2014  07:39:00     -242.460      -50.822       -9.878      124.218      125.982       50.437    15430.074    15871.420     2543.928        4.765        1.692      247.729       52.454        0.045      333.963        3.621      857.949
03/30/2014  07:40:00     -210.769      -20.155      -18.967      109.764       81.219       41.864    12048.127     6596.531     1752.610        3.279        1.020      211.731       35.628        0.028      333.962        3.618      857.961
03/30/2014  07:41:00     -247.581      -94.864       -5.020      133.624       97.963       49.776    17855.419     9596.843     2477.636        5.012        1.496      265.133       51.365        0.038      333.988        3.661      857.963
03/30/2014  07:42:00     -230.397      -55.459        1.479       97.896       70.119       51.326     9583.577     4916.649     2634.388        3.664        0.857      236.977       48.556        0.042      333.971        3.632      857.979
03/30/2014  07:43:00      -98.220       14.692       -1.561       75.008       56.550       40.527     5626.150     3197.959     1642.441        1.016        0.523       99.313       26.320        0.070      333.975        3.643      858.000
03/30/2014  07:44:00     -146.809      -10.135       -1.508       59.209       80.739       35.330     3505.722     6518.841     1248.215        1.646        0.564      147.158       32.636        0.049      333.996        3.677      858.020
03/30/2014  07:45:00     -239.244       -3.301      -18.480      112.268       62.782       43.579    12604.186     3941.619     1899.088        3.801        0.922      239.266       50.607        0.045      333.995        3.675      858.042
03/30/2014  07:46:00     -160.604      -41.902       -3.166       79.782       99.818       48.369     6365.240     9963.678     2339.607        2.311        0.933      165.981       37.217        0.050      334.006        3.691      858.055
03/30/2014  07:47:00     -295.033      -71.233      -10.641       84.566       96.229       43.601     7151.431     9259.996     1901.067        5.527        0.916      303.510       30.316        0.010      333.999        3.680      858.075
03/30/2014  07:48:00     -280.154      -95.806      -24.440       88.260       86.033       41.901     7789.824     7401.592     1755.730        5.260        0.847      296.083       35.950        0.015      333.998        3.678      858.087
03/30/2014  07:49:00     -200.212      -64.642       -1.561       79.015       69.077       38.768     6243.323     4771.591     1502.960        2.839        0.626      210.389       28.729        0.019      334.011        3.700      858.100
03/30/2014  07:50:00     -120.213      -21.947        3.401       64.872       55.790       32.401     4208.345     3112.476     1049.830        1.166        0.419      122.200       31.079        0.065      334.049        3.763      858.110
03/30/2014  07:51:00     -128.565      -10.749       -6.266       47.613       54.153       32.230     2266.966     2932.594     1038.778        1.146        0.312      129.014       28.878        0.050      334.066        3.792      858.122
03/30/2014  07:52:00     -140.378      -19.123        3.522      102.171       74.661       41.273    10438.911     5574.222     1703.427        1.890        0.886      141.674       46.224        0.106      334.072        3.803      858.123
03/30/2014  07:53:00     -252.670      -57.395       -5.292       73.326       75.118       43.281     5376.637     5642.756     1873.211        4.003        0.645      259.106       32.501        0.016      334.012        3.701      858.141
03/30/2014  07:54:00     -182.087      -22.830       -9.083      110.431       77.195       46.064    12195.026     5959.080     2121.913        2.701        1.014      183.513       51.728        0.079      334.082        3.818      858.139
03/30/2014  07:55:00     -233.873      -15.034      -15.109       98.928       96.945       52.411     9786.704     9398.330     2746.928        3.854        1.097      234.355       54.449        0.054      334.068        3.794      858.155
03/30/2014  07:56:00     -181.632      -99.730      -10.657       93.307       62.712       44.499     8706.120     3932.809     1980.149        2.883        0.731      207.210       32.244        0.024      334.086        3.823      858.173
03/30/2014  07:57:00     -144.757      -96.798        1.243      101.805       95.346       44.537    10364.281     9090.765     1983.544        2.588        1.072      174.140       51.338        0.087      334.152        3.935      858.178
03/30/2014  07:58:00     -204.639      -72.538       -4.043      121.405       72.856       41.811    14739.102     5307.995     1748.124        3.447        1.090      217.115       47.923        0.049      334.157        3.940      858.197
03/30/2014  07:59:00     -162.164       20.173       -0.461       75.001       73.969       42.427     5625.211     5471.435     1800.090        1.980        0.645      163.414       38.802        0.056      334.244        4.087      858.201
03/30/2014  08:00:00     -170.648       24.377        0.118       82.060       80.637       40.529     6733.888     6502.246     1642.563        2.229        0.744      172.380       39.585        0.053      334.263        4.119      858.202
03/30/2014  08:01:00     -181.263        9.872      -17.298       76.014       72.247       42.662     5778.130     5219.676     1820.015        2.303        0.641      181.532       39.862        0.048      334.307        4.191      858.202
03/30/2014  08:02:00     -276.928       -7.758      -33.017       95.045       73.436       47.309     9033.645     5392.776     2238.102        4.725        0.833      277.036       52.947        0.037      334.257        4.107      858.216
03/30/2014  08:03:00     -240.880       -8.439      -15.042       63.655       78.291       35.996     4052.009     6129.513     1295.682        3.490        0.574      241.027       35.054        0.021      334.397        4.337      858.240
03/30/2014  08:04:00     -243.781      -72.276        0.665       88.537       81.348       41.928     7838.727     6617.425     1757.991        4.043        0.811      254.270       41.386        0.026      334.421        4.379      858.258
03/30/2014  08:05:00     -307.684      -96.947        2.202      148.994      123.705       68.398    22199.150    15303.036     4678.259        7.312        2.109      322.596       72.284        0.050      334.419        4.375      858.274
03/30/2014  08:06:00     -125.654        9.088       13.144      110.272       99.011       54.323    12159.915     9803.101     2950.974        2.047        1.246      125.982       41.424        0.108      334.634        4.734      858.284
03/30/2014  08:07:00     -153.028      -97.826       -4.393      117.914       92.172       64.995    13903.795     8495.743     4224.403        2.981        1.331      181.625       68.639        0.143      334.515        4.535      858.291
03/30/2014  08:08:00     -425.791     -142.260       -2.516      136.302      140.191       61.170    18578.246    19653.431     3741.752       12.175        2.099      448.928       57.004        0.016      334.390        4.326      858.298
03/30/2014  08:09:00     -436.393     -142.451      -29.986      113.622      129.368       67.058    12910.019    16736.156     4496.836       12.288        1.707      459.054       56.837        0.015      334.372        4.300      858.308
03/30/2014  08:10:00     -197.868      -24.691       13.497      130.890       81.454       55.887    17132.262     6634.721     3123.375        3.341        1.345      199.402       58.747        0.087      334.589        4.659      858.332
03/30/2014  08:11:00      -60.013       -5.719       20.425      107.285       60.873       49.675    11509.991     3705.476     2467.624        1.086        0.884       60.285       55.853        0.858      334.845        5.086      858.328
03/30/2014  08:12:00     -367.040      -46.072      -37.461      127.071      101.699       54.787    16146.955    10342.747     3001.590        8.386        1.475      369.920       64.091        0.030      334.526        4.554      858.331
03/30/2014  08:13:00     -335.973      -75.494      -22.087       88.883      102.398       49.326     7900.160    10485.266     2433.061        6.994        1.041      344.350       46.543        0.018      334.521        4.545      858.329
03/30/2014  08:14:00     -341.028      -11.242      -11.017      158.297      109.210       63.056    25057.819    11926.783     3976.101        7.875        2.048      341.214       68.357        0.040      334.544        4.584      858.325
03/30/2014  08:15:00     -336.585       -8.097      -15.231      184.119       97.524       56.000    33899.960     9510.884     3136.030        8.006        2.327      336.683       78.190        0.054      334.607        4.689      858.325
03/30/2014  08:16:00     -231.973      -46.422      -10.257       90.790      107.560       54.617     8242.831    11569.099     2983.070        3.943        1.140      236.572       44.550        0.035      334.665        4.783      858.329
03/30/2014  08:17:00     -237.352      -63.567       -9.340      121.633      122.684       66.476    14794.602    15051.455     4419.091        4.736        1.713      245.717       67.142        0.075      334.716        4.869      858.330
03/30/2014  08:18:00     -275.291     -166.080        0.618      120.825      143.997       65.949    14598.772    20735.234     4349.332        7.152        1.984      321.509       71.104        0.049      334.647        4.754      858.315
03/30/2014  08:19:00     -234.994     -130.955        0.113      141.655      111.149       67.937    20066.055    12354.051     4615.426        5.470        1.852      269.019       73.848        0.075      334.625        4.716      858.317
03/30/2014  08:20:00     -260.346     -150.046       -6.633      129.259      129.983       66.131    16707.934    16895.619     4373.336        6.415        1.899      300.489       75.355        0.063      334.550        4.593      858.320
03/30/2014  08:21:00     -202.920     -145.725       -6.000      124.729       84.090       56.710    15557.333     7071.062     3216.006        4.414        1.292      249.824       66.493        0.071      334.567        4.622      858.321
03/30/2014  08:22:00      -89.119      -69.109        6.789      113.305       89.736       71.605    12838.112     8052.602     5127.303        1.939        1.301      112.776       59.435        0.278      334.658        4.774      858.313
03/30/2014  08:23:00     -257.559      -44.786      -18.598      120.709      137.809       70.050    14570.773    18991.218     4907.022        5.357        1.923      261.423       56.617        0.047      334.507        4.521      858.325
03/30/2014  08:24:00     -391.499       -4.987      -27.449      131.372      140.308       64.410    17258.551    19686.319     4148.592        9.756        2.055      391.531       51.546        0.017      334.431        4.397      858.329
03/30/2014  08:25:00     -299.945     -106.506        1.560      130.364      138.545       71.070    16994.688    19194.664     5050.939        7.127        2.062      318.293       68.748        0.047      334.484        4.484      858.352
03/30/2014  08:26:00     -395.981      -36.335      -22.992      136.391      103.036       53.540    18602.430    10616.433     2866.567        9.536        1.604      397.645       60.981        0.024      334.382        4.316      858.348
03/30/2014  08:27:00     -273.086     -159.041        0.038      111.124      113.768       66.668    12348.548    12943.216     4444.595        6.480        1.487      316.023       67.503        0.046      334.489        4.492      858.349
03/30/2014  08:28:00     -340.845      -94.427        3.259      203.501      120.857       59.628    41412.671    14606.333     3555.501        9.233        2.979      353.683       86.222        0.059      334.453        4.433      858.356
03/30/2014  08:29:00     -420.148      -92.025      -13.024      163.534      101.884       74.212    26743.211    10380.336     5507.489       11.389        2.132      430.108       83.166        0.037      334.375        4.304      858.365
03/30/2014  08:30:00     -418.198      -71.338      -12.307      149.277      103.001       66.805    22283.640    10609.192     4462.951       10.874        1.868      424.239       72.350        0.029      334.418        4.375      858.386
03/30/2014  08:31:00     -400.940     -115.031      -12.139      141.826      140.736       67.896    20114.718    19806.688     4609.850       10.932        2.227      417.115       74.069        0.032      334.358        4.276      858.411
03/30/2014  08:32:00     -279.349       -5.871       -8.490      114.187      129.676       60.056    13038.745    16815.836     3606.667        5.580        1.673      279.410       45.614        0.027      334.440        4.411      858.442
03/30/2014  08:33:00     -306.852      -93.840       -4.741      135.057      103.043       52.681    18240.447    10617.962     2775.244        6.730        1.582      320.880       53.436        0.028      334.481        4.479      858.467
03/30/2014  08:34:00     -353.252     -111.836        0.830      198.092      130.703       76.943    39240.517    17083.301     5920.260        9.976        3.112      370.532       75.499        0.042      334.471        4.463      858.485
03/30/2014  08:35:00     -343.037      -49.465      -12.342      164.424      126.747       63.851    27035.143    16064.886     4077.013        8.372        2.359      346.585       69.225        0.040      334.466        4.455      858.501
03/30/2014  08:36:00     -348.468     -143.973      -18.898      170.642      114.589       65.788    29118.722    13130.570     4328.010        9.454        2.329      377.039       82.159        0.047      334.472        4.464      858.492
03/30/2014  08:37:00     -248.516     -192.278       -8.818      173.326      138.209       79.909    30042.052    19101.597     6385.476        7.716        2.776      314.215       94.910        0.091      334.479        4.476      858.503
03/30/2014  08:38:00     -262.464     -138.349       -1.957      167.845      128.801       66.099    28172.061    16589.797     4369.050        6.857        2.457      296.695       85.093        0.082      334.554        4.601      858.505
03/30/2014  08:39:00     -338.116     -146.203      -14.756      111.222      110.596       57.248    12370.258    12231.514     3277.351        8.189        1.394      368.372       56.542        0.024      334.450        4.427      858.512
03/30/2014  08:40:00     -244.025      -67.834       -2.856      159.539      152.994       71.258    25452.748    23407.012     5077.657        5.904        2.697      253.278       75.415        0.089      334.566        4.621      858.505
03/30/2014  08:41:00     -357.639     -190.022       -6.976      163.842      116.233       65.939    26844.285    13510.184     4347.901       10.437        2.235      404.986       61.535        0.023      334.482        4.480      858.507
03/30/2014  08:42:00     -290.240     -156.035      -14.968      155.591      128.139       64.306    24208.603    16419.572     4135.252        7.678        2.238      329.524       60.646        0.034      334.494        4.501      858.506
03/30/2014  08:43:00     -300.536      -78.881        1.804      142.517      100.768       69.543    20310.971    10154.257     4836.271        6.592        1.765      310.716       75.498        0.059      334.577        4.639      858.518
03/30/2014  08:44:00     -174.084      -31.624       -0.126      130.230       79.253       45.246    16959.894     6281.066     2047.219        2.829        1.264      176.933       59.131        0.112      334.776        4.969      858.543
03/30/2014  08:45:00     -291.947      -49.732      -10.364      111.890      113.256       52.005    12519.383    12827.021     2704.536        5.793        1.403      296.152       52.287        0.031      334.649        4.757      858.542
03/30/2014  08:46:00     -380.493     -100.374      -35.013      124.816      101.718       65.261    15579.085    10346.633     4259.007        9.312        1.509      393.509       68.104        0.030      334.492        4.497      858.536
03/30/2014  08:47:00     -360.527       -6.645      -24.373      116.264       86.968       60.600    13517.284     7563.362     3672.364        7.768        1.238      360.588       66.270        0.034      334.493        4.499      858.533
03/30/2014  08:48:00     -337.045      -33.551      -15.237      122.799       98.035       63.721    15079.612     9610.875     4060.379        7.185        1.438      338.711       61.229        0.033      334.489        4.490      858.519
03/30/2014  08:49:00     -216.528      -39.184      -17.685      147.908      114.849       59.727    21876.851    13190.339     3567.329        4.368        1.932      220.045       60.340        0.075      334.526        4.555      858.511
03/30/2014  08:50:00     -243.821      -22.008      -13.548      111.267      120.020       64.066    12380.400    14404.807     4104.448        4.550        1.544      244.812       59.036        0.058      334.509        4.526      858.518
03/30/2014  08:51:00     -316.232      -86.533       -2.663      151.199      115.540       68.644    22861.214    13349.600     4712.058        7.420        2.046      327.858       70.359        0.046      334.471        4.461      858.498
03/30/2014  08:52:00     -313.100     -120.449      -11.342      171.512      127.280       56.111    29416.370    16200.247     3148.445        8.071        2.438      335.470       53.232        0.025      334.439        4.410      858.489
03/30/2014  08:53:00     -132.736      -21.764       12.791      125.820       94.484       65.637    15830.769     8927.149     4308.169        2.366        1.453      134.509       66.621        0.245      334.625        4.718      858.508
03/30/2014  08:54:00     -367.593      -53.566      -28.923      135.071      127.583       63.691    18244.151    16277.489     4056.489        8.870        1.929      371.475       49.551        0.018      334.477        4.473      858.518
03/30/2014  08:55:00     -273.335      -94.524        2.343      114.886      108.711       62.317    13198.711    11817.981     3883.471        5.627        1.445      289.218       63.240        0.048      334.502        4.514      858.530
03/30/2014  08:56:00     -228.847      -62.885       -9.930      111.704      112.563       57.271    12477.796    12670.371     3280.000        4.242        1.421      237.330       64.438        0.074      334.469        4.459      858.548
03/30/2014  08:57:00     -169.490      -93.019        3.428      138.826      122.771       61.981    19272.639    15072.694     3841.667        3.778        1.909      193.338       66.535        0.118      334.506        4.522      858.554
03/30/2014  08:58:00     -144.674      -30.829       -7.191       94.796       57.227       46.377     8986.340     3274.972     2150.823        1.817        0.721      147.922       48.906        0.109      334.557        4.607      858.565
03/30/2014  08:59:00     -119.557       17.466        0.440       81.840       50.579       42.777     6697.815     2558.187     1829.855        1.284        0.554      120.826       40.791        0.114      334.643        4.751      858.576
03/30/2014  09:00:00     -235.630       -9.635        6.500      102.478       86.629       51.449    10501.669     7504.507     2646.993        3.815        1.033      235.827       36.412        0.024      334.620        4.709      858.564
03/30/2014  09:01:00     -263.028       -9.347      -14.211      130.736      125.920       52.107    17091.944    15855.782     2715.149        5.256        1.783      263.194       53.299        0.041      334.549        4.591      858.562
03/30/2014  09:02:00     -148.555      -46.389       10.318      112.180      106.553       63.802    12584.384    11353.528     4070.683        2.616        1.400      155.629       58.918        0.143      334.695        4.835      858.549
03/30/2014  09:03:00     -205.544      -30.446       -5.676      121.532       83.279       50.506    14769.939     6935.400     2550.893        3.373        1.213      207.787       55.020        0.070      334.647        4.756      858.566
03/30/2014  09:04:00     -345.603       47.919      -22.475      125.474      115.616       54.093    15743.606    13367.161     2926.030        7.713        1.602      348.909       52.342        0.023      334.527        4.554      858.572
03/30/2014  09:05:00     -246.674      -62.371        4.770      103.713      101.562       50.161    10756.417    10314.810     2516.129        4.417        1.179      254.437       43.600        0.029      334.603        4.681      858.571
03/30/2014  09:06:00     -242.892     -185.071       -7.306      164.219      141.705       79.365    26967.868    20080.211     6298.839        7.331        2.667      305.364       87.271        0.082      334.606        4.686      858.573
03/30/2014  09:07:00      -68.415      -63.622       34.176      132.878       96.634       52.573    17656.618     9338.063     2763.875        1.982        1.488       93.426       52.727        0.319      334.795        5.002      858.567
03/30/2014  09:08:00     -169.401     -122.738       -6.705      114.825       81.508       55.969    13184.833     6643.512     3132.564        3.338        1.148      209.192       57.553        0.076      334.782        4.978      858.566
03/30/2014  09:09:00     -359.506      -50.562      -23.800      144.502      116.219       60.640    20880.827    13506.801     3677.168        8.521        1.903      363.044       73.865        0.041      334.706        4.852      858.572
03/30/2014  09:10:00     -362.531       72.335      -26.492      144.918      174.136       75.429    21001.236    30323.220     5689.524        9.718        2.851      369.677       76.651        0.043      334.717        4.870      858.570
03/30/2014  09:11:00     -279.812     -108.880       -3.027      171.877      121.192       65.169    29541.635    14687.550     4246.954        6.931        2.424      300.250       73.981        0.061      334.766        4.951      858.596
03/30/2014  09:12:00     -118.512      -13.959        9.124       91.117       77.421       45.634     8302.350     5993.961     2082.500        1.535        0.819      119.331       47.528        0.159      334.897        5.172      858.592
03/30/2014  09:13:00     -176.223      -52.778      -12.236       84.660       76.727       42.372     7167.365     5887.024     1795.400        2.442        0.742      183.957       36.996        0.040      334.829        5.057      858.581
03/30/2014  09:14:00     -237.566        0.734       -8.127      144.464       93.902       53.291    20869.916     8817.539     2839.954        4.451        1.626      237.567       68.303        0.083      334.800        5.009      858.585
03/30/2014  09:15:00     -594.147       38.427      -36.458      186.812      208.231       85.155    34898.557    43360.251     7251.389       22.065        4.276      595.388       89.970        0.023      334.595        4.667      858.572
03/30/2014  09:16:00     -515.888      -44.248      -33.430      165.039      169.219       82.142    27237.985    28635.198     6747.379       16.591        3.131      517.783       76.058        0.022      334.617        4.705      858.551
03/30/2014  09:17:00     -401.246     -165.164      -26.956      146.641       99.793       67.538    21503.675     9958.694     4561.411       11.251        1.801      433.909       66.193        0.023      334.652        4.763      858.585
03/30/2014  09:18:00     -216.928      -28.302       -9.987      126.306       86.392       50.175    15953.173     7463.625     2517.566        3.694        1.297      218.766       44.185        0.041      334.916        5.203      858.601
03/30/2014  09:19:00     -205.482      -77.118        3.984      134.545      119.761       63.867    18102.361    14342.753     4079.045        4.235        1.826      219.477       61.417        0.078      335.045        5.416      858.637
03/30/2014  09:20:00     -273.715     -142.411       -2.002      176.928      146.144       78.503    31303.598    21358.182     6162.709        7.700        2.941      308.547       90.877        0.087      334.909        5.189      858.633
03/30/2014  09:21:00     -133.703       82.665       -0.412      141.746      112.820       71.724    20091.890    12728.243     5144.302        3.133        1.898      157.194       77.664        0.244      335.146        5.585      858.663
03/30/2014  09:22:00     -346.316       24.119      -28.593      173.601      114.089       77.464    30137.274    13016.329     6000.661        8.523        2.458      347.155       84.446        0.059      334.854        5.098      858.676
03/30/2014  09:23:00     -438.095       28.950      -44.610      134.454      139.603       69.357    18077.825    19489.030     4810.451       11.856        2.119      439.051       62.574        0.020      334.839        5.073      858.687
03/30/2014  09:24:00     -445.983     -168.068      -11.708      125.379       84.017       57.233    15720.016     7058.787     3275.561       12.666        1.303      476.600       39.232        0.007      334.730        4.892      858.699
03/30/2014  09:25:00     -355.698     -112.925      -12.978      183.122      106.000       57.167    33533.829    11236.085     3268.044        9.373        2.402      373.193       25.206        0.005      334.758        4.939      858.667
03/30/2014  09:26:00     -244.251      -98.589      -10.406      180.425      112.435       60.044    32553.268    12641.593     3605.299        5.913        2.440      263.398       68.990        0.069      334.923        5.215      858.701
03/30/2014  09:27:00     -160.955      -97.874        9.369      116.277       73.786       51.921    13520.268     5444.346     2695.800        2.861        1.083      188.376       46.967        0.062      334.936        5.236      858.713
03/30/2014  09:28:00      -65.285       20.266       20.150      139.828       61.457       56.058    19551.887     3776.950     3142.488        1.577        1.324       68.358       68.832        1.014      335.215        5.700      858.744
03/30/2014  09:29:00     -231.279     -101.871       -7.324      112.246      109.005       53.838    12599.088    11882.008     2898.508        4.564        1.369      252.721       49.691        0.039      334.941        5.243      858.764
03/30/2014  09:30:00     -169.493        1.819        6.327      176.759      119.023       75.281    31243.668    14166.406     5667.170        3.991        2.554      169.502       83.454        0.242      335.039        5.406      858.757
03/30/2014  09:31:00     -456.080      -38.804      -44.066      178.517       93.407       70.790    31868.409     8724.876     5011.274       12.852        2.280      457.727       81.779        0.032      334.787        4.985      858.802
03/30/2014  09:32:00     -135.388       -5.751       10.713      124.897      119.205       76.075    15599.161    14209.839     5787.411        2.703        1.780      135.510       65.168        0.231      335.143        5.580      858.834
03/30/2014  09:33:00     -184.936      -82.718       -3.780      125.820      111.672       64.855    15830.728    12470.554     4206.172        3.678        1.625      202.592       63.580        0.098      334.940        5.242      858.859
03/30/2014  09:34:00     -308.838     -114.443      -10.174      123.508      101.314       51.741    15254.144    10264.566     2677.177        6.838        1.410      329.360       47.902        0.021      335.001        5.342      858.893
03/30/2014  09:35:00      -90.025      -16.400        9.882      160.481       90.829       54.685    25754.215     8249.971     2990.452        2.273        1.850       91.507       44.941        0.241      335.412        6.028      858.895
03/30/2014  09:36:00     -191.379       13.094      -21.472      139.258       88.261       51.177    19392.678     7789.986     2619.080        3.352        1.490      191.826       61.649        0.103      335.111        5.526      858.919
03/30/2014  09:37:00     -271.428       48.346      -30.847       93.601       88.447       43.869     8761.067     7822.885     1924.448        4.773        0.925      275.700       33.915        0.015      335.069        5.455      858.911
03/30/2014  09:38:00     -213.498      -58.465      -11.919      174.199      126.526       60.669    30345.326    16008.739     3680.717        4.958        2.502      221.359       75.208        0.115      335.180        5.643      858.910
03/30/2014  09:39:00     -184.723       41.070       -1.832      150.117      117.712       77.454    22535.004    13856.121     5999.173        3.909        2.120      189.233       85.425        0.204      335.420        6.039      858.934
03/30/2014  09:40:00     -198.027      -76.273        4.228      124.764       99.983       54.039    15565.940     9996.628     2920.181        3.676        1.424      212.208       50.610        0.057      335.030        5.390      858.970
03/30/2014  09:41:00     -359.288     -129.350      -28.530      142.442       89.232       42.833    20289.608     7962.313     1834.708        8.835        1.504      381.863       30.115        0.006      334.810        5.023      858.975
03/30/2014  09:42:00     -280.039       22.990      -36.903      130.539      110.196       54.445    17040.470    12143.219     2964.233        5.622        1.607      280.981       46.870        0.028      334.671        4.792      858.996
03/30/2014  09:43:00     -307.316       49.171      -24.882      127.876       79.944       45.540    16352.180     6391.051     2073.914        6.114        1.241      311.225       44.956        0.021      334.760        4.940      858.980
03/30/2014  09:44:00     -418.739     -126.872      -11.903      184.581      122.093       69.600    34069.998    14906.606     4844.200       12.269        2.691      437.537       72.975        0.028      334.773        4.963      858.982
03/30/2014  09:45:00     -195.680     -100.087       -4.646      157.911      126.306       60.901    24935.789    15953.313     3708.912        4.645        2.230      219.791       70.172        0.102      334.949        5.257      859.002
03/30/2014  09:46:00     -166.931       13.735      -16.257      134.808       58.734       41.493    18173.194     3449.693     1721.691        2.583        1.167      167.495       46.613        0.077      335.091        5.495      858.997
03/30/2014  09:47:00     -394.857       73.835      -28.096       97.489       64.828       44.961     9504.090     4202.654     2021.471        8.894        0.786      401.700       43.896        0.012      334.738        4.905      859.028
03/30/2014  09:48:00     -149.710       -8.908       -0.333      101.738      103.298       64.130    10350.639    10670.496     4112.704        2.381        1.257      149.975       48.661        0.105      335.019        5.375      859.015
03/30/2014  09:49:00     -134.977      -85.082       10.944      122.072       99.662       61.959    14901.488     9932.552     3838.906        2.712        1.434      159.555       64.758        0.165      334.954        5.265      859.021
03/30/2014  09:50:00     -174.873     -178.396        2.820      103.390       87.934       57.957    10689.440     7732.442     3358.975        4.209        1.089      249.811       66.338        0.071      334.869        5.123      859.004
03/30/2014  09:51:00     -270.383      -81.098       -8.405      137.172      119.522       58.048    18816.283    14285.527     3369.602        5.811        1.824      282.283       36.726        0.017      334.866        5.117      859.009
03/30/2014  09:52:00     -293.073     -103.511      -13.905      156.735      132.463       69.331    24565.995    17546.388     4806.741        7.185        2.346      310.816       79.210        0.065      334.943        5.248      858.986
03/30/2014  09:53:00     -297.590      -54.264       -5.993      145.318      135.596       58.271    21117.462    18386.377     3395.505        6.721        2.145      302.497       63.340        0.044      334.894        5.165      858.989
03/30/2014  09:54:00     -255.871     -131.954        2.127      143.400      138.309       64.177    20563.496    19129.373     4118.665        6.334        2.191      287.892       75.033        0.068      334.991        5.327      859.004
03/30/2014  09:55:00     -240.137     -183.118      -13.854      112.443      105.911       58.285    12643.336    11217.067     3397.151        5.932        1.363      301.989       62.789        0.043      334.875        5.132      859.017
03/30/2014  09:56:00     -159.628     -147.021        8.804      133.555       81.482       59.528    17837.032     6639.244     3543.609        3.759        1.401      217.016       67.671        0.097      334.982        5.311      859.020
03/30/2014  09:57:00     -140.043      -51.054      -17.474       81.490       67.394       33.258     6640.667     4541.923     1106.070        1.740        0.614      149.059       22.795        0.023      334.891        5.161      859.044
03/30/2014  09:58:00      -65.529      -32.153        9.706       79.823       64.173       39.660     6371.716     4118.171     1572.905        0.874        0.603       72.992       38.170        0.273      335.291        5.827      859.039
03/30/2014  09:59:00     -162.717      -66.352      -17.547       75.035       61.614       34.965     5630.245     3796.315     1222.528        2.092        0.532      175.726       21.023        0.014      335.149        5.591      859.053
03/30/2014  10:00:00     -353.515      -36.845      -19.574      103.068       59.623       53.669    10622.953     3554.880     2880.331        7.188        0.853      355.430       55.764        0.025      334.826        5.051      859.050
03/30/2014  10:01:00     -326.965       13.551      -29.637      100.495       82.516       54.209    10099.292     6808.847     2938.592        6.390        0.992      327.245       58.032        0.031      334.802        5.011      859.071
03/30/2014  10:02:00     -347.432      -51.408      -28.532       79.402      100.683       45.425     6304.644    10137.130     2063.409        7.133        0.925      351.215       33.553        0.009      334.776        4.969      859.056
03/30/2014  10:03:00     -246.696     -120.249       -3.197      110.342       77.001       51.818    12175.346     5929.218     2685.103        4.806        1.039      274.442       56.317        0.042      334.858        5.104      859.061
03/30/2014  10:04:00     -216.048      -92.910       -1.983       82.398       91.816       43.590     6789.499     8430.109     1900.081        3.621        0.856      235.179       41.791        0.032      334.986        5.317      859.085
03/30/2014  10:05:00     -226.973      -52.357      -11.237       85.001       63.821       34.019     7225.228     4073.067     1157.279        3.342        0.623      232.934       34.449        0.022      335.011        5.360      859.098
03/30/2014  10:06:00     -186.050      -51.959      -16.181      104.230       98.984       49.520    10863.983     9797.760     2452.245        3.034        1.156      193.169       58.023        0.090      335.037        5.404      859.085
03/30/2014  10:07:00     -120.269       97.153       -8.686      158.171       71.174       56.459    25018.010     5065.742     3187.650        2.862        1.664      154.607       84.416        0.298      335.218        5.706      859.091
03/30/2014  10:08:00      -92.799       58.939       -6.813       82.630       64.734       35.467     6827.798     4190.446     1257.879        1.220        0.614      109.934       39.083        0.126      335.157        5.603      859.103
03/30/2014  10:09:00      -61.530       68.004       -2.224       41.325       92.445       41.787     1707.766     8546.069     1746.119        1.021        0.600       91.709       44.919        0.240      335.096        5.502      859.098
03/30/2014  10:10:00      -91.911       49.198        7.042       57.903       71.884       49.724     3352.766     5167.302     2472.497        1.095        0.550      104.250       34.127        0.107      335.062        5.447      859.073
03/30/2014  10:11:00      -63.095       31.182       22.574       64.640       42.500       44.881     4178.366     1806.274     2014.312        0.673        0.400       70.380       36.324        0.266      335.316        5.869      859.058
03/30/2014  10:12:00     -132.005      -25.628       -0.087      101.783       76.185       39.067    10359.864     5804.081     1526.242        1.788        0.885      134.470       18.770        0.019      335.212        5.695      859.102
03/30/2014  10:13:00     -197.907       81.460      -22.699      110.046       83.201       62.513    12110.028     6922.465     3907.854        3.462        1.147      214.016       64.139        0.090      334.993        5.329      859.121
03/30/2014  10:14:00     -115.880      -49.969        8.087       91.666       71.938       43.010     8402.636     5175.061     1849.837        1.571        0.771      126.195       43.984        0.121      335.168        5.621      859.108
03/30/2014  10:15:00      -80.310       -5.125        7.050       82.977       65.081       36.187     6885.254     4235.540     1309.523        0.948        0.622       80.474       29.879        0.138      335.201        5.677      859.123
03/30/2014  10:16:00     -236.227      102.660      -30.575       88.966       77.871       47.255     7914.984     6063.930     2233.019        4.174        0.811      257.570       39.274        0.023      335.019        5.372      859.134
03/30/2014  10:17:00     -220.652      -33.794       -4.444      105.916       85.296       38.489    11218.240     7275.423     1481.372        3.491        0.999      223.225       33.603        0.023      334.925        5.217      859.151
03/30/2014  10:18:00     -138.415      -40.873      -13.419       52.524       45.393       36.118     2758.720     2060.551     1304.514        1.357        0.306      144.324       26.108        0.033      334.721        4.878      859.168
03/30/2014  10:19:00       54.538       72.247       51.764       77.056       50.417       49.268     5937.626     2541.884     2427.292        1.089        0.545       90.521       53.432        0.348      334.909        5.193      859.124
03/30/2014  10:20:00      -80.922      -56.262        9.912      105.511       70.885       47.402    11132.553     5024.696     2246.970        1.410        0.920       98.559       42.071        0.182      335.061        5.444      859.100
03/30/2014  10:21:00     -233.573     -167.245       -6.833      157.277      137.072       64.885    24735.990    18788.694     4210.001        6.514        2.387      287.276       74.779        0.068      334.933        5.231      859.094
03/30/2014  10:22:00     -159.757     -101.755       -5.414      124.637      103.805       59.129    15534.434    10775.474     3496.216        3.285        1.490      189.410       58.305        0.095      335.038        5.405      859.105
03/30/2014  10:23:00     -106.153      -72.974        4.718       82.190       53.215       35.546     6755.141     2831.797     1263.521        1.373        0.543      128.816       42.170        0.107      334.882        5.147      859.123
03/30/2014  10:24:00     -112.361      -77.210        7.534       79.369       86.671       48.731     6299.449     7511.899     2374.692        1.741        0.809      136.332       44.776        0.108      335.019        5.374      859.128
03/30/2014  10:25:00      -98.239      -76.877        6.720       87.280       76.679       41.059     7617.823     5879.630     1685.821        1.539        0.759      124.743       49.964        0.160      335.176        5.634      859.113
03/30/2014  10:26:00        3.619       18.602       11.281       27.415       37.517       29.792      751.574     1407.499      887.536        0.177        0.152       18.951       21.872        1.332      335.530        6.224      859.114
03/30/2014  10:27:00      -32.056      183.809      -18.596       42.757       66.431       41.632     1828.119     4413.027     1733.256        2.157        0.399      186.583       37.750        0.041      335.074        5.465      859.117
03/30/2014  10:28:00     -119.985       13.238       -4.238       69.242       67.244       32.910     4794.392     4521.784     1083.068        1.249        0.520      120.713       31.996        0.070      335.193        5.664      859.110
03/30/2014  10:29:00     -142.808       10.809      -22.457       99.823       73.148       46.449     9964.645     5350.613     2157.539        1.924        0.874      143.217       25.440        0.032      335.120        5.543      859.108
03/30/2014  10:30:00      -58.662        3.056       19.521       78.079       80.747       39.468     6096.296     6520.024     1557.705        0.900        0.709       58.741       33.326        0.322      335.441        6.077      859.112
03/30/2014  10:31:00      -57.432       14.632        1.946       28.735       51.098       18.838      825.679     2611.008      354.883        0.365        0.190       59.267       14.057        0.056      335.203        5.682      859.116
03/30/2014  10:32:00       30.942      -18.858       19.669       34.557       46.533       23.714     1194.168     2165.311      562.348        0.281        0.196       36.236       13.670        0.142      335.529        6.223      859.110
03/30/2014  10:33:00      -22.568       25.759       -1.054       66.805       40.846       32.884     4462.867     1668.383     1081.363        0.419        0.361       34.247       28.622        0.699      335.383        5.981      859.086
03/30/2014  10:34:00      -31.444      -41.840       -6.326       48.107       41.006       25.988     2314.294     1681.473      675.384        0.372        0.234       52.338       20.585        0.155      335.389        5.990      859.081
03/30/2014  10:35:00       10.929      -52.518       18.752       56.997       33.966       37.008     3248.706     1153.704     1369.625        0.450        0.289       53.643       36.565        0.465      335.350        5.925      859.066
03/30/2014  10:36:00      -34.749     -101.930       30.338       82.492      105.057       56.027     6804.955    11037.077     3138.982        1.675        1.049      107.691       55.931        0.270      335.210        5.690      859.042
03/30/2014  10:37:00      -86.197     -166.339       -1.037       65.353      100.531       47.220     4271.035    10106.494     2229.691        2.585        0.830      187.346       48.822        0.068      335.052        5.428      858.993
03/30/2014  10:38:00      -34.383      -25.870       26.658       59.543       50.089       28.539     3545.389     2508.907      814.458        0.471        0.343       43.029       30.150        0.491      335.508        6.189      858.978
03/30/2014  10:39:00      -62.449       51.459        2.604       46.090       40.299       33.416     2124.323     1623.996     1116.660        0.571        0.243       80.920       21.752        0.072      335.597        6.336      858.984
03/30/2014  10:40:00     -142.302       -9.982       -2.085      114.959       90.347       46.200    13215.567     8162.661     2134.476        2.193        1.176      142.651       63.112        0.196      335.516        6.200      859.013
03/30/2014  10:41:00     -159.741       -1.826      -12.956       82.308       64.971       37.142     6774.643     4221.225     1379.511        1.903        0.619      159.751       35.106        0.048      335.362        5.944      858.998
03/30/2014  10:42:00     -196.557      -34.587      -11.779      114.074       82.627       42.524    13012.838     6827.267     1808.328        3.080        1.082      199.576       38.975        0.038      335.606        6.352      859.011
03/30/2014  10:43:00      -66.170       36.270       15.787       53.582       61.053       45.558     2870.984     3727.454     2075.503        0.731        0.434       75.458       37.687        0.249      335.603        6.348      859.015
03/30/2014  10:44:00      -89.740      -68.602      -25.742       54.941       40.490       33.268     3018.474     1639.470     1106.763        0.959        0.288      112.957       16.796        0.022      335.215        5.700      858.994
03/30/2014  10:45:00     -327.579      -76.186      -10.773      138.856      131.333       69.366    19281.101    17248.471     4811.705        7.728        2.067      336.322       64.566        0.037      335.312        5.860      858.998
03/30/2014  10:46:00     -254.056      -28.574       -0.952      120.272      112.969       42.615    14465.423    12762.082     1816.067        4.720        1.452      255.658       37.853        0.022      335.303        5.843      859.004
03/30/2014  10:47:00     -248.487     -165.147       -5.693      153.253      101.911       75.700    23486.349    10385.762     5730.539        6.432        1.980      298.361       85.910        0.083      335.254        5.763      859.013
03/30/2014  10:48:00      -81.808      -76.924       14.886      117.151       77.883       56.018    13724.389     6065.687     3138.061        1.788        1.146      112.293       59.268        0.279      335.334        5.898      859.031
03/30/2014  10:49:00      -66.417      -96.425       -6.399      131.872       92.254       61.225    17390.117     8510.879     3748.468        2.169        1.482      117.085       68.917        0.346      335.470        6.122      859.030
03/30/2014  10:50:00     -229.498      -15.954       10.635      186.309       92.029       72.664    34710.917     8469.386     5280.001        5.074        2.423      230.051       91.647        0.159      335.511        6.194      859.037
03/30/2014  10:51:00     -336.304     -129.524       -1.256      153.387       94.008       68.716    23527.655     8837.496     4721.932        8.348        1.854      360.384       78.588        0.048      335.292        5.826      859.055
03/30/2014  10:52:00     -165.353      -10.558       -0.816       87.580       95.950       43.293     7670.329     9206.358     1874.317        2.310        0.938      165.690       37.715        0.052      335.299        5.839      859.064
03/30/2014  10:53:00      -82.813      -12.700        1.397      106.159       67.680       30.357    11269.638     4580.560      921.575        1.189        0.839       83.781       18.325        0.048      335.680        6.473      859.062
03/30/2014  10:54:00      -60.093      -54.490       12.343      114.866       54.860       56.217    13194.102     3009.659     3160.371        1.304        0.968       81.120       54.486        0.451      335.829        6.724      859.047
03/30/2014  10:55:00     -115.957      -28.757      -12.660       59.825       45.388       30.231     3579.079     2060.031      913.915        1.049        0.328      119.470       24.595        0.042      335.540        6.242      859.052
03/30/2014  10:56:00        9.344       -7.783        4.268       46.128       57.648       41.394     2127.823     3323.263     1713.487        0.366        0.358       12.161       30.126        6.137      335.988        6.990      859.035
03/30/2014  10:57:00      -38.906      -86.946        7.581       49.996       67.016       39.135     2499.613     4491.185     1531.580        0.882        0.426       95.254       34.824        0.134      335.839        6.739      859.027
03/30/2014  10:58:00     -209.929       14.829        0.111      160.785       72.493       49.255    25851.726     5255.166     2426.033        3.890        1.677      210.453       70.340        0.112      335.840        6.741      859.031
03/30/2014  10:59:00     -236.394      -87.466      -12.670      166.037       75.985       56.592    27568.139     5773.685     3202.692        5.011        1.827      252.056       74.441        0.087      335.638        6.403      859.024
03/30/2014  11:00:00     -356.692      -85.924       -9.685      149.211      139.324       59.364    22263.845    19411.041     3524.033        8.994        2.260      366.896       56.506        0.024      335.539        6.238      859.032
03/30/2014  11:01:00     -355.541      -80.105      -23.371      165.131      124.035       62.219    27268.393    15384.728     3871.178        8.994        2.326      364.454       64.417        0.031      335.558        6.269      859.046
03/30/2014  11:02:00     -158.708      -27.873        4.729      106.467      102.570       59.578    11335.270    10520.543     3549.522        2.569        1.270      161.137       47.763        0.088      335.887        6.818      859.053
03/30/2014  11:03:00     -221.994     -201.492      -18.537      123.000      110.966       56.497    15128.882    12313.388     3191.930        6.042        1.532      299.801       38.151        0.016      335.302        5.842      859.047
03/30/2014  11:04:00     -210.498     -149.286       -9.251      102.047       85.079       46.911    10413.599     7238.374     2200.603        4.326        0.993      258.061       39.435        0.023      335.354        5.927      859.022
03/30/2014  11:05:00      -94.377     -131.874       16.263       92.293      130.862       44.380     8517.987    17124.763     1969.612        2.708        1.381      162.166       35.815        0.049      335.526        6.217      858.983
03/30/2014  11:06:00     -187.550     -177.469       -8.277      138.028      106.792       57.952    19051.719    11404.577     3358.464        5.027        1.691      258.205       58.056        0.051      335.474        6.128      859.002
03/30/2014  11:07:00     -240.789     -210.610        0.151      169.425      143.405       83.693    28704.919    20565.047     7004.531        7.929        2.814      319.900       91.209        0.081      335.510        6.190      859.008
03/30/2014  11:08:00     -233.593     -148.276       -2.210      133.719      112.753       59.722    17880.798    12713.274     3566.672        5.535        1.708      276.679       63.436        0.053      335.421        6.041      859.011
03/30/2014  11:09:00     -185.013     -211.138       18.644      189.472      146.444      101.979    35899.759    21445.771    10399.648        7.344        3.387      280.730      110.956        0.156      335.782        6.643      858.941
03/30/2014  11:10:00      -10.071       37.762       49.195       97.350       85.610       70.422     9477.086     7329.121     4959.321        1.285        1.088       39.082       41.867        1.148      336.835        8.403      858.957
03/30/2014  11:11:00     -128.337     -118.479       12.024      149.896      113.052       86.435    22468.668    12780.734     7471.041        3.668        2.136      174.665       78.537        0.202      336.092        7.162      858.985
03/30/2014  11:12:00     -132.609     -119.724       28.547      142.370      161.536       88.982    20269.105    26093.920     7917.814        4.350        2.714      178.659       93.255        0.272      335.863        6.778      859.000
03/30/2014  11:13:00     -100.379       64.892       32.673      142.812       68.027       61.354    20395.224     4627.722     3764.339        2.207        1.439      119.528       59.344        0.246      336.347        7.588      859.017
03/30/2014  11:14:00     -244.402     -118.496      -16.808      150.717       88.912       50.677    22715.655     7905.427     2568.118        5.362        1.659      271.613       50.449        0.034      335.619        6.372      859.021
03/30/2014  11:15:00      -65.677      -16.374       30.518       92.284       76.475       57.773     8516.337     5848.451     3337.670        1.160        0.885       67.688       56.914        0.707      336.447        7.756      859.036
03/30/2014  11:16:00     -146.399       18.076        1.851      126.057       66.371       48.618    15890.487     4405.060     2363.675        2.221        1.133      147.511       57.378        0.151      336.165        7.284      859.058
03/30/2014  11:17:00     -295.291     -249.040       28.735      229.461      179.284      103.079    52652.367    32142.839    10625.248       12.271        4.771      386.287      114.000        0.087      335.723        6.544      859.054
03/30/2014  11:18:00     -265.952     -244.346        5.669      156.820       95.460       81.524    24592.410     9112.517     6646.115        8.540        2.018      361.159       76.231        0.045      335.430        6.056      859.085
03/30/2014  11:19:00     -202.503     -171.067       -9.683      104.391      106.683       50.127    10897.410    11381.278     2512.676        4.757        1.240      265.088       49.712        0.035      335.495        6.164      859.087
03/30/2014  11:20:00     -220.175      -74.196       12.825      122.401      111.819       56.473    14981.929    12503.502     3189.160        4.240        1.534      232.340       63.887        0.076      335.939        6.904      859.066
03/30/2014  11:21:00     -343.535      -79.162      -12.359      201.541      158.169       73.366    40618.680    25017.336     5382.554        9.771        3.551      352.538       75.364        0.046      336.105        7.180      859.069
03/30/2014  11:22:00     -300.912      -21.066      -23.615      147.595      125.821       68.762    21784.263    15830.981     4728.165        6.694        2.117      301.649       76.299        0.064      335.654        6.428      859.083
03/30/2014  11:23:00     -365.226      -62.449       -6.884      210.783      179.745       99.628    44429.414    32308.396     9925.772       11.198        4.333      370.526      108.655        0.086      336.015        7.031      859.062
03/30/2014  11:24:00     -277.896     -256.470      -15.011      147.545      140.277       73.344    21769.486    19677.497     5379.280        9.502        2.341      378.158       74.352        0.039      335.715        6.530      859.102
03/30/2014  11:25:00     -234.196     -152.277       -5.184      131.852      110.120       58.939    17384.929    12126.478     3473.851        5.552        1.649      279.350       61.851        0.049      335.736        6.566      859.095
03/30/2014  11:26:00     -137.038     -140.757       -7.690      107.434       64.411       44.723    11542.094     4148.734     2000.116        2.817        0.885      196.449       45.217        0.053      335.492        6.161      859.081
03/30/2014  11:27:00     -154.680     -107.833      -13.359      100.307       76.307       35.166    10061.574     5822.713     1236.660        2.642        0.856      188.557       31.967        0.029      335.682        6.477      859.037
03/30/2014  11:28:00     -228.604     -148.909        3.992      192.035      132.875       75.887    36877.555    17655.633     5758.806        6.736        3.015      272.825       93.664        0.118      336.043        7.077      859.027
03/30/2014  11:29:00     -244.999     -243.104       37.196      239.030      156.388      101.513    57135.330    24457.334    10304.841       10.618        4.595      345.144      127.422        0.136      335.828        6.720      859.002
03/30/2014  11:30:00      -99.853       40.732       31.438      133.101       79.872       72.628    17715.797     6379.595     5274.765        2.099        1.469      107.842       81.684        0.574      336.176        7.302      859.048
03/30/2014  11:31:00     -241.479      -34.924       -4.325      119.772      143.018       58.473    14345.284    20454.098     3419.049        4.888        1.911      243.991       55.923        0.053      335.895        6.830      859.068
03/30/2014  11:32:00     -275.160     -157.190       -1.149      146.908      109.338       75.855    21582.093    11954.769     5753.907        6.985        1.965      316.894       76.698        0.059      335.960        6.938      859.068
03/30/2014  11:33:00     -308.091     -263.444      -26.158      163.655      154.102       83.384    26782.914    23747.395     6952.954       11.123        2.874      405.368       91.169        0.051      335.682        6.475      859.060
03/30/2014  11:34:00     -357.436     -286.331       -2.264      156.674      145.907       83.601    24546.662    21288.962     6989.056       13.128        2.641      457.980       85.314        0.035      335.688        6.485      859.042
03/30/2014  11:35:00     -255.823     -204.469       18.416      202.709      122.037       78.073    41090.994    14893.084     6095.399        8.482        3.104      327.495       86.130        0.069      335.714        6.528      859.049
03/30/2014  11:36:00     -338.433     -286.529        1.213      203.930      128.330       92.262    41587.479    16468.467     8512.270       13.159        3.328      443.436       99.808        0.051      335.692        6.491      859.036
03/30/2014  11:37:00     -332.604     -209.788        8.167      164.927      138.476       80.993    27200.797    19175.641     6559.909       10.381        2.647      393.239       81.716        0.043      335.945        6.914      859.028
03/30/2014  11:38:00     -418.228     -255.425       -2.972      197.716      150.569       88.008    39091.787    22671.050     7745.474       15.482        3.475      490.058       84.828        0.030      335.871        6.790      859.029
03/30/2014  11:39:00     -276.438     -254.226       11.291      168.441      160.960       86.910    28372.334    25908.087     7553.340       10.149        3.092      375.565      101.498        0.073      335.830        6.723      859.046
03/30/2014  11:40:00     -378.419     -231.615        6.848      205.285      127.124       81.482    42141.970    16160.578     6639.312       13.090        3.247      443.674       89.737        0.041      335.752        6.592      859.016
03/30/2014  11:41:00     -271.544     -169.539       -6.069      188.400      178.514       89.689    35494.717    31867.107     8044.157        8.895        3.770      320.125       81.638        0.065      336.060        7.106      859.007
03/30/2014  11:42:00     -121.268      -29.009       14.263      101.898       90.259       56.788    10383.214     8146.653     3224.928        1.875        1.088      124.690       62.811        0.254      336.430        7.725      859.038
03/30/2014  11:43:00     -349.887       37.688      -14.555      245.663      127.873       68.743    60350.271    16351.465     4725.628       10.272        4.071      351.910       95.116        0.073      336.263        7.445      859.022
03/30/2014  11:44:00     -497.832      -99.536      -28.790      169.074      176.419       74.040    28585.975    31123.631     5481.935       16.187        3.260      507.685       63.407        0.016      336.062        7.109      859.014
03/30/2014  11:45:00     -271.919      -84.544        2.574      168.591      131.133       73.783    28422.991    17195.905     5443.893        6.607        2.553      284.759       67.768        0.057      336.208        7.353      859.058
03/30/2014  11:46:00     -161.176       49.725       14.501      123.167       88.755       67.814    15170.101     7877.524     4598.794        2.815        1.382      168.672       60.805        0.130      336.455        7.766      859.077
03/30/2014  11:47:00     -292.591       24.903      -20.225      218.863      117.479       61.544    47900.892    13801.256     3787.631        7.605        3.274      293.649       90.983        0.096      336.441        7.741      859.087
03/30/2014  11:48:00     -366.361      -25.102      -10.627      160.430      134.603       82.584    25737.643    18117.985     6820.179        9.281        2.534      367.220       87.856        0.057      335.990        6.988      859.102
03/30/2014  11:49:00     -301.671      -45.317       12.603      218.751      113.580       65.093    47852.075    12900.402     4237.066        7.909        3.249      305.056       86.594        0.081      336.308        7.521      859.109
03/30/2014  11:50:00     -432.350      -57.426      -33.765      198.540      110.080       81.976    39418.080    12117.576     6720.132       12.480        2.913      436.147       92.910        0.045      335.721        6.540      859.166
03/30/2014  11:51:00     -272.250      -91.221      -15.812       80.164       74.389       45.074     6426.231     5533.668     2031.710        4.834        0.700      287.126       48.749        0.029      335.569        6.286      859.184
03/30/2014  11:52:00     -228.848      -40.072      -10.796      112.025       83.134       47.444    12549.613     6911.324     2250.918        3.790        1.086      232.330       57.384        0.061      335.637        6.401      859.169
03/30/2014  11:53:00     -142.472      -25.146       -4.098       90.516       76.963       44.653     8193.231     5923.353     1993.914        1.853        0.806      144.674       42.353        0.086      335.906        6.850      859.177
03/30/2014  11:54:00     -281.896     -132.179      -18.168      121.036      122.235       46.915    14649.677    14941.511     2200.976        6.452        1.590      311.346       55.250        0.031      335.475        6.130      859.185
03/30/2014  11:55:00     -154.474      -52.940       -1.079      114.918       76.520       41.955    13206.166     5855.242     1760.186        2.374        1.041      163.294       39.641        0.059      335.828        6.721      859.176
03/30/2014  11:56:00     -413.575     -112.799      -25.956      130.070      111.824       69.376    16918.152    12504.521     4812.992       10.933        1.712      428.682       76.258        0.032      335.542        6.243      859.169
03/30/2014  11:57:00     -383.899     -114.088      -11.719      106.358       91.330       50.433    11311.999     8341.127     2543.458        9.136        1.110      400.493       36.863        0.008      335.771        6.624      859.177
03/30/2014  11:58:00     -282.688     -150.487       -1.926      116.843      108.653       58.491    13652.201    11805.499     3421.245        6.572        1.444      320.248       52.966        0.027      336.015        7.030      859.192
03/30/2014  11:59:00     -405.336      -11.691      -18.375      189.070      132.849       77.999    35747.360    17648.837     6083.891       11.211        2.974      405.504       90.551        0.050      336.172        7.292      859.216
03/30/2014  12:00:00     -318.655      -43.413      -24.174      193.901      132.977       61.798    37597.547    17682.888     3819.052        8.154        2.955      321.598       70.984        0.049      335.911        6.857      859.227
03/30/2014  12:01:00     -151.261       12.221       -2.929      107.170       49.162       48.474    11485.482     2416.902     2349.767        1.964        0.813      151.754       59.870        0.156      335.989        6.989      859.178
03/30/2014  12:02:00     -169.826      -43.039       -2.452       97.673      106.905       42.020     9539.951    11428.777     1765.703        2.671        1.137      175.195       45.478        0.067      336.206        7.351      859.162
03/30/2014  12:03:00     -342.148     -187.648        0.841      208.963      121.260       74.163    43665.658    14704.109     5500.146       10.806        3.193      390.226       84.955        0.047      336.126        7.215      859.177
03/30/2014  12:04:00     -304.060     -149.348      -12.904      107.453      100.469       59.339    11546.108    10094.008     3521.151        7.004        1.258      338.759       47.377        0.020      335.749        6.586      859.176
03/30/2014  12:05:00     -299.375      -16.045      -12.892      169.883      133.280       75.504    28860.209    17763.635     5700.899        7.118        2.616      299.804       86.995        0.084      335.982        6.974      859.143
03/30/2014  12:06:00     -383.994      -12.185      -40.710      125.042      111.886       71.377    15635.411    12518.447     5094.709        9.125        1.662      384.187       64.954        0.029      335.834        6.728      859.147
03/30/2014  12:07:00     -315.357     -157.518       -1.697      200.399      107.431       69.315    40159.576    11541.509     4804.533        9.037        2.825      352.508       81.148        0.053      335.972        6.960      859.130
03/30/2014  12:08:00     -279.396      -51.041       -0.695      159.270      111.676       72.435    25366.889    12471.591     5246.845        6.187        2.154      284.020       72.795        0.066      336.044        7.080      859.139
03/30/2014  12:09:00     -248.943     -202.499        7.936      161.733      115.863       71.766    26157.500    13424.235     5150.390        7.388        2.237      320.903       80.806        0.063      335.803        6.678      859.110
03/30/2014  12:10:00     -232.200     -165.740       -4.532      111.018      103.562       51.340    12325.056    10725.121     2635.765        5.354        1.284      285.284       50.175        0.031      335.702        6.508      859.105
03/30/2014  12:11:00     -147.659     -153.148       -0.093      107.093      113.381       65.621    11468.865    12855.280     4306.071        3.694        1.432      212.738       57.805        0.074      336.023        7.042      859.081
03/30/2014  12:12:00     -271.855      -85.085       -9.828      113.779      122.216       56.181    12945.642    14936.653     3156.318        5.613        1.552      284.859       43.714        0.024      336.003        7.011      859.055
03/30/2014  12:13:00     -213.626     -176.177       13.127      140.106      111.259       70.374    19629.665    12378.622     4952.540        5.690        1.848      276.901       75.357        0.074      335.963        6.943      859.042
03/30/2014  12:14:00     -234.772     -132.207        2.488      119.437       77.765       49.115    14265.102     6047.326     2412.331        4.766        1.136      269.438       40.787        0.023      335.675        6.464      859.030
03/30/2014  12:15:00     -196.046      -88.752       -1.073      111.190       99.976       48.812    12363.110     9995.214     2382.571        3.552        1.237      215.200       37.895        0.031      335.851        6.757      858.994
03/30/2014  12:16:00     -138.648     -128.833        0.980      104.451       76.788       41.431    10909.954     5896.431     1716.527        2.717        0.926      189.265       48.098        0.065      335.931        6.893      858.949
03/30/2014  12:17:00     -112.047     -200.872        0.097       85.695      111.145       45.500     7343.564    12353.303     2070.228        3.733        1.088      230.009       45.040        0.038      335.945        6.915      858.920
03/30/2014  12:18:00     -169.100     -118.140        1.025      133.835      103.306       50.521    17911.927    10672.206     2552.401        3.684        1.557      206.281       56.604        0.075      336.031        7.057      858.883
03/30/2014  12:19:00     -127.857      -75.278        9.129      106.244       80.750       55.660    11287.772     6520.495     3098.040        2.150        1.045      148.372       59.555        0.161      336.374        7.631      858.867
03/30/2014  12:20:00     -122.455      -39.275       -3.435       66.942       63.802       34.434     4481.192     4070.656     1185.687        1.314        0.487      128.599       28.235        0.048      336.283        7.481      858.893
03/30/2014  12:21:00     -319.353      -36.968      -14.401      176.916      103.354       65.905    31299.130    10682.102     4343.515        7.493        2.316      321.485       84.068        0.068      336.144        7.247      858.906
03/30/2014  12:22:00     -373.679      -83.298      -16.140      117.722       90.722       56.874    13858.406     8230.551     3234.623        8.607        1.266      382.850       50.045        0.017      335.748        6.585      858.885
03/30/2014  12:23:00     -264.665      -27.519      -14.556      163.809       91.616       60.114    26833.518     8393.404     3613.737        5.492        1.942      266.091       71.388        0.072      335.930        6.888      858.872
03/30/2014  12:24:00     -260.307      -16.658      -10.804      100.658       86.231       51.165    10132.038     7435.718     2617.829        4.417        1.009      260.840       46.385        0.032      335.891        6.822      858.866
03/30/2014  12:25:00     -148.682      -95.349       20.934      146.386       98.787       67.582    21428.777     9758.796     4567.320        3.369        1.788      176.628       79.700        0.204      336.121        7.210      858.826
03/30/2014  12:26:00     -291.201      -14.948       -7.961      134.788       89.064       59.498    18167.789     7932.433     3539.957        5.736        1.482      291.585       69.725        0.057      336.081        7.139      858.835
03/30/2014  12:27:00     -371.041      -22.704      -31.702      213.179      125.419       69.272    45445.097    15730.019     4798.660       10.257        3.299      371.735       94.917        0.065      335.981        6.973      858.827
03/30/2014  12:28:00     -209.564       50.708      -11.202       86.409      105.657       49.344     7466.557    11163.307     2434.828        3.384        1.053      215.612       49.852        0.053      335.981        6.973      858.837
03/30/2014  12:29:00     -119.398      -56.790       -9.101      133.693       76.175       49.949    17873.742     5802.578     2494.920        2.186        1.309      132.215       55.485        0.176      336.219        7.373      858.798
03/30/2014  12:30:00     -259.699      -43.341      -19.649       93.081       79.904       54.832     8664.160     6384.586     3006.550        4.388        0.903      263.290       35.454        0.018      335.915        6.863      858.787
03/30/2014  12:31:00     -305.582      -12.975      -26.195      121.000       89.283       52.134    14641.050     7971.484     2717.965        5.978        1.267      305.857       53.909        0.031      335.876        6.798      858.797
03/30/2014  12:32:00     -264.573      -22.065      -18.733      142.652       79.464       50.809    20349.548     6314.530     2581.587        5.004        1.462      265.491       70.935        0.071      335.794        6.660      858.810
03/30/2014  12:33:00     -160.700      -29.703       -0.464      101.121      131.340       54.982    10225.411    17250.110     3022.978        2.860        1.525      163.422       65.172        0.159      336.136        7.232      858.796
03/30/2014  12:34:00     -192.688       86.804       -9.504      129.673       93.055       64.474    16815.162     8659.196     4156.883        3.719        1.482      211.338       72.963        0.119      336.212        7.360      858.811
03/30/2014  12:35:00     -104.515       48.071      -10.884       78.784       54.238       39.159     6206.979     2941.722     1533.420        1.202        0.534      115.040       30.283        0.069      335.984        6.980      858.806
03/30/2014  12:36:00       31.498       73.203       18.831       38.291       47.820       37.736     1466.164     2286.754     1424.013        0.594        0.259       79.692       34.338        0.186      336.460        7.777      858.787
03/30/2014  12:37:00       17.350      102.574        0.919       28.059       52.046       33.388      787.319     2708.787     1114.771        0.772        0.231      104.031       23.646        0.052      336.311        7.527      858.775
03/30/2014  12:38:00      -23.504       90.682      -27.756       41.380       54.683       28.990     1712.338     2990.214      840.418        0.754        0.277       93.679       24.099        0.066      336.412        7.697      858.776
03/30/2014  12:39:00      -30.266        3.979        0.035       28.832       27.663       22.776      831.271      765.216      518.724        0.152        0.106       30.527       15.835        0.269      336.593        8.000      858.762
03/30/2014  12:40:00      -65.390      -21.212        7.813       42.530       30.775       24.425     1808.837      947.101      596.566        0.407        0.168       68.745       21.390        0.097      336.487        7.822      858.804
03/30/2014  12:41:00       58.444       53.120       -7.500       62.704       35.164       32.591     3931.854     1236.486     1062.159        0.626        0.312       78.977       20.257        0.066      336.436        7.736      858.781
03/30/2014  12:42:00     -113.463      -54.539      -15.463      128.014      102.324       50.393    16387.595    10470.266     2539.416        2.274        1.470      125.890       30.094        0.057      336.423        7.714      858.801
03/30/2014  12:43:00     -214.869     -200.808        8.985      148.043       96.861       68.745    21916.608     9381.997     4725.849        6.129        1.801      294.096       79.232        0.073      336.031        7.057      858.773
03/30/2014  12:44:00     -181.596     -137.102       -5.799      101.107       83.750       51.645    10222.551     7014.037     2667.184        3.585        0.995      227.539       53.675        0.056      336.170        7.287      858.764
03/30/2014  12:45:00      -73.465      -10.634       12.477       70.540       62.617       29.495     4975.837     3920.908      869.952        0.771        0.488       74.230       34.555        0.217      336.500        7.843      858.767
03/30/2014  12:46:00        2.957       23.398        2.141       43.757       35.736       38.021     1914.685     1277.036     1445.579        0.260        0.232       23.584       31.183        1.748      336.564        7.952      858.762
03/30/2014  12:47:00        2.801      -58.338        1.181       39.104       85.224       30.021     1529.136     7263.193      901.272        0.655        0.485       58.405       11.030        0.036      336.538        7.906      858.765
03/30/2014  12:48:00       15.234      -22.217        8.808       49.915      115.827       45.375     2491.511    13415.792     2058.855        0.938        0.898       26.938       32.558        1.461      336.776        8.304      858.766
03/30/2014  12:49:00      -47.885      -34.992       29.749      132.880      105.291       51.584    17657.097    11086.173     2660.899        1.790        1.570       59.308       77.117        1.691      336.589        7.991      858.749
03/30/2014  12:50:00     -177.663      -80.991        2.756       91.541       51.557       41.168     8379.827     2658.151     1694.843        2.543        0.637      195.253       49.227        0.064      336.503        7.846      858.748
03/30/2014  12:51:00     -265.618     -201.928        5.056      160.318       89.136       65.892    25701.850     7945.215     4341.734        7.466        1.899      333.658       74.414        0.050      336.364        7.612      858.727
03/30/2014  12:52:00     -395.067     -154.929      -48.067      157.340      154.132       59.514    24756.022    23756.791     3541.909       11.721        2.603      424.359       62.655        0.022      336.277        7.467      858.724
03/30/2014  12:53:00     -233.806      -32.106       -3.565      125.751      127.113       50.816    15813.301    16157.833     2582.255        4.512        1.728      236.000       57.033        0.058      336.532        7.895      858.750
03/30/2014  12:54:00     -300.900      -71.488        3.509      149.922      127.354       80.113    22476.638    16218.927     6418.099        7.038        2.256      309.275       78.167        0.064      336.375        7.630      858.753
03/30/2014  12:55:00     -338.091     -148.467      -19.560      140.322       82.684       60.131    19690.274     6836.580     3615.728        8.343        1.507      369.254       65.611        0.032      336.230        7.388      858.767
03/30/2014  12:56:00     -215.556      -77.755      -16.353      122.987       87.949       51.686    15125.714     7735.106     2671.440        3.915        1.277      229.151       57.821        0.064      336.466        7.784      858.768
03/30/2014  12:57:00     -205.674      -71.436      -18.270      109.922       85.605       58.709    12082.917     7328.198     3446.780        3.529        1.143      217.726       54.884        0.064      336.539        7.907      858.731
03/30/2014  12:58:00     -269.113     -367.252      -17.705      268.699      200.779      110.661    72198.982    40312.281    12245.965       16.616        6.238      455.298      109.736        0.058      336.577        7.969      858.702
03/30/2014  12:59:00     -258.419     -275.021      -10.998      200.153      166.553      101.170    40061.208    27739.781    10235.320       11.027        3.902      377.381      113.167        0.090      336.429        7.722      858.750
03/30/2014  13:00:00     -131.929     -176.024       13.569      162.945      145.188       71.531    26551.202    21079.503     5116.682        5.065        2.637      219.977       66.301        0.091      336.431        7.725      858.751
03/30/2014  13:01:00     -113.921     -199.229       11.210      105.598      159.638       61.466    11150.939    25484.321     3778.048        4.660        2.021      229.500       46.358        0.041      336.532        7.895      858.735
03/30/2014  13:02:00     -248.979     -225.310       -2.140      168.397      168.285       67.343    28357.659    28319.840     4535.119        8.697        3.061      335.791       71.451        0.045      336.399        7.673      858.703
03/30/2014  13:03:00     -336.763     -215.049       12.504      213.891      116.407       88.702    45749.476    13550.614     7868.048       11.348        3.358      399.569      100.887        0.064      336.351        7.592      858.679
03/30/2014  13:04:00     -200.959      -46.013        4.121      130.415      106.391       61.097    17007.948    11319.138     3732.844        3.728        1.603      206.160       58.831        0.081      336.777        8.304      858.705
03/30/2014  13:05:00     -231.243      -26.217        1.970      134.229      136.535       57.032    18017.463    18641.884     3252.612        4.703        1.996      232.725       65.505        0.079      336.898        8.505      858.729
03/30/2014  13:06:00     -280.540      -80.178       -1.823      141.457      100.707       63.435    20009.965    10141.862     4024.018        5.965        1.709      291.773       67.849        0.054      336.995        8.667      858.779
03/30/2014  13:07:00     -161.617      -74.599        6.868      111.075       91.613       46.707    12337.608     8392.866     2181.576        2.732        1.146      178.003       34.335        0.037      336.800        8.342      858.761
03/30/2014  13:08:00     -134.849     -200.248       -0.482      133.390      109.835       52.444    17792.831    12063.784     2750.325        4.544        1.630      241.420       43.569        0.033      336.485        7.815      858.766
03/30/2014  13:09:00     -250.466     -410.271        1.398      216.908      182.228       91.652    47049.111    33207.048     8400.118       15.984        4.433      480.683       98.486        0.042      336.270        7.458      858.728
03/30/2014  13:10:00     -189.086     -182.676        5.239      170.752      171.635       69.983    29156.204    29458.418     4897.653        6.632        3.176      262.915       75.916        0.083      336.442        7.744      858.704
03/30/2014  13:11:00     -320.605     -282.940       -6.199      179.797      153.746       89.906    32327.028    23637.974     8083.128       12.345        3.202      427.601       83.191        0.038      336.654        8.099      858.710
03/30/2014  13:12:00     -161.919     -115.940        5.999      159.791      139.004       85.463    25533.185    19322.073     7303.901        4.592        2.608      199.148       97.372        0.239      336.787        8.322      858.751
03/30/2014  13:13:00     -500.345     -181.752      -16.883      283.416      211.920      113.597    80324.626    44910.078    12904.166       21.087        6.907      532.333      117.696        0.049      336.536        7.901      858.716
03/30/2014  13:14:00     -449.757      -50.380       -3.244      206.193      167.259       84.374    42515.516    27975.626     7118.923       14.120        3.881      452.570       87.056        0.037      336.482        7.809      858.751
03/30/2014  13:15:00     -406.033     -255.373       -9.311      227.588      172.603      105.523    51796.347    29791.908    11135.160       16.143        4.636      479.664      115.431        0.058      336.564        7.947      858.777
03/30/2014  13:16:00     -262.865     -250.728       -5.124      168.390      148.834       90.040    28355.310    22151.610     8107.259        9.529        2.931      363.267       92.253        0.064      336.563        7.945      858.775
03/30/2014  13:17:00     -372.431     -149.284       -8.263      203.245      162.240       78.033    41308.596    26321.776     6089.124       11.737        3.686      401.237       87.672        0.048      336.507        7.852      858.768
03/30/2014  13:18:00     -158.190      -47.345       10.428      114.698       99.850       51.866    13155.533     9970.078     2690.093        2.659        1.291      165.123       55.542        0.113      336.745        8.251      858.795
03/30/2014  13:19:00     -261.816     -126.710        9.496      160.293      106.473       62.934    25693.855    11336.534     3960.672        6.283        2.050      290.866       66.595        0.052      336.927        8.554      858.789
03/30/2014  13:20:00     -245.998       13.082      -12.263      126.970      153.958       68.331    16121.448    23703.112     4669.109        5.266        2.225      246.345       56.093        0.052      336.754        8.265      858.824
03/30/2014  13:21:00     -369.469      -51.175      -24.524      160.639      128.047       77.100    25804.799    16395.937     5944.339        9.393        2.407      372.996       74.571        0.040      336.693        8.163      858.817
03/30/2014  13:22:00     -129.059     -100.616       13.361      188.342      125.230       72.660    35472.670    15682.600     5279.545        4.169        2.822      163.645       81.048        0.245      337.230        9.062      858.773
03/30/2014  13:23:00     -236.067     -198.712       -7.821      110.856      131.226       61.047    12289.116    17220.244     3726.677        6.425        1.662      308.567       62.015        0.040      337.059        8.774      858.804
03/30/2014  13:24:00     -336.300     -281.893       -9.618      174.187      142.942       80.205    30340.977    20432.499     6432.918       12.492        2.860      438.818       86.720        0.039      336.795        8.333      858.761
03/30/2014  13:25:00     -293.011      -34.215       -9.427      170.394      148.206       70.884    29034.284    21965.042     5024.595        7.156        2.801      295.002       65.445        0.049      336.938        8.572      858.815
03/30/2014  13:26:00     -258.050     -112.551       -0.810      186.459      123.626       65.105    34766.859    15283.378     4238.698        6.676        2.714      281.527       79.571        0.080      336.942        8.579      858.819
03/30/2014  13:27:00     -318.805     -158.321      -21.294      151.736      125.611       70.398    23023.799    15778.170     4955.920        8.545        2.188      355.952       64.059        0.032      336.538        7.903      858.834
03/30/2014  13:28:00     -245.999     -208.456      -12.117      142.764      146.531       69.942    20381.701    21471.349     4891.829        7.542        2.337      322.443       61.116        0.036      336.423        7.713      858.802
03/30/2014  13:29:00      -93.204      -64.194       17.430      120.088      103.390       53.845    14421.203    10689.490     2899.316        2.056        1.401      113.172       69.910        0.382      336.889        8.493      858.802
03/30/2014  13:30:00     -229.304      -62.000       -1.249      207.067      110.405       69.071    42876.748    12189.285     4770.819        5.812        2.992      237.538       91.151        0.147      336.750        8.259      858.779
03/30/2014  13:31:00     -326.309      -63.123      -27.964      150.172      112.074       65.980    22551.586    12560.508     4353.331        7.535        1.973      332.358       70.616        0.045      336.977        8.636      858.776
03/30/2014  13:32:00     -328.913     -180.137        9.826      190.477      151.204       92.041    36281.588    22862.794     8471.608       10.416        3.381      375.011       91.466        0.059      336.969        8.626      858.764
03/30/2014  13:33:00     -334.218      -95.621      -33.640      179.335      103.202       56.820    32161.015    10650.567     3228.550        8.400        2.302      347.627       43.137        0.015      336.838        8.405      858.776
03/30/2014  13:34:00     -274.630      -35.066      -23.239      143.877      103.672       61.428    20700.477    10747.879     3773.353        5.620        1.761      276.859       56.870        0.042      336.865        8.450      858.771
03/30/2014  13:35:00     -201.991      -31.241       -4.529      150.913      128.500       60.066    22774.670    16512.244     3607.933        4.234        2.145      204.392       74.514        0.133      336.984        8.650      858.744
03/30/2014  13:36:00       31.715       -4.258       24.352       91.729       79.862       51.194     8414.124     6377.986     2620.831        0.951        0.871       32.000       29.106        0.827      337.273        9.135      858.704
03/30/2014  13:37:00     -226.697     -158.328        4.131      139.044      133.183       65.004    19333.328    17737.805     4225.526        5.888        2.065      276.512       78.279        0.080      337.298        9.174      858.748
03/30/2014  13:38:00      -80.207      -40.139       18.834      132.540       97.129       64.353    17566.869     9434.103     4141.347        1.976        1.557       89.690       78.317        0.762      337.169        8.960      858.760
03/30/2014  13:39:00     -212.086       91.668      -33.717      142.504       98.744       54.697    20307.500     9750.330     2991.750        4.378        1.652      231.049       57.839        0.063      336.967        8.621      858.774
03/30/2014  13:40:00     -194.734       33.844       -4.954      130.538      135.503       56.745    17040.055    18361.066     3220.028        3.885        1.931      197.653       49.442        0.063      337.249        9.093      858.753
03/30/2014  13:41:00     -159.585      -46.296        0.028      119.339       95.597       54.803    14241.767     9138.840     3003.371        2.699        1.319      166.165       45.056        0.074      337.545        9.590      858.771
03/30/2014  13:42:00     -335.073     -199.753      -17.237      229.162      127.358       89.085    52515.296    16220.040     7936.072       11.456        3.834      390.096      110.251        0.080      336.704        8.180      858.775
03/30/2014  13:43:00     -233.646     -126.225       -6.050      215.661      110.064       61.107    46509.823    12113.998     3734.068        6.645        3.118      265.562       59.826        0.051      336.767        8.286      858.712
03/30/2014  13:44:00     -444.433     -129.071      -17.088      170.588      166.196       79.155    29100.163    27621.164     6265.507       13.872        3.149      462.796       86.744        0.035      336.946        8.585      858.713
03/30/2014  13:45:00     -147.554      -91.643       52.540      240.146      132.867       84.692    57670.156    17653.677     7172.785        5.770        4.125      173.697      109.982        0.401      337.424        9.386      858.705
03/30/2014  13:46:00     -253.116     -316.973      -21.363      155.582      161.171       74.132    24205.899    25976.000     5495.603       11.033        2.784      405.634       71.419        0.031      337.104        8.850      858.690
03/30/2014  13:47:00     -428.094     -150.323      -28.220      233.952      197.406       95.486    54733.644    38968.950     9117.503       15.472        5.141      453.719      111.903        0.061      337.290        9.162      858.717
03/30/2014  13:48:00     -597.473       87.934      -45.026      156.698      116.140       68.689    24554.208    13488.464     4718.120       20.474        2.138      603.909       64.929        0.012      336.653        8.096      858.756
03/30/2014  13:49:00     -425.538      -33.323      -26.421      189.321      127.708       82.499    35842.503    16309.345     6806.119       12.091        2.948      426.840       94.964        0.049      336.771        8.292      858.756
03/30/2014  13:50:00     -246.950      -46.800       -9.078       83.454       91.277       46.853     6964.609     8331.574     2195.170        4.037        0.875      251.345       39.047        0.024      336.515        7.865      858.716
03/30/2014  13:51:00     -152.347      -89.258       -2.473      121.749       64.967       52.586    14822.903     4220.717     2765.252        2.649        1.090      176.569       65.745        0.139      336.954        8.601      858.715
03/30/2014  13:52:00      -38.954        0.986       -1.531       79.683       76.168       41.515     6349.308     5801.621     1723.508        0.769        0.694       38.966       41.444        1.131      337.510        9.533      858.680
03/30/2014  13:53:00     -224.785     -232.998       17.483      221.839      164.949       85.442    49212.608    27208.198     7300.313        9.440        4.186      323.754       83.488        0.066      337.392        9.333      858.648
03/30/2014  13:54:00     -294.913     -171.152       -8.045      138.730      137.079       72.097    19245.951    18790.576     5197.918        7.977        2.162      340.979       67.090        0.039      337.265        9.119      858.650
03/30/2014  13:55:00     -286.035     -315.742      -11.839      157.799      224.027       98.290    24900.427    50188.306     9660.925       13.318        4.237      426.039       91.040        0.046      336.941        8.577      858.591
03/30/2014  13:56:00     -376.016     -308.275      -10.135      261.211      212.222      107.775    68231.297    45038.049    11615.400       18.068        6.244      486.232      138.472        0.081      337.117        8.872      858.571
03/30/2014  13:57:00     -599.739      -89.035      -28.213      230.200      272.319       80.623    52992.163    74157.413     6499.990       25.100        6.682      606.312       89.864        0.022      336.835        8.401      858.619
03/30/2014  13:58:00     -193.230     -111.728       21.984      251.926      254.841      108.282    63466.647    64943.832    11724.944        9.519        7.007      223.206      130.590        0.342      337.489        9.497      858.603
03/30/2014  13:59:00     -398.793     -123.983       -5.122      173.675      156.623       78.014    30163.043    24530.806     6086.217       11.759        3.039      417.621       85.142        0.042      337.419        9.378      858.656
03/30/2014  14:00:00     -284.946     -156.281      -20.868      223.613      194.522       85.119    50002.944    37838.954     7245.292       10.055        4.754      324.990       82.592        0.065      337.254        9.102      858.682
03/30/2014  14:01:00     -209.541     -163.613       17.444      169.514      137.310       93.647    28735.080    18854.080     8769.842        6.366        2.818      265.851      104.653        0.155      337.270        9.128      858.682
03/30/2014  14:02:00     -307.029     -189.438       -2.842      226.456      146.878       94.275    51282.133    21573.214     8887.799       10.594        4.087      360.768      112.487        0.097      337.100        8.843      858.659
03/30/2014  14:03:00     -394.520     -155.052       -2.264      228.150      173.401       91.114    52052.352    30067.886     8301.735       13.504        4.521      423.895       96.844        0.052      337.063        8.781      858.693
03/30/2014  14:04:00     -151.702      -84.935       15.020      159.195      136.354       81.805    25343.143    18592.366     6692.121        4.053        2.531      173.861       86.257        0.246      337.310        9.197      858.665
03/30/2014  14:05:00     -331.282      -61.870       -0.257      211.872      112.261       71.815    44889.739    12602.601     5157.414        8.810        3.132      337.009       85.789        0.065      337.380        9.313      858.692
03/30/2014  14:06:00     -252.025       37.573       -0.727      221.581      140.038       87.700    49098.210    19610.558     7691.242        7.065        3.820      254.810       89.367        0.123      337.521        9.547      858.651
03/30/2014  14:07:00     -506.347     -165.746       -7.854      316.028      224.267      107.402    99873.438    50295.907    11535.291       22.278        8.085      532.785      144.296        0.073      337.336        9.238      858.654
03/30/2014  14:08:00     -515.318      -87.883      -28.149      197.086      208.501      102.347    38843.038    43472.510    10474.960       18.341        4.640      522.758      109.793        0.044      337.145        8.919      858.696
03/30/2014  14:09:00     -384.539      -57.558       -1.630      193.729      165.389       78.489    37531.024    27353.476     6160.451       11.110        3.552      388.822       84.478        0.047      337.033        8.731      858.704
03/30/2014  14:10:00     -366.921     -195.642        3.628      327.867      215.997       97.122   107496.847    46654.780     9432.629       16.822        8.179      415.820      142.122        0.117      337.184        8.985      858.727
03/30/2014  14:11:00     -326.549     -190.119       -5.671      175.180      130.446       87.807    30688.141    17016.236     7710.152        9.910        2.771      377.862       89.344        0.056      336.870        8.459      858.672
03/30/2014  14:12:00     -311.411     -143.580       20.526      232.425      185.436      110.402    54021.160    34386.409    12188.573       10.928        5.030      342.917      121.435        0.125      337.259        9.111      858.688
03/30/2014  14:13:00     -275.599      -31.350        2.438      217.292      229.887      108.649    47215.818    52848.160    11804.584        9.438        5.593      277.376      101.422        0.134      337.273        9.134      858.698
03/30/2014  14:14:00     -363.632     -238.439      -12.009      225.523      166.906       81.787    50860.682    27857.526     6689.125       13.730        4.270      434.835       89.717        0.043      337.231        9.061      858.731
03/30/2014  14:15:00     -681.830     -328.488      -25.486      266.768      218.808      119.175    71165.286    47877.053    14202.588       35.332        6.662      756.833      127.749        0.028      336.680        8.141      858.724
03/30/2014  14:16:00     -327.293     -169.691       -5.910      186.339      123.086       95.727    34722.105    15150.130     9163.750        9.748        2.952      368.667       98.922        0.072      337.180        8.977      858.746
03/30/2014  14:17:00     -185.609     -114.121       34.151      219.374      107.816       93.287    48125.022    11624.384     8702.423        5.853        3.423      217.886      118.831        0.297      337.336        9.240      858.713
03/30/2014  14:18:00     -457.060     -210.391      -16.503      200.198      200.344       84.922    40079.318    40137.676     7211.661       17.042        4.371      503.158       89.292        0.031      336.956        8.603      858.680
03/30/2014  14:19:00     -284.679      -92.036       11.260      208.543      165.797       94.645    43490.109    27488.668     8957.682        8.477        3.997      299.186       99.558        0.111      337.438        9.411      858.657
03/30/2014  14:20:00     -304.926     -156.053        7.156      245.024      175.016       86.626    60036.619    30630.621     7504.053       10.776        4.909      342.538      100.493        0.086      337.584        9.655      858.687
03/30/2014  14:21:00     -362.134     -221.174       19.413      346.121      214.173      120.689   119799.452    45870.019    14565.848       18.030        9.012      424.334      167.983        0.157      337.150        8.928      858.686
03/30/2014  14:22:00     -668.892     -418.463      -43.453      290.506      247.682      123.428    84394.017    61346.410    15234.569       39.266        8.049      789.004      114.807        0.021      336.862        8.445      858.592
03/30/2014  14:23:00     -401.045     -276.631       15.838      236.376      206.235      101.637    55873.725    42532.887    10330.068       17.315        5.437      487.198      107.627        0.049      337.132        8.896      858.657
03/30/2014  14:24:00     -456.038     -337.869       -3.638      239.874      210.176      110.289    57539.666    44173.746    12163.599       21.799        5.694      567.562      124.960        0.048      336.902        8.512      858.714
03/30/2014  14:25:00     -351.618     -326.190       -2.950      232.607      227.480      120.422    54106.141    51747.152    14501.386       17.518        6.018      479.620      125.334        0.068      337.167        8.956      858.709
03/30/2014  14:26:00     -506.164     -345.570        5.643      315.630      255.133      143.327    99622.367    65092.618    20542.637       28.042        9.263      612.879      175.304        0.082      336.884        8.483      858.776
03/30/2014  14:27:00     -417.387     -246.224      -21.911      197.653      178.533       98.950    39066.840    31874.144     9791.134       15.801        4.037      484.601      104.017        0.046      336.614        8.029      858.789
03/30/2014  14:28:00     -348.012     -196.223        5.794      241.103      164.608       97.676    58130.593    27095.706     9540.660       12.719        4.738      399.520      119.518        0.089      337.004        8.684      858.746
03/30/2014  14:29:00     -415.130     -112.321       -9.859      251.206      253.062       93.439    63104.685    64040.582     8730.821       16.043        6.794      430.056      110.836        0.066      337.026        8.719      858.773
03/30/2014  14:30:00     -531.224     -388.878      -22.530      274.301      233.601      123.198    75240.773    54569.327    15177.675       28.943        7.249      658.350      137.932        0.044      336.923        8.548      858.757
03/30/2014  14:31:00     -413.842     -197.649        1.347      209.265      171.172       84.802    43791.682    29299.906     7191.365       14.529        4.014      458.618       80.073        0.030      336.905        8.517      858.752
03/30/2014  14:32:00     -329.458     -246.001       -8.429      212.010      169.792       92.116    44948.282    28829.364     8485.401       12.568        4.113      411.168      104.571        0.065      337.082        8.813      858.748
03/30/2014  14:33:00     -600.290     -442.569        3.673      330.140      261.201      149.370   108992.090    68225.738    22311.363       37.784        9.976      745.799      178.270        0.057      336.618        8.038      858.733
03/30/2014  14:34:00     -349.989     -279.165       -4.710      221.248      170.852       99.808    48950.888    29190.266     9961.605       14.426        4.405      447.689      109.876        0.060      336.790        8.325      858.752
03/30/2014  14:35:00     -519.757     -134.320      -30.631      235.188      202.605      112.357    55313.200    41048.809    12624.155       19.903        5.449      536.833      116.541        0.047      336.976        8.635      858.751
03/30/2014  14:36:00     -511.186     -159.612      -13.937      268.405      220.054      108.177    72041.503    48423.805    11702.181       20.955        6.608      535.525      108.132        0.041      336.835        8.401      858.735
03/30/2014  14:37:00     -612.908     -248.159      -28.552      267.746      255.734      114.110    71687.846    65400.029    13021.027       29.405        7.505      661.241      122.641        0.034      336.943        8.579      858.701
03/30/2014  14:38:00     -607.073     -303.990      -30.224      229.143      222.230      121.690    52506.416    49386.209    14808.552       28.926        5.835      678.931      129.717        0.037      336.920        8.542      858.779
03/30/2014  14:39:00     -318.352     -113.319       -5.142      250.220      195.030       96.865    62610.076    38036.862     9382.815       11.210        5.501      337.919      121.516        0.129      337.079        8.809      858.802
03/30/2014  14:40:00     -234.579     -118.329       -3.498      156.767      113.293       55.586    24575.829    12835.312     3089.815        5.476        2.025      262.733       41.445        0.025      337.193        8.998      858.814
03/30/2014  14:41:00     -366.594     -152.635       -2.085      225.071      144.885       75.914    50657.143    20991.702     5762.946       11.754        3.871      397.100       93.481        0.055      337.192        8.999      858.793
03/30/2014  14:42:00     -375.229     -299.603       -1.016      250.059      190.082      111.414    62529.726    36131.091    12413.029       17.079        5.554      480.165      118.112        0.061      336.977        8.636      858.741
03/30/2014  14:43:00     -474.427     -295.380      -16.638      272.121      199.731      123.716    74049.954    39892.594    15305.619       22.090        6.462      558.865      137.029        0.060      336.893        8.496      858.738
03/30/2014  14:44:00     -579.527     -171.551      -30.692      314.945      156.623       99.414    99190.620    24530.921     9883.097       24.989        6.680      604.385      131.018        0.047      337.096        8.835      858.743
03/30/2014  14:45:00     -567.059     -236.328      -23.365      258.514      189.947      109.271    66829.467    36079.834    11940.090       24.638        5.742      614.334      123.817        0.041      337.029        8.725      858.722
03/30/2014  14:46:00     -446.546     -110.078       -4.981      211.376      198.683       99.624    44679.847    39475.055     9924.897       15.279        4.704      459.914       90.042        0.038      336.992        8.661      858.755
03/30/2014  14:47:00     -529.458     -176.558      -32.953      286.868      248.116      110.275    82293.484    61561.551    12160.561       23.427        7.801      558.121      114.294        0.042      336.844        8.415      858.753
03/30/2014  14:48:00     -442.629     -126.477       -4.983      267.885      198.617      105.183    71762.381    39448.762    11063.458       16.708        6.114      460.345      128.104        0.077      337.004        8.683      858.752
03/30/2014  14:49:00     -457.613     -220.954      -20.612      247.743      228.894      109.829    61376.624    52392.281    12062.368       19.222        6.292      508.164      128.203        0.064      337.027        8.721      858.747
03/30/2014  14:50:00     -376.538     -229.866        2.283      207.986      161.964       89.810    43258.366    26232.495     8065.873       13.608        3.878      441.157      110.809        0.063      336.945        8.585      858.729
03/30/2014  14:51:00     -390.009     -310.131        1.782      255.905      185.333       96.332    65487.204    34348.371     9279.789       17.868        5.456      498.285       99.584        0.040      337.078        8.807      858.677
03/30/2014  14:52:00     -282.068     -246.795       29.585      280.961      218.785      128.202    78939.165    47866.740    16435.641       14.227        7.162      374.793      147.443        0.155      337.427        9.392      858.646
03/30/2014  14:53:00     -425.970     -192.610      -17.532      276.170      163.769      130.441    76269.987    26820.348    17014.964       16.946        6.005      467.493      134.380        0.083      337.132        8.897      858.682
03/30/2014  14:54:00     -344.443      -73.055        1.538      195.034      147.214       89.346    38038.108    21672.005     7982.670        9.582        3.385      352.105      102.900        0.085      336.946        8.585      858.683
03/30/2014  14:55:00     -370.806     -184.302      -19.660      177.973      191.620       86.183    31674.409    36718.261     7427.489       12.382        3.791      414.082       84.893        0.042      337.098        8.838      858.646
03/30/2014  14:56:00     -354.170     -138.003        2.220      232.955      169.676       95.978    54267.895    28789.811     9211.850       11.836        4.613      380.107      107.524        0.080      337.236        9.070      858.665
03/30/2014  14:57:00     -481.485     -132.993        1.839      233.352      165.258      105.054    54452.958    27310.129    11036.383       17.114        4.640      499.515      100.746        0.041      337.076        8.804      858.675
03/30/2014  14:58:00     -320.419     -143.290        4.639      163.035      179.092       94.220    26580.452    32073.779     8877.487        9.536        3.377      350.999      101.708        0.084      337.004        8.682      858.675
03/30/2014  14:59:00     -543.746     -304.733      -17.060      196.525      177.416       93.064    38622.012    31476.553     8660.886       23.377        3.938      623.315       71.921        0.013      336.845        8.417      858.625
03/30/2014  15:00:00     -397.766     -208.426       -9.289      242.310      211.837      113.956    58713.904    44875.073    12985.924       15.914        5.829      449.064      110.121        0.060      337.069        8.792      858.624
03/30/2014  15:01:00     -316.501      -87.015       -4.550      199.528      129.644       83.228    39811.605    16807.476     6926.879        8.564        3.177      328.244       91.491        0.078      337.332        9.232      858.623
03/30/2014  15:02:00     -399.813      -74.558      -17.046      194.640      146.634       73.779    37884.577    21501.470     5443.270       11.525        3.241      406.706       72.289        0.032      337.384        9.320      858.628
03/30/2014  15:03:00     -350.647     -133.638      -10.870      273.379      183.383      100.785    74735.915    33629.359    10157.573       12.970        5.926      375.250      111.682        0.089      337.317        9.206      858.610
03/30/2014  15:04:00     -700.521     -119.338      -28.921      272.134      239.048      108.938    74057.070    57143.998    11867.484       32.441        7.153      710.613      113.502        0.026      336.883        8.481      858.629
03/30/2014  15:05:00     -469.102     -103.360       -3.801      250.947      210.191      105.160    62974.161    44180.296    11058.624       17.446        5.911      480.354      121.061        0.064      336.982        8.646      858.644
03/30/2014  15:06:00     -527.355     -275.008      -11.963      194.430      191.413       95.268    37802.911    36638.917     9075.936       21.868        4.176      594.754       98.423        0.027      336.934        8.565      858.677
03/30/2014  15:07:00     -268.675     -183.560       -1.005      201.927      173.013       98.439    40774.482    29933.542     9690.198        9.312        4.020      325.393       85.853        0.070      336.940        8.576      858.664
03/30/2014  15:08:00     -258.020     -163.932       -1.445      224.442      207.124      110.467    50374.061    42900.554    12203.045        9.944        5.274      305.692      101.353        0.110      337.184        8.984      858.613
03/30/2014  15:09:00     -640.993     -304.389      -47.095      245.170      259.953      111.521    60108.351    67575.428    12436.861       32.290        7.006      709.595      129.764        0.033      336.855        8.435      858.588
03/30/2014  15:10:00     -684.396     -256.042      -43.439      254.894      200.735      116.566    64971.203    40294.454    13587.717       32.732        5.943      730.722      107.352        0.022      336.895        8.501      858.551
03/30/2014  15:11:00     -608.235     -142.896        2.270      306.031      191.251      108.494    93654.755    36576.804    11770.910       26.616        7.100      624.795      125.269        0.040      336.962        8.613      858.648
03/30/2014  15:12:00     -424.992     -179.998      -13.090      287.841      256.788      120.589    82852.334    65940.150    14541.772       18.823        8.167      461.538      137.738        0.089      336.922        8.545      858.611
03/30/2014  15:13:00     -278.374     -138.457       27.100      319.071      173.531      118.130   101806.238    30113.132    13954.728       12.161        7.294      310.906      158.505        0.260      337.182        8.983      858.601
03/30/2014  15:14:00     -560.803     -370.014       -6.239      319.840      252.246      125.068   102297.887    63627.911    15641.959       31.647        9.078      671.871      150.314        0.050      336.747        8.253      858.589
03/30/2014  15:15:00     -555.385     -398.329      -10.668      287.341      228.820      111.113    82564.788    52358.400    12346.188       30.722        7.363      683.461      134.758        0.039      336.686        8.150      858.586
03/30/2014  15:16:00     -576.751     -291.514      -32.839      214.788      193.836      102.813    46133.687    37572.212    10570.568       25.647        4.714      646.237       95.657        0.022      336.552        7.928      858.619
03/30/2014  15:17:00     -473.643     -179.639      -10.717      182.401      164.799       81.176    33270.252    27158.598     6589.610       16.186        3.351      506.565       68.484        0.018      336.828        8.389      858.625
03/30/2014  15:18:00     -305.816     -192.112       25.089      250.085      181.334       81.613    62542.616    32881.990     6660.737       11.655        5.104      361.152      106.551        0.087      337.093        8.831      858.645
03/30/2014  15:19:00     -505.937     -266.180      -11.368      256.182      203.760      105.406    65629.237    41518.089    11110.450       22.258        5.913      571.685      102.684        0.032      336.664        8.114      858.631
03/30/2014  15:20:00     -374.913     -271.902        5.161      248.712      235.845      116.746    61857.551    55622.973    13629.536       17.279        6.556      463.131      127.256        0.076      336.683        8.145      858.626
03/30/2014  15:21:00     -498.207     -223.631        0.097      222.487      167.958       87.566    49500.464    28209.869     7667.818       19.178        4.269      546.096       97.701        0.032      336.720        8.207      858.593
03/30/2014  15:22:00     -547.536       -0.452      -24.142      292.599      195.840      104.548    85614.378    38353.201    10930.327       21.761        6.745      547.536      124.568        0.052      336.779        8.307      858.637
03/30/2014  15:23:00     -658.811      -58.262      -46.716      279.646      180.325      114.770    78201.677    32517.085    13172.190       28.172        6.195      661.382      141.940        0.046      336.583        7.979      858.619
03/30/2014  15:24:00     -545.216      -69.761      -41.336      171.960      135.407       79.473    29570.347    18334.986     6315.993       17.902        2.711      549.660       86.388        0.025      336.731        8.226      858.617
03/30/2014  15:25:00     -329.011      -45.389        8.037      228.723      145.727       93.114    52314.329    21236.353     8670.137        9.628        4.111      332.127      117.007        0.124      336.972        8.629      858.629
03/30/2014  15:26:00     -309.583     -248.108      -19.683      190.076      196.197       85.535    36128.802    38493.332     7316.262       11.985        4.097      396.735       90.533        0.052      336.992        8.663      858.617
03/30/2014  15:27:00     -627.082     -299.278      -27.390      286.982      236.305      123.116    82358.946    55839.954    15157.455       31.842        7.668      694.838      130.352        0.035      336.765        8.284      858.587
03/30/2014  15:28:00     -524.466     -164.970      -11.121      343.763      222.624      119.787   118172.832    49561.489    14348.842       24.221        9.104      549.799      154.261        0.079      336.612        8.029      858.609
03/30/2014  15:29:00     -362.340     -175.976      -12.392      228.101      183.803      100.287    52030.157    33783.539    10057.509       12.912        4.794      402.813      110.122        0.075      336.858        8.440      858.630
03/30/2014  15:30:00     -438.409     -324.774       -5.119      216.358      180.759      110.577    46810.606    32673.737    12227.285       19.469        4.586      545.601      107.070        0.039      336.763        8.279      858.652
03/30/2014  15:31:00     -517.058     -347.499      -18.579      262.337      193.993      127.518    68820.661    37633.346    16260.897       25.556        6.136      622.981      145.454        0.055      336.559        7.938      858.632
03/30/2014  15:32:00     -382.891      -42.588       -0.551      237.969      209.003       94.036    56629.281    43682.254     8842.688       12.877        5.458      385.253      107.568        0.078      336.763        8.282      858.661
03/30/2014  15:33:00     -450.484     -242.700      -21.051      232.127      189.092       98.789    53883.045    35755.913     9759.321       18.082        4.970      511.702      104.862        0.042      336.732        8.229      858.652
03/30/2014  15:34:00     -370.717     -193.141       13.928      220.022      173.483      110.204    48409.805    30096.340    12144.993       13.277        4.533      418.013      131.760        0.099      336.768        8.289      858.648
03/30/2014  15:35:00     -428.187     -313.837        0.803      266.143      184.276      107.788    70832.146    33957.747    11618.358       19.910        5.820      530.884      122.588        0.053      336.741        8.243      858.629
03/30/2014  15:36:00     -385.339     -190.408        8.513      259.546      213.801      125.933    67364.362    45710.849    15859.207       15.685        6.447      429.815      135.516        0.099      336.618        8.038      858.609
03/30/2014  15:37:00     -329.040     -200.108       16.787      225.129      182.508       96.385    50683.246    33309.066     9289.974       12.092        4.664      385.111      104.966        0.074      336.642        8.078      858.602
03/30/2014  15:38:00     -299.420     -123.694       10.551      279.263      206.260      124.984    77987.962    42543.276    15621.018       12.058        6.808      323.964      130.067        0.161      336.664        8.114      858.579
03/30/2014  15:39:00     -502.097     -158.968       -9.095      270.711      211.525      107.955    73284.566    44742.677    11654.188       20.354        6.484      526.662      127.091        0.058      336.578        7.972      858.603
03/30/2014  15:40:00     -524.999     -294.196      -21.148      266.354      212.513      117.752    70944.489    45161.916    13865.634       24.627        6.499      601.810      125.505        0.043      336.476        7.799      858.577
03/30/2014  15:41:00     -451.905     -194.890        1.847      229.779      231.868      106.517    52798.480    53762.666    11345.883       18.003        5.895      492.138      108.225        0.048      336.561        7.943      858.567
03/30/2014  15:42:00     -490.120     -363.206      -10.588      384.092      239.532      142.326   147526.452    57375.699    20256.717       29.866       11.258      610.029      189.245        0.096      336.373        7.628      858.531
03/30/2014  15:43:00     -433.596     -262.501      -26.660      257.786      204.706      104.713    66453.779    41904.409    10964.825       18.845        5.966      506.865      125.076        0.061      336.475        7.798      858.546
03/30/2014  15:44:00     -406.785     -107.012      -30.702      252.180      114.231       81.413    63594.864    13048.745     6628.003       13.055        4.164      420.625       96.775        0.053      336.526        7.884      858.571
03/30/2014  15:45:00     -460.552     -207.855      -33.141      246.620      158.084       96.115    60821.254    24990.402     9238.179       17.571        4.752      505.284      112.134        0.049      336.548        7.921      858.583
03/30/2014  15:46:00     -569.446     -196.021      -21.488      259.602      188.224      101.690    67393.348    35428.251    10340.835       23.814        5.658      602.240      101.407        0.028      336.520        7.873      858.544
03/30/2014  15:47:00     -665.630     -345.584      -19.901      330.922      241.761      125.449   109509.671    58448.368    15737.523       37.325        9.185      749.994      140.426        0.035      336.307        7.516      858.505
03/30/2014  15:48:00     -538.457     -267.713      -29.169      287.286      245.640      130.977    82533.419    60339.112    17155.064       26.121        8.001      601.337      137.975        0.053      336.450        7.757      858.515
03/30/2014  15:49:00     -257.814      -69.671       25.221      262.368      200.908      116.243    68836.822    40364.104    13512.496        9.731        6.136      267.062      136.965        0.263      336.670        8.126      858.527
03/30/2014  15:50:00     -403.372     -222.616      -13.515      180.080      161.332      103.219    32428.873    26027.902    10654.095       14.077        3.456      460.724      104.616        0.052      336.638        8.071      858.583
03/30/2014  15:51:00     -341.685     -238.985       -3.664      199.336      151.501      105.728    39734.942    22952.600    11178.406       12.386        3.693      416.968      109.363        0.069      336.631        8.060      858.589
03/30/2014  15:52:00     -373.328     -113.695       -1.711      247.192      157.227       93.117    61103.656    24720.463     8670.727       12.338        4.725      390.257      109.359        0.079      336.693        8.166      858.617
03/30/2014  15:53:00     -345.405      -73.625      -19.046      218.415      209.918       96.798    47705.054    44065.421     9369.824       11.309        5.057      353.165       92.446        0.069      336.710        8.191      858.636
03/30/2014  15:54:00     -633.019     -147.530      -20.087      296.881      224.036      114.387    88138.263    50192.078    13084.374       28.712        7.571      649.983      143.933        0.049      336.458        7.768      858.608
03/30/2014  15:55:00     -503.337      -51.016      -21.357      215.722      134.532       98.649    46536.114    18098.774     9731.552       16.537        3.718      505.916      107.318        0.045      336.455        7.764      858.645
03/30/2014  15:56:00     -369.705      -59.963        4.538      188.397      143.960       94.242    35493.441    20724.482     8881.488       10.269        3.255      374.536       92.444        0.061      336.608        8.021      858.681
03/30/2014  15:57:00     -327.181      -74.735       -9.214      140.007      162.601       70.730    19601.835    26439.048     5002.707        8.187        2.552      335.608       60.459        0.032      336.685        8.149      858.689
03/30/2014  15:58:00     -310.205      -71.506       -9.517      239.704      148.179      102.903    57458.145    21956.998    10589.040        9.570        4.500      318.340      107.550        0.114      336.676        8.134      858.687
03/30/2014  15:59:00     -419.663      -45.384      -16.749      255.514      157.029       95.827    65287.645    24658.012     9182.794       13.877        4.956      422.109      122.195        0.084      336.521        7.877      858.714
03/30/2014  16:00:00     -424.569      -20.001      -26.109      231.506      131.428       75.644    53594.858    17273.328     5722.037       12.895        3.830      425.040       92.505        0.047      336.582        7.978      858.714
03/30/2014  16:01:00     -493.601      -70.831      -31.897      222.297      178.761       90.516    49415.988    31955.652     8193.217       16.960        4.478      498.657      100.337        0.040      336.509        7.856      858.689
03/30/2014  16:02:00     -242.768       25.031       -7.388      142.555      153.206       67.650    20321.906    23472.160     4576.587        5.398        2.419      244.055       54.313        0.050      336.799        8.339      858.678
03/30/2014  16:03:00     -236.770      -84.652       -2.177      216.255      155.012       86.732    46766.399    24028.666     7522.394        7.076        3.916      251.448      100.753        0.161      336.780        8.309      858.638
03/30/2014  16:04:00     -372.646     -150.540      -10.961      196.885      212.120       97.203    38763.821    44994.916     9448.415       12.741        4.660      401.904      101.527        0.064      336.605        8.016      858.621
03/30/2014  16:05:00     -238.501      -85.409       -4.422      169.995      173.301       76.751    28898.216    30033.127     5890.675        6.450        3.241      253.332       82.359        0.106      336.788        8.321      858.646
03/30/2014  16:06:00     -233.552      -92.431       -8.706      211.296      149.333       81.612    44645.916    22300.296     6660.472        6.837        3.680      251.177       88.343        0.124      336.887        8.488      858.588
03/30/2014  16:07:00     -474.862     -171.239        2.360      309.077      163.266      104.663    95528.885    26655.908    10954.265       19.395        6.657      504.794      120.484        0.057      336.567        7.953      858.582
03/30/2014  16:08:00     -390.558     -256.244       -2.265      306.467      203.705      133.578    93921.825    41495.660    17843.149       18.570        7.663      467.115      151.576        0.105      336.554        7.929      858.537
03/30/2014  16:09:00     -335.589     -107.663      -11.994      240.193      199.773      115.851    57692.821    39909.160    13421.377       11.767        5.551      352.436      135.240        0.147      336.606        8.018      858.498
03/30/2014  16:10:00     -382.338      -22.520        9.656      250.881      186.567      104.942    62941.299    34807.093    11012.734       12.775        5.438      383.001      123.114        0.103      336.665        8.117      858.542
03/30/2014  16:11:00     -367.691      -70.955        1.557      157.368      127.172       83.510    24764.746    16172.810     6973.954        9.406        2.396      374.474       84.609        0.051      336.781        8.309      858.565
03/30/2014  16:12:00     -499.272     -231.355      -19.490      227.978      185.342       80.204    51974.155    34351.574     6432.753       19.795        4.638      550.270       82.500        0.022      336.478        7.804      858.559
03/30/2014  16:13:00     -376.271     -120.518      -15.503      206.329      194.813       92.569    42571.732    37951.962     8568.989       12.270        4.455      395.100      102.708        0.068      336.671        8.128      858.547
03/30/2014  16:14:00     -278.794      -81.510       10.869      207.775      156.926       94.485    43170.368    24625.786     8927.433        8.059        3.836      290.465      113.469        0.153      336.714        8.199      858.543
03/30/2014  16:15:00     -535.287     -170.799      -16.479      255.912      196.084      101.644    65490.980    38449.055    10331.590       21.510        5.714      561.875      114.441        0.041      336.509        7.855      858.524
03/30/2014  16:16:00     -428.930     -133.085       -2.470      192.236      149.847       92.029    36954.529    22454.071     8469.413       13.477        3.394      449.102       80.176        0.032      336.517        7.870      858.493
03/30/2014  16:17:00     -343.563        6.479      -15.113      139.010      137.491       69.505    19323.771    18903.782     4830.957        8.067        2.153      343.624       67.714        0.039      336.683        8.147      858.484
03/30/2014  16:18:00     -380.077      -43.473       -6.872      246.757      152.593       69.795    60889.178    23284.580     4871.336       11.770        4.452      382.555       83.803        0.048      336.742        8.246      858.447
03/30/2014  16:19:00     -483.043      -71.389       14.722      270.511      186.028      115.628    73175.997    34606.434    13369.728       17.987        6.058      488.290      138.421        0.080      336.620        8.041      858.346
03/30/2014  16:20:00     -498.541     -108.437      -24.441      197.379      168.078       91.085    38958.528    28250.211     8296.436       16.819        3.775      510.198       94.017        0.034      336.686        8.151      858.384
03/30/2014  16:21:00     -519.697      -83.361      -33.193      164.530      177.195       85.059    27070.261    31397.963     7234.969       17.191        3.285      526.340       76.283        0.021      336.560        7.942      858.379
03/30/2014  16:22:00     -582.235     -149.138       -8.344      259.698      260.609      105.938    67442.805    67917.136    11222.870       25.392        7.329      601.033      132.307        0.048      336.589        7.989      858.361
03/30/2014  16:23:00     -347.409     -203.964       19.963      285.738      199.466      125.894    81646.231    39786.773    15849.337       14.996        6.864      402.858      150.084        0.139      336.666        8.118      858.337
03/30/2014  16:24:00     -322.499      -32.465      -10.495      249.159      187.515       96.637    62080.123    35161.942     9338.729       10.585        5.329      324.129      103.038        0.101      336.685        8.149      858.325
03/30/2014  16:25:00     -231.103       31.330        6.939      233.265      151.970       93.077    54412.618    23095.004     8663.321        7.029        4.309      233.217      102.817        0.194      336.828        8.389      858.347
03/30/2014  16:26:00     -317.750      -59.094       14.855      325.157      175.575      113.427   105727.400    30826.535    12865.660       12.702        7.471      323.198      143.248        0.196      336.873        8.464      858.363
03/30/2014  16:27:00     -509.249     -115.071      -14.122      243.105      167.583      100.363    59099.920    28084.083    10072.670       18.500        4.863      522.088      123.545        0.056      336.602        8.011      858.335
03/30/2014  16:28:00     -261.009     -120.269        2.049      170.930      152.352       73.216    29217.027    23211.133     5360.570        7.018        2.889      287.385       78.302        0.074      336.780        8.309      858.365
03/30/2014  16:29:00     -469.842     -103.819       -3.066      234.089      205.172       96.353    54797.456    42095.620     9283.848       16.884        5.309      481.176      102.978        0.046      336.735        8.234      858.322
03/30/2014  16:30:00     -334.586     -191.013        9.625      279.757      230.181      120.797    78264.138    52983.082    14591.965       14.715        7.292      385.271      126.143        0.107      336.765        8.283      858.297
03/30/2014  16:31:00     -360.329     -104.193        4.911      244.297      204.341      102.359    59681.136    41755.187    10477.462       12.629        5.596      375.090      128.009        0.116      336.835        8.400      858.318
03/30/2014  16:32:00     -649.264     -103.708      -32.441      276.410      244.687      111.200    76402.525    59871.606    12365.470       29.097        7.432      657.494      122.102        0.034      336.676        8.134      858.281
03/30/2014  16:33:00     -552.256     -106.545      -18.586      200.855      206.925       97.340    40342.739    42817.808     9475.053       20.464        4.632      562.440       98.299        0.031      336.644        8.080      858.322
03/30/2014  16:34:00     -393.770     -294.728       -4.681      233.134      189.568      115.090    54351.360    35936.095    13245.630       17.272        5.177      491.853      120.820        0.060      336.692        8.162      858.289
03/30/2014  16:35:00     -299.220     -218.215       13.993      240.371      189.881      113.864    57778.116    36054.822    12965.048       12.205        5.340      370.338      139.797        0.142      336.767        8.287      858.304
03/30/2014  16:36:00     -486.075     -165.455      -23.418      203.093      193.112      108.635    41246.858    37292.138    11801.545       17.725        4.517      513.463      106.891        0.043      336.744        8.248      858.254
03/30/2014  16:37:00     -564.072     -265.361      -15.734      301.322      223.825      120.017    90794.963    50097.465    14404.120       27.204        7.765      623.373      135.879        0.048      336.580        7.975      858.231
03/30/2014  16:38:00     -491.948     -394.854      -22.026      335.428      265.087      128.676   112512.080    70271.306    16557.497       29.883        9.967      630.811      139.073        0.049      336.611        8.026      858.183
03/30/2014  16:39:00     -455.433     -249.403      -19.407      246.461      159.837       97.545    60743.148    25548.007     9515.056       18.288        4.790      519.250       95.987        0.034      336.721        8.210      858.182
03/30/2014  16:40:00     -415.591     -109.942       -1.097      296.539      197.055      103.960    87935.295    38830.813    10807.601       16.116        6.879      429.888      134.995        0.099      336.795        8.335      858.186
03/30/2014  16:41:00     -355.620     -227.523       -2.080      230.398      176.371       99.567    53083.419    31106.840     9913.680       13.615        4.705      422.176      112.750        0.071      336.894        8.499      858.173
03/30/2014  16:42:00     -627.974     -166.793      -26.424      250.306      206.204      110.889    62652.924    42520.182    12296.285       27.015        5.873      649.747      107.289        0.027      336.683        8.147      858.183
03/30/2014  16:43:00     -573.454     -197.868      -22.169      250.249      158.591      105.363    62624.796    25151.123    11101.383       23.367        4.944      606.631      105.450        0.030      336.702        8.178      858.189
03/30/2014  16:44:00     -235.557     -194.623       15.654      272.644      186.051      111.498    74335.011    34615.086    12431.759       10.747        6.069      305.557      134.545        0.194      336.877        8.471      858.181
03/30/2014  16:45:00     -404.405     -124.255        6.616      189.654      239.977      103.335    35968.607    57589.107    10678.020       14.161        5.212      423.063      101.657        0.058      336.814        8.365      858.182
03/30/2014  16:46:00     -420.504     -269.779       -2.544      256.148      242.877      114.864    65611.916    58989.184    13193.718       19.367        6.890      499.604      114.560        0.053      336.672        8.128      858.187
03/30/2014  16:47:00     -319.027     -272.723       22.592      280.477      247.823      149.666    78667.177    61416.163    22399.959       16.954        8.124      419.710      178.658        0.181      336.737        8.236      858.158
03/30/2014  16:48:00     -402.446     -310.549       -2.050      303.147      218.346      136.652    91898.059    47674.784    18673.642       20.830        7.912      508.334      158.185        0.097      336.790        8.324      858.175
03/30/2014  16:49:00     -432.689     -216.605       -6.124      312.861      213.451      133.564    97882.037    45561.320    17839.321       19.770        8.064      483.878      169.203        0.122      336.709        8.191      858.248
03/30/2014  16:50:00     -459.469      -81.803        3.614      221.808      228.259      103.779    49198.595    52102.006    10770.060       16.492        5.604      466.695      112.514        0.058      336.749        8.256      858.260
03/30/2014  16:51:00     -433.734     -136.121      -14.749      262.373      211.310      102.511    68839.459    44651.993    10508.484       16.541        6.200      454.592      107.832        0.056      336.790        8.326      858.320
03/30/2014  16:52:00     -265.708      -83.984       -0.002      211.501      181.904      105.379    44732.823    33088.904    11104.784        8.327        4.446      278.665       91.870        0.109      336.839        8.406      858.290
03/30/2014  16:53:00     -292.516     -105.994        9.753      151.780      142.699       85.304    23037.274    20362.918     7276.730        7.378        2.534      311.127       81.286        0.068      336.894        8.498      858.340
03/30/2014  16:54:00     -575.765     -170.390      -19.578      280.436      209.288      100.073    78644.081    43801.363    10014.683       24.666        6.623      600.448      117.659        0.038      336.618        8.038      858.348
03/30/2014  16:55:00     -291.403     -215.238       11.214      281.757      230.316      120.535    79387.233    53045.594    14528.593       13.914        7.348      362.275      144.271        0.159      336.660        8.108      858.345
03/30/2014  16:56:00     -332.855     -134.058        0.487      197.097      131.366       85.887    38847.048    17256.927     7376.641        9.611        3.174      358.837       97.489        0.074      336.719        8.206      858.361
03/30/2014  16:57:00     -341.174     -109.446        2.373      237.920      189.295       98.519    56606.124    35832.537     9705.970       11.524        5.107      358.299      116.884        0.106      336.718        8.206      858.345
03/30/2014  16:58:00     -344.922     -245.639       -0.737      263.799      186.197      128.337    69590.036    34669.257    16470.409       15.000        6.036      423.450      149.097        0.124      336.643        8.079      858.331
03/30/2014  16:59:00     -385.317     -111.467        7.913      239.656      206.938      106.871    57434.770    42823.539    11421.433       13.630        5.584      401.116      115.383        0.083      336.682        8.144      858.328
03/30/2014  17:00:00     -513.453     -172.101      -16.431      179.832      195.957       92.161    32339.505    38399.175     8493.581       18.636        3.962      541.528       88.864        0.027      336.619        8.040      858.367
03/30/2014  17:01:00     -468.581     -200.950       -2.647      266.888      224.323      104.065    71229.139    50320.904    10829.607       19.614        6.619      509.852      122.514        0.058      336.570        7.957      858.355
03/30/2014  17:02:00     -323.476     -233.056        3.562      236.482      163.928       90.087    55923.728    26872.353     8115.629       12.492        4.546      398.688      103.829        0.068      336.575        7.966      858.357
03/30/2014  17:03:00     -412.063     -168.283       -5.567      203.255      136.932       93.276    41312.770    18750.395     8700.374       13.344        3.438      445.101      106.253        0.057      336.706        8.185      858.391
03/30/2014  17:04:00     -428.416     -265.163      -16.227      239.313      183.393       88.977    57270.735    33633.066     7916.853       17.645        4.941      503.837      107.583        0.046      336.649        8.089      858.398
03/30/2014  17:05:00     -391.198      -31.972      -15.972      166.339      147.530       75.986    27668.726    21765.001     5773.860       10.475        2.760      392.502       75.388        0.037      336.731        8.226      858.401
03/30/2014  17:06:00     -330.532     -206.367       -6.887      190.164      189.235      102.581    36162.224    35809.873    10522.963       11.717        4.125      389.665       93.640        0.058      336.675        8.132      858.387
03/30/2014  17:07:00     -553.511      -97.798      -44.224      239.756      204.670       90.797    57482.904    41889.626     8244.147       21.273        5.381      562.084       94.694        0.028      336.594        7.997      858.403
03/30/2014  17:08:00     -324.373       31.357       18.347      189.340      139.025       96.360    35849.814    19328.087     9285.328        8.549        3.223      325.885       99.241        0.093      336.799        8.340      858.408
03/30/2014  17:09:00     -322.861     -156.504       -9.746      186.899      167.351       81.039    34931.121    28006.510     6567.288        9.915        3.475      358.794       85.776        0.057      336.793        8.329      858.395
03/30/2014  17:10:00     -380.164     -249.649       -3.221      284.299      188.506      123.604    80825.980    35534.457    15278.049       16.922        6.582      454.806      148.425        0.107      336.708        8.188      858.373
03/30/2014  17:11:00     -526.876     -327.632      -22.548      278.175      191.378      120.167    77381.210    36625.484    14440.200       25.692        6.422      620.436      138.681        0.050      336.530        7.891      858.340
03/30/2014  17:12:00     -502.977     -240.299      -17.626      263.766      219.023      100.909    69572.293    47971.068    10182.595       21.936        6.386      557.431      127.551        0.052      336.576        7.966      858.329
03/30/2014  17:13:00     -317.041     -192.874       -3.098      203.528      140.966       82.008    41423.830    19871.479     6725.358       10.286        3.401      371.101       97.509        0.069      336.699        8.172      858.341
03/30/2014  17:14:00     -317.875     -206.071       -2.002      246.761      178.283      108.878    60891.092    31784.858    11854.347       12.400        5.227      378.827      127.302        0.113      336.798        8.337      858.334
03/30/2014  17:15:00     -490.070     -143.641      -28.698      260.306      195.659      108.721    67759.001    38282.348    11820.148       18.972        5.893      510.687      127.507        0.062      336.703        8.180      858.311
03/30/2014  17:16:00     -331.215     -239.240        7.098      261.018      194.117      118.052    68130.583    37681.597    13936.186       14.334        5.987      408.582      147.313        0.130      336.837        8.404      858.330
03/30/2014  17:17:00     -469.488     -295.087      -12.755      243.280      197.623       98.649    59185.280    39055.025     9731.719       20.779        5.399      554.523      114.766        0.043      336.559        7.937      858.354
03/30/2014  17:18:00     -436.771     -280.675      -20.917      296.373      205.354      124.477    87837.158    42170.142    15494.473       20.771        7.275      519.179      132.820        0.065      336.711        8.193      858.349
03/30/2014  17:19:00     -437.536     -243.420      -15.132      243.121      181.041      100.276    59107.982    32775.735    10055.334       17.641        5.097      500.691      118.594        0.056      336.776        8.302      858.387
03/30/2014  17:20:00     -446.830     -318.918      -18.956      229.506      191.719      116.914    52673.005    36756.358    13668.999       20.239        5.155      548.968      112.749        0.042      336.719        8.206      858.363
03/30/2014  17:21:00     -481.762     -281.214       -1.580      275.162      193.524      109.491    75714.166    37451.534    11988.229       21.814        6.258      557.832      105.310        0.036      336.673        8.130      858.380
03/30/2014  17:22:00     -399.528     -243.979       -9.554      250.843      219.166      122.489    62922.288    48033.590    15003.561       17.257        6.298      468.133      133.681        0.082      336.688        8.153      858.396
03/30/2014  17:23:00     -310.804     -220.733        5.414      255.126      202.969      111.686    65089.324    41196.279    12473.660       13.203        5.938      381.211      134.562        0.125      336.775        8.300      858.404
03/30/2014  17:24:00     -621.108     -357.893      -20.680      251.523      182.326      117.721    63263.962    33242.840    13858.155       31.231        5.518      716.842      122.484        0.029      336.641        8.076      858.389
03/30/2014  17:25:00     -607.722     -312.897      -14.658      298.188      215.963      125.754    88916.057    46639.803    15814.022       30.938        7.568      683.543      153.126        0.050      336.531        7.891      858.393
03/30/2014  17:26:00     -505.404     -143.570      -24.706      282.441      181.509      113.046    79772.964    32945.574    12779.289       20.105        6.275      525.400      121.857        0.054      336.627        8.053      858.386
03/30/2014  17:27:00     -440.659     -233.254       -3.163      230.980      184.252       99.816    53351.704    33948.760     9963.144       17.291        4.863      498.586      118.579        0.057      336.569        7.956      858.398
03/30/2014  17:28:00     -317.495     -221.998       19.929      215.715      191.247      114.873    46532.905    36575.318    13195.872       12.337        4.815      387.410      132.064        0.116      336.604        8.014      858.373
03/30/2014  17:29:00     -492.726     -107.489      -11.084      313.171      259.738      111.671    98076.265    67463.708    12470.392       21.620        8.901      504.314      136.312        0.073      336.653        8.096      858.353
03/30/2014  17:30:00     -354.015     -145.307       -9.786      231.921      170.478       86.565    53787.434    29062.768     7493.543       11.842        4.517      382.676       99.404        0.067      336.664        8.114      858.356
03/30/2014  17:31:00     -496.341     -164.980      -26.483      179.257      192.489       89.789    32132.939    37052.146     8062.019       17.575        3.862      523.042      104.341        0.040      336.678        8.139      858.365
03/30/2014  17:32:00     -523.231     -315.492      -14.986      257.937      196.421      111.995    66531.454    38581.323    12542.948       24.557        5.883      610.987      124.059        0.041      336.538        7.904      858.365
03/30/2014  17:33:00     -246.736     -211.780      -12.251      199.818      166.348      101.263    39927.263    27671.524    10254.133        9.185        3.893      325.161      103.391        0.101      336.708        8.189      858.341
03/30/2014  17:34:00     -497.753     -274.229      -24.480      232.113      166.209       93.408    53876.269    27625.359     8725.083       20.688        4.511      568.296       80.722        0.020      336.684        8.148      858.356
03/30/2014  17:35:00     -465.816     -279.887      -19.732      204.513      191.232       96.454    41825.722    36569.559     9303.418       19.169        4.385      543.434       81.387        0.022      336.547        7.920      858.382
03/30/2014  17:36:00     -476.599     -273.017      -21.212      219.860      173.826       97.541    48338.553    30215.449     9514.172       19.508        4.403      549.259       62.230        0.013      336.629        8.055      858.385
03/30/2014  17:37:00     -317.691     -266.873        0.574      235.068      170.607      102.990    55256.856    29106.850    10606.893       13.354        4.749      414.909      120.032        0.084      336.641        8.077      858.396
03/30/2014  17:38:00     -314.922     -227.172       -3.499      194.560      130.512       87.195    37853.404    17033.356     7602.958       10.663        3.124      388.309       76.473        0.039      336.633        8.063      858.421
03/30/2014  17:39:00     -465.243     -237.207       -5.684      207.823      179.682       84.745    43190.550    32285.693     7181.742       17.769        4.133      522.224       89.425        0.029      336.620        8.040      858.427
03/30/2014  17:40:00     -346.373     -202.795      -18.947      182.458      129.024       80.540    33290.895    16647.156     6486.721       10.893        2.821      401.373       82.975        0.043      336.816        8.369      858.442
03/30/2014  17:41:00     -203.067     -116.814       21.985      163.830      102.259       77.967    26840.206    10456.996     6078.859        4.936        2.169      234.268       86.325        0.136      336.980        8.645      858.456
03/30/2014  17:42:00     -164.828      -47.611       25.886      171.313      107.042       70.629    29348.088    11457.894     4988.407        3.794        2.290      171.566       72.789        0.180      337.081        8.813      858.452
03/30/2014  17:43:00     -208.065      -33.404       28.228      207.856      146.681       86.557    43203.917    21515.449     7492.195        5.869        3.611      210.729      100.907        0.229      337.043        8.749      858.450
03/30/2014  17:44:00     -376.383     -183.356       -7.155      218.741      201.341       98.921    47847.795    40538.202     9785.275       13.673        4.909      418.669       99.908        0.057      336.891        8.494      858.477
03/30/2014  17:45:00     -362.400     -240.174        5.348      240.469      178.689       99.702    57825.384    31929.818     9940.397       14.435        4.985      434.761      121.586        0.078      336.735        8.233      858.477
03/30/2014  17:46:00     -477.674     -124.850      -29.038      230.050      231.713      104.502    52923.165    53691.029    10920.766       18.105        5.877      493.720      120.176        0.059      336.794        8.331      858.482
03/30/2014  17:47:00     -387.141     -190.205      -13.707      216.141      202.115      100.897    46716.769    40850.313    10180.138       14.198        4.887      431.342       97.627        0.051      336.768        8.289      858.462
03/30/2014  17:48:00     -410.076     -109.454      -14.634      292.600      178.317       89.430    85614.501    31796.972     7997.651       15.286        6.270      424.432      120.319        0.080      336.813        8.364      858.458
03/30/2014  17:49:00     -386.789     -112.798       -7.457      216.413      160.379       83.687    46834.417    25721.564     7003.543       12.096        3.978      402.901      105.155        0.068      336.833        8.396      858.476
03/30/2014  17:50:00     -406.884     -123.279      -21.142      219.853      152.103       77.726    48335.516    23135.468     6041.333       12.934        3.876      425.150       94.550        0.049      336.892        8.494      858.469
03/30/2014  17:51:00     -337.727     -291.966       11.684      199.542      214.674      112.071    39817.104    46084.844    12560.019       14.893        4.923      446.434      122.222        0.075      336.710        8.192      858.471
03/30/2014  17:52:00     -341.342     -249.188       -5.706      195.792      155.106       85.933    38334.390    24057.860     7384.418       12.420        3.489      422.622       95.691        0.051      336.706        8.186      858.466
03/30/2014  17:53:00     -328.516     -165.897       -1.435      195.049      168.230       89.513    38044.165    28301.233     8012.508       10.489        3.718      368.028       87.015        0.056      336.758        8.271      858.470
03/30/2014  17:54:00     -398.367      -80.306        5.903      244.231      139.247       96.529    59648.603    19389.675     9317.900       12.675        4.418      406.381      119.239        0.086      336.626        8.051      858.464
03/30/2014  17:55:00     -316.963     -209.478      -14.261      148.243      150.736       75.141    21976.099    22721.275     5646.098        9.744        2.517      379.930       90.707        0.057      336.689        8.157      858.463
03/30/2014  17:56:00     -243.643     -152.203       -5.520      197.451      159.342      100.214    38987.064    25389.755    10042.839        7.847        3.721      287.277      107.455        0.140      336.822        8.378      858.452
03/30/2014  17:57:00     -565.562     -320.264      -25.645      252.956      239.924      120.652    63986.712    57563.754    14556.850       27.957        6.805      649.945      127.219        0.038      336.427        7.717      858.440
03/30/2014  17:58:00     -419.221     -273.692      -25.943      264.128      195.601      105.903    69763.772    38259.878    11215.381       18.526        5.962      500.653      108.041        0.047      336.445        7.748      858.448
03/30/2014  17:59:00     -487.543     -297.792        0.612      286.209      232.907      126.831    81915.692    54245.614    16086.221       23.928        7.612      571.295      142.467        0.062      336.315        7.530      858.412
03/30/2014  18:00:00     -478.302     -240.884      -10.664      267.333      239.914      107.463    71466.976    57558.729    11548.403       21.371        7.029      535.535      111.583        0.043      336.377        7.635      858.411
03/30/2014  18:01:00     -449.737     -259.914      -26.550      263.362      222.055      103.269    69359.673    49308.557    10664.564       19.990        6.467      519.441      122.013        0.055      336.378        7.636      858.432
03/30/2014  18:02:00     -428.121     -165.860       -5.220      245.721      197.332       95.903    60378.698    38939.781     9197.449       15.965        5.426      459.127       99.081        0.047      336.397        7.667      858.407
03/30/2014  18:03:00     -273.012     -161.986       20.915      241.942      207.228      102.149    58536.111    42943.253    10434.380       10.654        5.596      317.451      117.367        0.137      336.498        7.836      858.375
03/30/2014  18:04:00     -485.688     -211.555       -9.331      301.283      263.654      134.626    90771.696    69513.203    18124.149       22.954        8.920      529.763      150.860        0.081      336.330        7.556      858.358
03/30/2014  18:05:00     -391.977     -168.388        6.761      262.836      205.416      116.411    69082.927    42195.675    13551.467       15.341        6.242      426.615      139.398        0.107      336.369        7.621      858.371
03/30/2014  18:06:00     -484.795     -172.701       -3.965      249.663      167.720      103.648    62331.390    28129.837    10742.929       18.302        5.060      514.638      126.973        0.061      336.323        7.545      858.364
03/30/2014  18:07:00     -451.446     -176.874      -15.207      217.320      219.200       99.401    47228.124    48048.527     9880.480       17.022        5.258      484.858      102.038        0.044      336.270        7.455      858.338
03/30/2014  18:08:00     -469.902     -254.662      -21.221      190.614      174.789      107.993    36333.588    30551.362    11662.548       18.231        3.927      534.472      108.565        0.041      336.291        7.491      858.345
03/30/2014  18:09:00     -271.373     -181.073       14.819      215.449      168.395      103.103    46418.348    28357.039    10630.168        9.601        4.270      326.237      106.477        0.107      336.422        7.708      858.360
03/30/2014  18:10:00     -339.274     -290.328       -1.768      228.429      133.044       93.950    52179.819    17700.689     8826.591       13.904        3.935      446.539      105.804        0.056      336.404        7.679      858.343
03/30/2014  18:11:00     -419.235     -234.596      -15.753      262.034      181.745      108.213    68661.615    33031.220    11709.995       17.220        5.670      480.409      112.711        0.055      336.398        7.669      858.338
03/30/2014  18:12:00     -293.332     -171.576        6.241      245.901      186.291      133.413    60467.517    34704.267    17799.022       11.422        5.649      339.827      139.304        0.168      336.447        7.751      858.347
03/30/2014  18:13:00     -429.854     -203.608      -15.012      249.101      224.718      113.140    62051.128    50498.115    12800.699       17.588        6.267      475.637      123.839        0.068      336.344        7.578      858.374
03/30/2014  18:14:00     -411.667     -240.562       -2.704      263.361      209.941      127.184    69358.766    44075.385    16175.793       17.845        6.480      476.801      144.161        0.091      336.277        7.466      858.345
03/30/2014  18:15:00     -570.552     -109.168      -13.394      232.110      151.714      104.910    53874.926    23017.257    11006.048       21.274        4.395      580.902      125.449        0.047      336.281        7.475      858.396
03/30/2014  18:16:00     -337.829     -257.495      -11.063      213.377      177.791      111.708    45529.821    31609.800    12478.632       13.507        4.481      424.773      113.268        0.071      336.396        7.665      858.423
03/30/2014  18:17:00     -628.177     -365.247      -15.694      308.539      233.041      122.145    95196.299    54308.090    14919.322       34.631        8.221      726.644      138.215        0.036      336.174        7.296      858.439
03/30/2014  18:18:00     -606.753     -251.476        0.554      243.389      187.477      110.769    59237.997    35147.751    12269.792       26.900        5.333      656.803      119.995        0.033      336.105        7.179      858.457
03/30/2014  18:19:00     -499.979     -314.338        1.218      307.398      194.483      116.642    94493.438    37823.668    13605.320       24.733        7.296      590.582      147.645        0.062      336.117        7.200      858.498
03/30/2014  18:20:00     -561.176     -293.240      -17.170      270.704      193.072      109.080    73280.439    37276.793    11898.390       26.180        6.123      633.173      128.238        0.041      336.031        7.056      858.471
03/30/2014  18:21:00     -522.098     -268.103      -16.820      303.627      251.091      141.657    92189.236    63046.933    20066.652       25.999        8.765      586.912      157.912        0.072      335.999        7.004      858.508
03/30/2014  18:22:00     -318.182     -155.847       11.427      265.463      213.098      121.151    70470.644    45410.823    14677.600       12.808        6.528      354.299      146.563        0.171      336.057        7.100      858.535
03/30/2014  18:23:00     -474.342     -197.244      -22.156      218.445      176.233      102.262    47718.127    31058.100    10457.451       17.680        4.462      513.718      112.984        0.048      335.956        6.932      858.557
03/30/2014  18:24:00     -416.045      -14.761      -17.130      201.394      163.388       88.466    40559.615    26695.536     7826.316       12.433        3.754      416.307       78.357        0.035      335.944        6.912      858.570
03/30/2014  18:25:00     -643.028     -233.424      -41.644      276.879      261.115      108.486    76662.039    68180.982    11769.155       31.313        7.831      684.085      114.415        0.028      335.727        6.549      858.554
03/30/2014  18:26:00     -480.033     -295.673      -19.229      271.751      188.943      121.200    73848.737    35699.533    14689.446       22.121        6.212      563.785      136.739        0.059      335.743        6.576      858.526
03/30/2014  18:27:00     -460.033     -110.286      -29.685      251.358      184.862       88.912    63180.844    34174.017     7905.393       16.495        5.263      473.068       95.511        0.041      335.733        6.560      858.540
03/30/2014  18:28:00     -298.763     -105.804        7.936      207.453      142.445       83.973    43036.596    20290.663     7051.505        8.543        3.519      316.944       85.551        0.073      335.805        6.681      858.544
03/30/2014  18:29:00     -409.871     -130.558      -15.469      213.268      182.649       81.489    45483.379    33360.782     6640.442       13.536        4.274      430.163       74.160        0.030      335.713        6.527      858.545
03/30/2014  18:30:00     -421.627      -31.386       -7.955      246.753      202.791      108.831    60887.024    41124.047    11844.250       14.631        5.693      422.794      118.701        0.079      335.679        6.469      858.516
03/30/2014  18:31:00     -373.468     -125.072       -6.305      176.986      172.228       81.484    31323.936    29662.650     6639.606       11.138        3.381      393.855       85.246        0.047      335.748        6.584      858.515
03/30/2014  18:32:00     -616.846     -114.644      -24.583      230.032      177.345      103.164    52914.631    31451.361    10642.725       24.461        4.750      627.409      109.579        0.031      335.649        6.419      858.497
03/30/2014  18:33:00     -478.813      -37.480      -22.872      276.135      145.405      103.152    76250.751    21142.739    10640.345       16.959        5.402      480.277      121.516        0.064      335.724        6.545      858.487
03/30/2014  18:34:00     -638.335       31.408      -30.374      228.576      199.564      103.953    52246.958    39825.598    10806.237       25.611        5.144      639.108      110.078        0.030      335.622        6.375      858.470
03/30/2014  18:35:00     -469.958     -183.522      -29.293      261.317      238.048      107.295    68286.702    56667.040    11512.293       19.591        6.823      504.521      105.374        0.044      335.640        6.406      858.433
03/30/2014  18:36:00     -294.803      -48.237      -12.132      156.786      119.597       70.903    24581.954    14303.399     5027.264        6.664        2.196      298.724       73.882        0.061      335.767        6.616      858.452
03/30/2014  18:37:00     -167.046      -85.836       22.367      180.578      172.898       89.842    32608.575    29893.793     8071.622        5.316        3.529      187.809      101.268        0.291      335.873        6.793      858.455
03/30/2014  18:38:00     -242.615     -113.414       -3.478      214.776      162.337       97.724    46128.749    26353.304     9549.927        7.687        4.102      267.815       89.532        0.112      335.847        6.750      858.470
03/30/2014  18:39:00     -460.700     -148.601       -0.423      337.418      178.326      126.653   113851.113    31800.176    16040.916       19.798        8.085      484.074      152.051        0.099      335.730        6.555      858.427
03/30/2014  18:40:00     -423.302     -225.751       -4.468      248.529      228.221      121.368    61766.588    52084.742    14730.260       17.935        6.429      479.738      121.081        0.064      335.701        6.506      858.441
03/30/2014  18:41:00     -424.624     -195.147       -8.868      214.485      202.535       78.595    46003.818    41020.619     6177.143       15.582        4.660      467.320       98.818        0.045      335.767        6.619      858.436
03/30/2014  18:42:00     -432.395     -188.569      -12.786      245.131      197.380       98.897    60089.123    38958.913     9780.659       16.574        5.441      471.724      112.260        0.057      335.837        6.733      858.459
03/30/2014  18:43:00     -643.319     -290.981      -37.424      222.686      175.532       95.927    49589.172    30811.540     9202.039       29.475        4.480      706.066      104.383        0.022      335.718        6.535      858.449
03/30/2014  18:44:00     -357.481      -80.175       10.105      197.561      165.620      100.875    39030.405    27429.876    10175.667       10.546        3.832      366.361       85.496        0.054      335.836        6.732      858.503
03/30/2014  18:45:00     -352.492      -53.176       10.269      229.683      158.854       86.119    52754.362    25234.476     7416.484       10.628        4.270      356.480       92.597        0.067      335.806        6.680      858.544
03/30/2014  18:46:00     -425.489     -245.876       -0.919      226.717      185.291      101.259    51400.759    34332.625    10253.451       16.872        4.799      491.422      113.325        0.053      335.752        6.591      858.544
03/30/2014  18:47:00     -511.282     -282.534      -35.194      195.562      190.616      111.227    38244.673    36334.600    12371.359       21.469        4.348      584.152      113.023        0.037      335.685        6.481      858.529
03/30/2014  18:48:00     -293.176     -117.437       -8.488      184.747      202.886       94.118    34131.442    41162.773     8858.261        9.197        4.208      315.822       89.618        0.081      335.763        6.612      858.526
03/30/2014  18:49:00     -290.642     -212.378       14.604      221.114      176.242      109.472    48891.445    31061.184    11984.225       11.085        4.597      359.968      119.855        0.111      335.750        6.590      858.504
03/30/2014  18:50:00     -603.721     -242.633      -18.267      257.948      216.731      100.188    66536.934    46972.450    10037.678       27.359        6.177      650.653      115.781        0.032      335.586        6.316      858.468
03/30/2014  18:51:00     -343.230      -39.725       -2.763      240.363      142.113       93.399    57774.562    20196.192     8723.304       10.303        4.335      345.521      103.601        0.090      335.718        6.535      858.472
03/30/2014  18:52:00     -510.125     -166.109      -17.596      205.849      211.562       91.586    42373.800    44758.376     8387.997       19.181        4.776      536.488       97.436        0.033      335.645        6.413      858.447
03/30/2014  18:53:00     -502.945     -122.381      -30.100      216.713      165.361       91.824    46964.608    27344.101     8431.664       17.577        4.137      517.620       93.287        0.032      335.659        6.436      858.447
03/30/2014  18:54:00     -364.821     -218.502       -5.488      226.837      177.691       98.112    51455.178    31574.157     9625.938       13.674        4.633      425.250      105.763        0.062      335.681        6.473      858.447
03/30/2014  18:55:00     -253.214     -167.847       13.449      208.727      171.712       90.187    43566.892    29484.946     8133.755        8.681        4.059      303.793       96.944        0.102      335.744        6.579      858.447
03/30/2014  18:56:00     -460.878     -271.453       -7.185      186.212      175.319       96.178    34675.028    30736.823     9250.113       18.039        3.733      534.878       84.356        0.025      335.607        6.351      858.458
03/30/2014  18:57:00     -343.628     -232.921       -1.576      178.781      155.954      100.812    31962.700    24321.719    10163.159       11.938        3.322      415.130      103.641        0.062      335.671        6.456      858.455
03/30/2014  18:58:00     -408.633     -153.025      -11.249      232.257      155.988       81.642    53943.540    24332.325     6665.379       13.772        4.247      436.346       63.882        0.021      335.633        6.393      858.473
03/30/2014  18:59:00     -319.417     -173.308       17.306      213.684      195.618       90.233    45660.968    38266.271     8141.980       11.220        4.603      363.405      102.899        0.080      335.625        6.381      858.505
03/30/2014  19:00:00     -287.159     -232.828        4.135      224.997      163.504       94.930    50623.842    26733.497     9011.646       11.151        4.318      369.688       98.094        0.070      335.607        6.350      858.506
03/30/2014  19:01:00     -445.898     -270.043      -18.403      195.850      166.807       90.489    38357.169    27824.513     8188.346       17.321        3.719      521.295      100.991        0.038      335.541        6.238      858.470
03/30/2014  19:02:00     -282.572     -192.461      -15.049      150.452      148.967       73.785    22635.846    22191.155     5444.254        8.368        2.514      341.889       79.182        0.054      335.572        6.292      858.490
03/30/2014  19:03:00     -385.676      -75.678      -20.369      122.699      146.937       57.805    15054.939    21590.584     3341.417        9.743        1.999      393.031       45.658        0.013      335.528        6.217      858.510
03/30/2014  19:04:00     -287.197     -223.003       -9.040      205.162      182.271       86.790    42091.251    33222.883     7532.561       10.755        4.142      363.610       99.719        0.075      335.565        6.280      858.490
03/30/2014  19:05:00     -244.641     -164.111       -6.643      134.124       94.545       63.015    17989.264     8938.707     3970.876        5.886        1.545      294.587       65.124        0.049      335.577        6.302      858.534
03/30/2014  19:06:00     -229.501       -1.225       -9.755      166.910       95.755       69.833    27859.050     9168.979     4876.608        4.733        2.095      229.504       89.715        0.153      335.584        6.312      858.566
03/30/2014  19:07:00     -130.604      -32.772       -2.568      115.509       94.682       60.857    13342.397     8964.720     3703.610        2.207        1.301      134.653       65.209        0.235      335.600        6.340      858.561
03/30/2014  19:08:00     -197.492     -160.779        2.787      159.585      113.966       63.360    25467.449    12988.230     4014.542        5.366        2.124      254.663       73.761        0.084      335.587        6.316      858.564
03/30/2014  19:09:00     -320.861     -167.651      -15.126      140.670      136.265       79.033    19787.983    18568.113     6246.290        8.794        2.230      362.020       76.195        0.044      335.542        6.242      858.549
03/30/2014  19:10:00     -304.427     -203.075        8.946      165.321      117.495       65.562    27331.052    13805.183     4298.418        8.971        2.272      365.944       75.605        0.043      335.552        6.259      858.561
03/30/2014  19:11:00     -381.134      -72.193        4.740      202.491      161.619       83.088    41002.478    26120.818     6903.607       11.225        3.701      387.911      101.918        0.069      335.503        6.177      858.572
03/30/2014  19:12:00     -149.770     -132.601       17.799      126.520      125.362       59.042    16007.319    15715.741     3485.932        3.776        1.760      200.035       48.135        0.058      335.553        6.263      858.592
03/30/2014  19:13:00     -320.442     -223.168      -10.088      184.544      122.323       66.216    34056.654    14962.982     4384.571       10.299        2.670      390.496       85.928        0.048      335.511        6.191      858.574
03/30/2014  19:14:00     -203.335     -204.111        2.410      172.306      126.887       75.606    29689.229    16100.250     5716.268        6.725        2.575      288.108       82.105        0.081      335.525        6.214      858.576
03/30/2014  19:15:00     -287.103     -208.390       12.001      154.520      155.156       84.401    23876.352    24073.391     7123.587        9.053        2.754      354.760       82.517        0.054      335.528        6.218      858.596
03/30/2014  19:16:00     -259.837     -101.113        4.618      179.730      144.799       70.982    32302.918    20966.838     5038.410        6.802        2.915      278.818       79.383        0.081      335.573        6.293      858.591
03/30/2014  19:17:00     -157.696     -104.118        7.955      132.303       74.625       61.932    17504.128     5568.939     3835.594        3.133        1.345      188.967       68.688        0.132      335.599        6.338      858.633
03/30/2014  19:18:00     -253.910     -128.119      -22.552      137.845      124.537       56.900    19001.290    15509.475     3237.613        5.956        1.887      284.402       64.556        0.052      335.575        6.298      858.674
03/30/2014  19:19:00     -152.289     -159.565        3.163      119.180      123.816       63.009    14203.877    15330.464     3970.161        4.108        1.675      220.574       58.579        0.071      335.583        6.309      858.720
03/30/2014  19:20:00     -274.213     -202.994       -1.454      150.061       97.736       63.096    22518.420     9552.326     3981.090        7.622        1.803      341.173       55.837        0.027      335.576        6.297      858.730
03/30/2014  19:21:00     -270.101     -177.303        3.224      130.918      102.029       61.460    17139.432    10409.908     3777.357        6.786        1.566      323.096       68.898        0.045      335.519        6.205      858.779
03/30/2014  19:22:00     -277.928     -221.620        4.489      145.709      126.395       76.620    21231.219    15975.801     5870.615        8.472        2.154      355.471       76.133        0.046      335.500        6.173      858.796
03/30/2014  19:23:00     -247.077     -143.715       -7.073      111.998      131.591       59.391    12543.566    17316.270     3527.272        5.756        1.669      285.834       57.167        0.040      335.506        6.182      858.817
03/30/2014  19:24:00     -334.957     -188.271       -7.237      120.440      127.879       57.817    14505.729    16352.997     3342.768        9.094        1.710      384.242       52.937        0.019      335.476        6.133      858.832
03/30/2014  19:25:00     -276.570      -83.264      -15.710      205.742      109.528       64.291    42329.592    11996.337     4133.300        7.105        2.923      288.832       89.753        0.097      335.539        6.238      858.850
03/30/2014  19:26:00     -122.416     -160.031        5.857      125.236       92.589       60.003    15684.076     8572.689     3600.418        3.424        1.393      201.483       63.281        0.099      335.542        6.241      858.875
03/30/2014  19:27:00     -268.344     -180.419       -3.977      109.516       82.372       53.988    11993.791     6785.120     2914.754        6.313        1.085      323.357       48.414        0.022      335.491        6.157      858.897
03/30/2014  19:28:00     -190.139     -109.143       -7.230       83.782       70.841       37.302     7019.462     5018.485     1391.423        3.077        0.671      219.237       31.299        0.020      335.560        6.271      858.910
03/30/2014  19:29:00     -146.366      -57.846       14.160      105.256       77.869       45.780    11078.888     6063.513     2095.781        2.210        0.962      157.382       52.622        0.112      335.556        6.266      858.931
03/30/2014  19:30:00     -202.398     -172.472       11.890      142.233       86.263       58.963    20230.335     7441.346     3476.588        5.099        1.557      265.917       70.001        0.069      335.547        6.251      858.948
03/30/2014  19:31:00     -268.040     -180.642      -12.809       91.567       77.806       47.588     8384.581     6053.738     2264.655        6.067        0.835      323.229       44.050        0.019      335.572        6.290      858.968
03/30/2014  19:32:00     -300.646     -132.563       -6.673      194.258      141.589       76.180    37736.315    20047.321     5803.320        8.578        3.179      328.574       96.445        0.086      335.478        6.137      858.956
03/30/2014  19:33:00     -344.100     -173.268      -10.130      152.461      122.895       65.187    23244.298    15103.275     4249.355        9.555        2.130      385.261       76.727        0.040      335.498        6.168      858.988
03/30/2014  19:34:00     -284.048     -169.731        4.245      142.126      153.491       80.468    20199.827    23559.359     6475.101        7.986        2.512      330.896       75.701        0.052      335.463        6.111      858.997
03/30/2014  19:35:00     -279.442     -173.303       -9.843      123.958      100.231       58.609    15365.558    10046.293     3434.980        6.853        1.442      328.819       54.271        0.027      335.497        6.167      859.021
03/30/2014  19:36:00     -143.842      -63.086       20.022      124.669       94.656       50.432    15542.356     8959.840     2543.349        2.605        1.352      157.068       51.552        0.108      335.538        6.236      859.036
03/30/2014  19:37:00     -158.115     -106.214       -0.776       80.227       48.577       37.095     6436.414     2359.739     1376.053        2.323        0.509      190.478       31.502        0.027      335.553        6.263      859.040
03/30/2014  19:38:00     -206.205     -100.731      -10.550       85.977       68.303       42.645     7392.123     4665.316     1818.569        3.332        0.694      229.494       45.604        0.039      335.542        6.242      859.054
03/30/2014  19:39:00     -189.215      -99.391        7.961      135.078      100.669       63.851    18246.050    10134.266     4076.902        3.909        1.623      213.730       63.567        0.088      335.576        6.301      859.056
03/30/2014  19:40:00     -258.442     -146.237       -8.464      139.698      132.890       61.854    19515.460    17659.719     3825.961        6.462        2.050      296.947       69.443        0.055      335.508        6.186      859.052
03/30/2014  19:41:00     -244.429      -93.291        0.169      128.690      132.366       57.985    16561.123    17520.764     3362.298        5.294        1.872      261.627       62.160        0.056      335.532        6.224      859.058
03/30/2014  19:42:00     -302.162      -70.835       -5.670      113.676      120.729       60.975    12922.341    14575.514     3717.943        6.378        1.561      310.354       68.260        0.048      335.451        6.090      859.067
03/30/2014  19:43:00     -284.325      -36.807      -10.306      138.469      112.517       57.371    19173.695    12660.186     3291.447        5.871        1.756      286.697       65.797        0.053      335.470        6.123      859.082
03/30/2014  19:44:00     -269.884      -64.068       -0.835      181.802      104.923       67.916    33051.988    11008.772     4612.529        6.280        2.434      277.384       74.752        0.073      335.484        6.145      859.064
03/30/2014  19:45:00     -318.901      -63.317      -10.225      150.371      141.635       68.917    22611.572    20060.609     4749.514        7.661        2.371      325.126       70.963        0.048      335.475        6.130      859.063
03/30/2014  19:46:00     -305.732      -25.683      -12.632      157.174      109.830       71.292    24703.643    12062.582     5082.542        6.806        2.092      306.808       76.493        0.062      335.443        6.077      859.083
03/30/2014  19:47:00     -268.492     -106.884      -13.371      205.249      132.697       80.222    42126.989    17608.447     6435.601        7.492        3.309      288.984       98.012        0.115      335.475        6.130      859.080
03/30/2014  19:48:00     -319.669      -54.244      -20.183      171.639      142.228       64.153    29460.084    20228.941     4115.643        7.966        2.690      324.238       78.359        0.058      335.451        6.092      859.078
03/30/2014  19:49:00     -272.547      -60.828        2.617      197.608      114.011       59.086    39048.977    12998.568     3491.107        6.675        2.777      279.252       82.597        0.087      335.445        6.081      859.067
03/30/2014  19:50:00     -397.110       -1.753      -27.774      177.307      115.821       75.036    31437.746    13414.580     5630.398       10.447        2.524      397.114       88.289        0.049      335.434        6.061      859.044
03/30/2014  19:51:00     -470.889      -97.330      -15.953      238.524      144.192       84.373    56893.856    20791.218     7118.867       15.812        4.240      480.843       94.999        0.039      335.414        6.028      858.995
03/30/2014  19:52:00     -511.342     -151.054      -18.649      193.473      140.213       78.607    37431.844    19659.745     6179.087       17.394        3.164      533.186       92.574        0.030      335.400        6.005      858.982
03/30/2014  19:53:00     -439.258     -129.020       -9.079      122.456      131.869       63.200    14995.517    17389.487     3994.273       12.302        1.819      457.814       71.161        0.024      335.422        6.042      858.994
03/30/2014  19:54:00     -467.137     -118.076      -14.080      195.614      151.251       91.480    38264.943    22876.900     8368.566       15.092        3.476      481.829       90.904        0.036      335.394        5.995      858.978
03/30/2014  19:55:00     -433.152     -171.327      -30.178      180.492      165.263       91.899    32577.461    27311.914     8445.376       14.310        3.417      465.804       84.934        0.033      335.411        6.022      858.944
03/30/2014  19:56:00     -447.618     -107.772       -6.365      203.996      156.356       90.011    41614.501    24447.167     8102.005       14.308        3.708      460.409       98.111        0.045      335.409        6.021      858.958
03/30/2014  19:57:00     -390.788       -6.522        1.623      217.893      183.875      110.044    47477.547    33809.867    12109.662       12.306        4.670      390.842      110.208        0.080      335.444        6.078      858.964
03/30/2014  19:58:00     -443.880      -13.213      -27.988      201.807      188.935       85.043    40726.137    35696.512     7232.356       14.080        4.183      444.076       77.901        0.031      335.417        6.034      858.991
03/30/2014  19:59:00     -315.856      -70.883       -4.966      204.851      151.035       75.072    41963.809    22811.629     5635.797        8.760        3.521      323.712       89.398        0.076      335.435        6.064      859.018
03/30/2014  20:00:00     -362.835      -49.233      -12.799      201.345      158.072       86.210    40539.839    24986.627     7432.151       10.358        3.648      366.160       89.750        0.060      335.417        6.034      859.064
03/30/2014  20:01:00     -320.132     -109.153      -19.275      194.120      154.390       86.521    37682.441    23836.258     7485.799        9.187        3.450      338.229       77.662        0.053      335.403        6.010      859.084
03/30/2014  20:02:00     -483.597      -54.438      -23.664      260.652      166.645       91.305    67939.687    27770.537     8336.626       17.070        5.202      486.651      114.128        0.055      335.343        5.911      859.134
03/30/2014  20:03:00     -228.906      -88.180       -0.162      140.892      148.796       73.714    19850.684    22140.124     5433.757        5.379        2.371      245.303       77.130        0.099      335.382        5.975      859.179
03/30/2014  20:04:00     -301.450      -82.491       -1.790      155.453      154.249       74.492    24165.583    23792.651     5549.068        7.558        2.675      312.533       84.501        0.073      335.344        5.912      859.189
03/30/2014  20:05:00     -368.744      -16.815      -13.106      141.653      161.602       76.308    20065.567    26115.252     5822.903        9.420        2.600      369.127       70.101        0.036      335.322        5.875      859.201
03/30/2014  20:06:00     -343.934      -41.530      -21.280      185.284      110.439       63.516    34330.317    12196.685     4034.345        8.550        2.528      346.432       68.513        0.039      335.313        5.860      859.181
03/30/2014  20:07:00     -483.494      -55.246      -13.296      234.913      195.859      105.352    55184.295    38360.880    11098.985       17.080        5.232      486.640      112.831        0.054      335.286        5.814      859.118
03/30/2014  20:08:00     -529.180     -110.444      -24.413      210.508      202.002      101.608    44313.757    40804.728    10324.145       19.411        4.772      540.582      108.530        0.040      335.272        5.792      859.129
03/30/2014  20:09:00     -437.832      -33.689       -7.119      205.131      191.659       96.748    42078.788    36733.093     9360.242       14.051        4.409      439.126      104.735        0.057      335.303        5.845      859.169
03/30/2014  20:10:00     -512.696     -103.238      -16.382      164.997      129.886       80.664    27223.914    16870.354     6506.651       16.218        2.530      522.987       71.705        0.019      335.282        5.809      859.181
03/30/2014  20:11:00     -409.756     -131.619      -27.332      149.877      127.916       59.084    22463.142    16362.394     3490.868       11.414        2.116      430.376       56.872        0.017      335.313        5.860      859.200
03/30/2014  20:12:00     -242.308      -45.235       -9.441      151.635       77.809       57.581    22993.114     6054.175     3315.611        4.660        1.618      246.494       60.509        0.060      335.344        5.913      859.187
03/30/2014  20:13:00     -224.860      -21.920       -1.210      121.849       88.361       63.063    14847.129     7807.644     3976.901        3.883        1.332      225.926       66.495        0.087      335.337        5.900      859.192
03/30/2014  20:14:00     -411.355       -5.444      -12.943      165.694      155.015       76.309    27454.500    24029.667     5823.040       11.335        2.865      411.391       85.063        0.043      335.313        5.861      859.154
03/30/2014  20:15:00     -427.922      -27.551      -12.488      137.941      123.007       71.021    19027.644    15130.752     5044.028       11.161        1.960      428.808       67.975        0.025      335.293        5.826      859.140
03/30/2014  20:16:00     -390.983      -15.400      -24.474      156.005      109.433       64.058    24337.408    11975.620     4103.480        9.705        2.021      391.286       66.337        0.029      335.279        5.805      859.131
03/30/2014  20:17:00     -286.178      -48.612       -5.788      121.502      101.106       64.090    14762.843    10222.392     4107.579        5.669        1.455      290.277       57.776        0.040      335.314        5.862      859.154
03/30/2014  20:18:00     -331.645     -131.926      -17.258      135.579      125.945       63.508    18381.610    15862.159     4033.266        8.298        1.914      356.922       69.601        0.038      335.322        5.875      859.178
03/30/2014  20:19:00     -263.526      -28.196       -2.588      102.758      109.128       53.245    10559.147    11908.938     2835.073        4.777        1.265      265.030       51.315        0.037      335.346        5.915      859.212
03/30/2014  20:20:00     -264.550     -125.860        2.260      149.430      115.671       58.716    22329.407    13379.716     3447.591        6.249        1.958      292.963       67.467        0.053      335.323        5.878      859.232
03/30/2014  20:21:00     -275.385     -103.917        5.718      143.843      109.433       67.227    20690.665    11975.646     4519.458        6.192        1.859      294.339       72.671        0.061      335.316        5.865      859.222
03/30/2014  20:22:00     -242.559      -38.726      -21.949      138.153       75.543       51.291    19086.243     5706.734     2630.735        4.411        1.371      245.631       55.004        0.050      335.315        5.863      859.232
03/30/2014  20:23:00     -256.723     -113.117       -1.985      123.281      100.498       52.992    15198.146    10099.819     2808.186        5.340        1.405      280.539       57.339        0.042      335.284        5.812      859.247
03/30/2014  20:24:00     -209.035      -12.970       -1.584      114.669      100.396       47.441    13148.995    10079.339     2250.670        3.467        1.274      209.437       51.822        0.061      335.274        5.795      859.242
03/30/2014  20:25:00     -487.218      -81.812      -21.530      178.451      155.029       81.399    31844.799    24034.076     6625.784       15.351        3.125      494.039       91.790        0.035      335.220        5.707      859.247
03/30/2014  20:26:00     -297.023      -81.155        1.106      183.052      156.236       79.302    33507.918    24409.545     6288.840        7.950        3.210      307.910       97.371        0.100      335.222        5.710      859.275
03/30/2014  20:27:00     -386.756      -71.710      -15.976      228.051      155.624       80.646    52007.412    24218.698     6503.781       11.884        4.136      393.348       94.073        0.057      335.240        5.738      859.292
03/30/2014  20:28:00     -489.184      -82.289      -10.756      203.543      156.406       93.507    41429.892    24462.784     8743.491       16.040        3.732      496.057      101.853        0.042      335.225        5.715      859.280
03/30/2014  20:29:00     -515.602      -79.250      -15.287      218.071      132.367       85.483    47555.101    17521.067     7307.289       17.236        3.619      521.657       98.520        0.036      335.231        5.724      859.275
03/30/2014  20:30:00     -461.258      -11.459      -32.989      255.855      163.639       99.147    65461.662    26777.752     9830.114       15.800        5.103      461.400      116.762        0.064      335.239        5.737      859.312
03/30/2014  20:31:00     -457.527      -56.473      -19.020      190.339      150.143       87.903    36228.812    22542.776     7726.929       13.968        3.325      460.999       82.676        0.032      335.267        5.784      859.328
03/30/2014  20:32:00     -249.615     -174.393        6.845      173.255      194.781       85.137    30017.468    37939.553     7248.378        8.397        3.760      304.501       86.445        0.081      335.286        5.814      859.347
03/30/2014  20:33:00     -387.822      -88.537       -9.551      189.345      156.136       68.971    35851.645    24378.371     4757.048       11.165        3.249      397.800       69.572        0.031      335.271        5.791      859.370
03/30/2014  20:34:00     -417.576     -140.276      -21.990      159.456      127.053       77.197    25426.307    16142.518     5959.419       12.102        2.376      440.508       74.913        0.029      335.257        5.768      859.376
03/30/2014  20:35:00     -178.009      -24.329        1.318      143.243      134.663       70.617    20518.604    18134.207     4986.725        3.795        2.182      179.664       80.147        0.199      335.345        5.916      859.397
03/30/2014  20:36:00     -362.812      -96.142        5.426      214.864      135.758       78.168    46166.633    18430.275     6110.165       10.579        3.535      375.335       85.773        0.052      335.292        5.827      859.415
03/30/2014  20:37:00     -298.190      -72.580       13.160      190.221      161.704       85.015    36184.015    26148.206     7227.502        8.195        3.478      306.896       91.322        0.089      335.324        5.878      859.458
03/30/2014  20:38:00     -415.814     -321.924      -23.714      209.203      164.065       80.918    43765.809    26917.265     6547.715       17.715        3.862      525.867       95.059        0.033      335.322        5.876      859.465
03/30/2014  20:39:00     -351.056     -289.764      -17.850      176.585      133.082       94.149    31182.399    17710.872     8864.123       13.263        2.888      455.196       95.722        0.044      335.323        5.877      859.511
03/30/2014  20:40:00     -238.734     -196.628       -6.836      190.048      106.516       79.037    36118.221    11345.704     6246.823        7.470        2.686      309.284       96.234        0.097      335.337        5.901      859.574
03/30/2014  20:41:00     -383.847     -201.174      -36.890      127.860      109.715       61.191    16348.174    12037.385     3744.297       11.064        1.606      433.370       55.769        0.017      335.292        5.825      859.593
03/30/2014  20:42:00     -333.084      -59.662      -21.034       97.732       85.737       58.049     9551.494     7350.869     3369.659        6.761        1.014      338.386       44.553        0.017      335.296        5.831      859.618
03/30/2014  20:43:00     -219.086      -14.164       -9.088       83.741       72.683       46.390     7012.518     5282.766     2152.055        3.136        0.722      219.543       40.859        0.035      335.298        5.835      859.616
03/30/2014  20:44:00     -202.384     -137.974        0.540       97.912       85.282       48.293     9586.676     7273.018     2332.241        3.959        0.960      244.941       50.832        0.043      335.318        5.870      859.624
03/30/2014  20:45:00     -128.349      -98.091       13.134       88.048       91.064       52.901     7752.438     8292.669     2798.534        2.255        0.942      161.541       50.463        0.098      335.334        5.896      859.630
03/30/2014  20:46:00     -264.576      -72.604       -5.043      114.654      104.743       56.556    13145.573    10971.099     3198.636        5.130        1.366      274.357       53.662        0.038      335.278        5.803      859.656
03/30/2014  20:47:00     -294.712      -80.975       -4.714      115.542       97.176       51.343    13349.854     9443.114     2636.103        5.943        1.271      305.634       50.557        0.027      335.205        5.681      859.668
03/30/2014  20:48:00     -252.243      -67.763       -7.626      112.109       60.866       48.814    12568.377     3704.672     2382.818        4.346        0.933      261.187       51.653        0.039      335.189        5.654      859.673
03/30/2014  20:49:00     -262.156      -52.319      -13.930       69.100       79.981       38.090     4774.838     6397.034     1450.828        4.214        0.631      267.326       28.033        0.011      335.227        5.717      859.669
03/30/2014  20:50:00      -83.812      -56.284        8.606       87.281       62.602       34.238     7617.998     3919.032     1172.246        1.149        0.635      100.957       35.224        0.122      335.213        5.694      859.668
03/30/2014  20:51:00      -81.413      -23.166       -4.823       46.489       44.997       28.004     2161.186     2024.774      784.221        0.608        0.249       84.645       32.466        0.147      335.182        5.646      859.625
03/30/2014  20:52:00     -187.723       13.175      -12.616      103.682       51.567       36.538    10749.941     2659.127     1335.034        2.516        0.737      188.185       41.780        0.049      335.166        5.618      859.620
03/30/2014  20:53:00     -122.298      -49.595        8.459      116.734       58.124       42.839    13626.911     3378.442     1835.219        1.816        0.942      131.971       57.196        0.188      335.204        5.681      859.628
03/30/2014  20:54:00      -78.682      -80.042       10.727       61.049       62.356       40.021     3727.031     3888.296     1601.687        1.096        0.461      112.239       39.820        0.126      335.255        5.767      859.639
03/30/2014  20:55:00     -136.736      -22.663       15.111       95.919       71.207       48.325     9200.368     5070.427     2335.292        1.802        0.830      138.601       40.680        0.086      335.193        5.664      859.627
03/30/2014  20:56:00     -225.098     -126.302       -0.327      144.654       98.625       52.959    20924.793     9726.800     2804.636        5.003        1.673      258.111       67.275        0.068      335.164        5.614      859.620
03/30/2014  20:57:00     -232.777     -140.711       -2.439      139.834       93.821       60.253    19553.566     8802.413     3630.365        5.298        1.599      272.002       63.701        0.055      335.191        5.658      859.626
03/30/2014  20:58:00     -293.112     -190.855       -5.630      131.845       88.817       61.114    17383.047     7888.439     3734.929        7.568        1.450      349.772       50.659        0.021      335.168        5.619      859.637
03/30/2014  20:59:00     -271.869     -237.059       -6.138      160.704      132.213       68.450    25825.736    17480.407     4685.350        8.906        2.400      360.707       86.715        0.058      335.123        5.547      859.655
03/30/2014  21:00:00     -153.566      -88.724       21.180      105.313       82.113       53.916    11090.904     6742.567     2906.938        2.632        1.037      177.353       59.790        0.114      335.175        5.633      859.659
03/30/2014  21:01:00     -155.976     -102.253       16.228       79.710       71.465       44.436     6353.659     5107.288     1974.554        2.424        0.672      186.506       48.627        0.068      335.189        5.653      859.662
03/30/2014  21:02:00     -217.752      -82.406        2.707      149.462       93.374       43.207    22338.818     8718.674     1866.805        4.356        1.646      232.824       61.813        0.070      335.156        5.603      859.667
03/30/2014  21:03:00     -144.540      -98.439       14.400      143.089       99.553       66.387    20474.533     9910.862     4407.287        3.278        1.740      174.877       79.701        0.208      335.207        5.686      859.652
03/30/2014  21:04:00     -222.589     -100.443       -1.931       87.645       83.877       50.398     7681.589     7035.421     2540.006        3.844        0.863      244.202       49.134        0.040      335.140        5.575      859.640
03/30/2014  21:05:00     -209.538      -64.380       11.264      174.359       91.178       76.267    30401.124     8313.366     5816.587        4.635        2.227      219.205       89.163        0.165      335.188        5.653      859.656
03/30/2014  21:06:00     -330.387      -51.023       -6.062      113.387      140.599       62.203    12856.548    19768.100     3869.235        7.414        1.825      334.303       62.185        0.035      335.112        5.528      859.662
03/30/2014  21:07:00     -239.665     -133.455       -9.197      109.331       81.385       59.165    11953.329     6623.438     3500.503        4.870        1.104      274.317       55.149        0.040      335.148        5.588      859.666
03/30/2014  21:08:00     -149.455      -87.837        3.316       96.203       91.462       54.711     9255.041     8365.207     2993.308        2.533        1.031      173.356       49.212        0.081      335.181        5.643      859.659
03/30/2014  21:09:00     -215.554      -73.032      -11.350      145.203       85.766       47.977    21083.824     7355.768     2301.806        4.133        1.537      227.590       47.690        0.044      335.100        5.510      859.651
03/30/2014  21:10:00     -171.917      -90.553       -2.433       74.492      124.980       43.404     5549.080    15619.983     1883.935        3.040        1.153      194.308       41.856        0.046      335.151        5.593      859.655
03/30/2014  21:11:00     -106.696     -120.101       16.588      113.553       95.062       61.335    12894.187     9036.808     3761.983        2.588        1.285      160.650       64.335        0.160      335.156        5.603      859.661
03/30/2014  21:12:00     -204.940     -158.964       -1.103      118.733       92.194       62.896    14097.458     8499.732     3955.849        4.691        1.328      259.365       63.582        0.060      335.127        5.554      859.666
03/30/2014  21:13:00     -260.279     -133.805        3.515       90.443       99.241       58.881     8180.011     9848.782     3466.974        5.357        1.075      292.659       52.141        0.032      335.111        5.526      859.656
03/30/2014  21:14:00     -186.960     -160.279        5.849      110.961      102.291       50.434    12312.338    10463.437     2543.554        4.299        1.266      246.259       39.301        0.025      335.147        5.585      859.656
03/30/2014  21:15:00     -266.658     -181.111        2.910      107.270      125.589       55.931    11506.787    15772.609     3128.285        6.716        1.520      322.347       50.100        0.024      335.106        5.519      859.657
03/30/2014  21:16:00     -300.953     -159.103      -16.936      134.865       96.887       63.465    18188.505     9387.160     4027.864        7.388        1.580      340.421       70.980        0.043      335.053        5.429      859.643
03/30/2014  21:17:00     -218.867     -150.366       -6.652      161.690      120.689       53.567    26143.496    14565.920     2869.415        5.706        2.179      265.542       65.227        0.060      335.098        5.506      859.634
03/30/2014  21:18:00     -325.660      -96.538      -18.746      135.637      107.177       62.029    18397.401    11486.973     3847.639        7.472        1.687      339.667       58.488        0.030      335.057        5.438      859.619
03/30/2014  21:19:00     -183.805     -211.945        1.743      145.128      114.610       66.535    21062.058    13135.402     4426.872        5.866        1.931      280.544       70.963        0.064      335.064        5.449      859.614
03/30/2014  21:20:00     -257.525     -175.179        1.995      173.748      116.801       76.870    30188.466    13642.575     5908.923        7.337        2.487      311.459       95.650        0.094      335.067        5.454      859.612
03/30/2014  21:21:00     -253.020     -132.569       -7.253      161.797      114.944       67.431    26178.284    13212.067     4546.939        6.278        2.197      285.646       68.696        0.058      335.072        5.462      859.620
03/30/2014  21:22:00     -187.893     -137.271        4.838      142.057      101.415       53.181    20180.290    10284.909     2828.215        4.373        1.665      232.695       60.447        0.067      335.084        5.481      859.633
03/30/2014  21:23:00     -386.050     -222.415       -7.152      180.270      101.824       81.862    32497.135    10368.222     6701.305       12.405        2.478      445.537       90.956        0.042      335.030        5.391      859.592
03/30/2014  21:24:00     -178.897     -102.704        8.809      101.821       91.186       53.404    10367.488     8314.870     2852.013        3.208        1.077      206.282       43.649        0.045      335.061        5.443      859.577
03/30/2014  21:25:00     -170.718     -135.946        4.228      107.251       99.510       61.541    11502.804     9902.232     3787.243        3.641        1.260      218.234       69.628        0.102      335.063        5.448      859.570
03/30/2014  21:26:00     -180.364      -69.359       -5.109      175.929       78.950       62.012    30951.102     6233.126     3845.443        3.919        2.051      193.240       72.354        0.140      335.071        5.462      859.540
03/30/2014  21:27:00     -157.822      -76.198        4.670      164.968       96.773       66.207    27214.297     9364.949     4383.385        3.584        2.048      175.254       83.255        0.226      335.113        5.530      859.534
03/30/2014  21:28:00     -304.994     -209.600       -0.837      213.611      171.286      110.616    45629.501    29338.781    12235.910       11.206        4.360      370.072      106.872        0.083      335.072        5.463      859.502
03/30/2014  21:29:00     -420.935     -142.653       -8.184      216.681      172.322       79.144    46950.508    29694.711     6263.812       14.024        4.145      444.451       86.346        0.038      335.036        5.401      859.471
03/30/2014  21:30:00     -261.037     -125.181       11.774      206.547      134.887       80.809    42661.723    18194.602     6530.021        7.565        3.369      289.500       90.292        0.097      335.026        5.386      859.473
03/30/2014  21:31:00     -343.126     -210.729        4.105      197.600      150.003       84.715    39045.821    22501.049     7176.610       11.543        3.436      402.669       88.840        0.049      335.074        5.464      859.464
03/30/2014  21:32:00     -295.763     -134.592       -2.942      195.564      145.233       90.219    38245.295    21092.707     8139.529        8.653        3.374      324.948      100.665        0.096      335.068        5.455      859.502
03/30/2014  21:33:00     -371.924     -126.697       -7.636      134.085      124.625       69.647    17978.899    15531.268     4850.727        9.639        1.918      392.911       71.610        0.033      335.054        5.433      859.498
03/30/2014  21:34:00     -416.949     -227.568      -27.585      168.280      154.437       88.038    28318.158    23850.706     7750.707       14.314        2.996      475.009       87.715        0.034      335.074        5.464      859.476
03/30/2014  21:35:00     -332.023     -248.988      -18.842      208.144      151.740      101.698    43323.796    23024.931    10342.496       12.462        3.835      415.011      111.050        0.072      335.091        5.493      859.448
03/30/2014  21:36:00     -470.161     -299.052      -24.024      222.617      183.547      103.098    49558.292    33689.438    10629.235       20.245        4.694      557.210      102.780        0.034      335.066        5.451      859.434
03/30/2014  21:37:00     -386.424     -156.345       -4.040      186.176      165.035       92.451    34661.593    27236.622     8547.128       12.210        3.522      416.854       89.597        0.046      335.081        5.477      859.444
03/30/2014  21:38:00     -223.147     -188.787        0.136      153.030      136.415       68.509    23418.313    18609.147     4693.437        6.607        2.336      292.293       70.534        0.058      335.120        5.543      859.475
03/30/2014  21:39:00     -277.600     -171.924       -1.486      170.269      143.452       79.185    28991.668    20578.402     6270.207        8.122        2.792      326.526       82.411        0.064      335.058        5.439      859.499
03/30/2014  21:40:00     -242.119     -137.544      -12.189      174.759      202.644       91.365    30540.758    41064.448     8347.604        7.880        3.998      278.460       98.278        0.125      335.074        5.465      859.501
03/30/2014  21:41:00     -234.217      -79.606       -2.731      232.839      196.967      107.707    54213.934    38796.073    11600.725        8.289        5.231      247.376      117.524        0.226      335.062        5.445      859.511
03/30/2014  21:42:00     -404.588     -103.754      -24.660      161.114      133.153       67.840    25957.628    17729.785     4602.252       11.167        2.414      417.680       62.137        0.022      335.032        5.393      859.507
03/30/2014  21:43:00     -324.906     -144.343      -11.857      176.138      151.972       91.090    31024.737    23095.480     8297.368        9.447        3.121      355.526       96.172        0.073      335.026        5.384      859.508
03/30/2014  21:44:00     -289.888     -148.338      -12.150      209.597      102.236       89.302    43930.989    10452.280     7974.771        8.426        3.118      325.637      105.596        0.105      335.056        5.436      859.492
03/30/2014  21:45:00     -367.271      -29.111       -3.051      247.157      137.984       80.050    61086.634    19039.515     6408.003       11.112        4.327      368.423      104.978        0.081      335.025        5.384      859.500
03/30/2014  21:46:00     -184.165      -54.762       -5.809      131.663      116.929       59.981    17335.211    13672.465     3597.754        3.577        1.730      192.134       61.654        0.103      335.040        5.409      859.505
03/30/2014  21:47:00     -326.005      -80.398        5.276      174.156      171.170       78.068    30330.471    29299.230     6094.600        8.923        3.286      335.773       93.975        0.078      335.014        5.366      859.540
03/30/2014  21:48:00     -302.560     -131.611      -27.419      225.925      103.747       82.806    51042.295    10763.406     6856.885        8.913        3.433      329.946      105.772        0.103      335.046        5.420      859.578
03/30/2014  21:49:00     -216.719     -131.046      -12.558      157.521      137.643       78.086    24812.842    18945.597     6097.380        5.707        2.493      253.259       85.430        0.114      335.053        5.431      859.580
03/30/2014  21:50:00     -281.330     -110.877       -5.775      168.343      170.676       83.887    28339.357    29130.207     7037.009        7.798        3.225      302.391       91.500        0.092      335.032        5.396      859.609
03/30/2014  21:51:00     -335.375     -106.422      -13.730      171.385      141.113       74.347    29372.654    19912.953     5527.547        8.939        2.741      351.855       78.720        0.050      335.025        5.383      859.630
03/30/2014  21:52:00     -284.301      -73.856       -2.945      195.034      157.822       81.909    38038.194    24907.767     6709.022        7.796        3.483      293.738       96.852        0.109      335.029        5.391      859.656
03/30/2014  21:53:00     -332.767     -202.690       -9.157      204.303      149.565       96.737    41739.859    22369.819     9358.069       11.267        3.673      389.637       94.150        0.058      334.977        5.303      859.694
03/30/2014  21:54:00     -218.285     -154.868        2.967      170.735      129.949       89.149    29150.275    16886.639     7947.526        6.280        2.699      267.643       95.348        0.127      335.004        5.349      859.711
03/30/2014  21:55:00     -199.894     -132.776       -2.272      148.201      124.328       76.469    21963.481    15457.521     5847.528        5.042        2.163      239.973       74.617        0.097      335.028        5.388      859.732
03/30/2014  21:56:00     -272.931      -86.901       -6.122      146.512      154.327       81.589    21465.905    23816.868     6656.738        6.700        2.597      286.432       80.131        0.078      334.993        5.330      859.731
03/30/2014  21:57:00     -410.546      -66.564      -23.616      183.791      157.280       81.890    33778.990    24736.974     6705.980       11.937        3.261      415.907       95.603        0.053      334.955        5.267      859.736
03/30/2014  21:58:00     -200.209      -73.648       16.230      157.201       91.082       62.586    24712.290     8295.897     3917.027        4.134        1.846      213.325       87.478        0.168      335.003        5.347      859.727
03/30/2014  21:59:00     -318.623      -42.388       -7.979      168.086      110.821       66.789    28252.761    12281.330     4460.741        7.418        2.250      321.430       78.878        0.060      334.949        5.258      859.720
03/30/2014  22:00:00     -279.800      -48.685       -1.987      122.473       98.548       62.487    14999.715     9711.671     3904.598        5.463        1.431      284.004       65.459        0.053      334.939        5.240      859.711
03/30/2014  22:01:00     -262.543      -63.558      -11.834      143.808      100.930       68.462    20680.644    10186.864     4687.005        5.432        1.778      270.127       73.164        0.073      334.953        5.262      859.701
03/30/2014  22:02:00     -259.908      -22.462        4.523      187.112      109.048       78.345    35010.856    11891.545     6137.877        6.055        2.652      260.877       83.687        0.103      334.949        5.256      859.678
03/30/2014  22:03:00     -369.867      -96.460        0.954      157.236      125.791       67.241    24723.047    15823.337     4521.368        9.558        2.253      382.238       75.510        0.039      334.879        5.141      859.667
03/30/2014  22:04:00     -384.057     -156.784       -7.603      189.000      125.355       72.343    35720.918    15713.874     5233.500       11.439        2.833      414.827       85.114        0.042      334.876        5.135      859.649
03/30/2014  22:05:00     -248.351      -67.219       -4.307      133.883       90.265       44.692    17924.527     8147.767     1997.364        4.714        1.403      257.287       49.033        0.036      334.905        5.184      859.628
03/30/2014  22:06:00     -143.102      -41.214      -13.578       94.548       75.206       47.632     8939.401     5655.891     2268.760        1.961        0.843      148.918       30.316        0.041      334.950        5.259      859.606
03/30/2014  22:07:00     -123.964      -90.244       -2.277      113.722       93.209       51.317    12932.690     8687.995     2633.397        2.388        1.213      153.333       54.652        0.127      334.961        5.276      859.604
03/30/2014  22:08:00     -270.470      -94.770        2.393      215.139      131.492       68.033    46284.800    17290.148     4628.556        7.516        3.410      286.592       75.492        0.069      334.932        5.230      859.614
03/30/2014  22:09:00     -242.686     -113.505       -4.253      107.718      136.618       68.432    11603.225    18664.455     4682.951        5.337        1.748      267.918       68.389        0.065      334.909        5.189      859.615
03/30/2014  22:10:00     -249.830      -32.695      -15.173      140.315       77.400       48.064    19688.264     5990.824     2310.166        4.585        1.399      251.960       46.831        0.035      334.897        5.170      859.607
03/30/2014  22:11:00     -305.358      -29.928       -6.798      141.957       96.574       68.268    20151.866     9326.521     4660.526        6.416        1.707      306.821       65.990        0.046      334.881        5.144      859.616
03/30/2014  22:12:00     -317.079      -73.253      -22.157      171.402      110.651       65.513    29378.537    12243.627     4291.953        7.615        2.296      325.431       61.117        0.035      334.875        5.134      859.612
03/30/2014  22:13:00     -258.235      -14.051       -2.158      185.312       99.153       73.917    34340.700     9831.281     5463.760        5.825        2.482      258.617       90.264        0.122      334.905        5.183      859.602
03/30/2014  22:14:00     -282.620      -63.822      -23.682      102.981       94.494       52.707    10605.079     8929.143     2778.058        5.341        1.116      289.736       50.327        0.030      334.847        5.086      859.616
03/30/2014  22:15:00     -189.715       23.518      -10.889      116.259       77.618       52.207    13516.041     6024.535     2725.565        2.946        1.113      191.167       57.308        0.090      334.873        5.131      859.616
03/30/2014  22:16:00     -247.793      -49.697      -11.080      129.571       90.067       53.905    16788.522     8112.035     2905.767        4.589        1.390      252.727       61.290        0.059      334.855        5.100      859.593
03/30/2014  22:17:00     -299.865      -84.014       -8.545       99.771       86.900       53.194     9954.352     7551.564     2829.548        5.869        1.017      311.412       54.457        0.031      334.824        5.049      859.602
03/30/2014  22:18:00     -333.955      -74.707      -31.753      108.432       79.600       50.593    11757.572     6336.095     2559.644        6.938        1.033      342.209       54.118        0.025      334.796        5.001      859.603
03/30/2014  22:19:00     -335.784     -102.212      -17.967       68.566       66.943       41.277     4701.350     4481.337     1703.778        6.720        0.544      350.996       27.246        0.006      334.795        4.998      859.570
03/30/2014  22:20:00     -319.749      -20.321      -23.648      124.913       76.414       55.376    15603.359     5839.156     3066.525        6.386        1.225      320.394       67.118        0.044      334.756        4.937      859.549
03/30/2014  22:21:00     -245.328      -52.383      -24.803       81.462       64.559       35.824     6636.001     4167.839     1283.374        3.781        0.604      250.858       36.575        0.021      334.797        5.003      859.535
03/30/2014  22:22:00     -229.948      -53.611       -3.478       69.779       66.264       37.948     4869.108     4390.914     1440.028        3.323        0.535      236.115       34.190        0.021      334.783        4.979      859.531
03/30/2014  22:23:00     -320.077     -128.434      -20.702      135.475       94.646       61.570    18353.600     8957.871     3790.857        7.523        1.555      344.884       47.784        0.019      334.774        4.965      859.509
03/30/2014  22:24:00     -275.497      -80.283      -17.155       98.166       99.327       52.242     9636.508     9865.871     2729.242        5.243        1.112      286.956       47.180        0.027      334.768        4.955      859.474
03/30/2014  22:25:00     -217.235     -120.939      -13.501      158.547       98.401       56.895    25137.034     9682.763     3237.098        5.002        1.903      248.630       62.174        0.063      334.771        4.961      859.456
03/30/2014  22:26:00     -323.942      -79.871      -11.413      141.418      106.126       61.406    19998.911    11262.761     3770.745        7.323        1.752      333.643       69.145        0.043      334.761        4.943      859.473
03/30/2014  22:27:00     -340.204      -56.314       -4.743      157.076      135.101       59.274    24672.827    18252.220     3513.393        8.268        2.322      344.834       57.737        0.028      334.742        4.913      859.483
03/30/2014  22:28:00     -356.544      -93.299      -11.433      135.319       94.032       69.276    18311.296     8841.984     4799.101        8.395        1.598      368.549       76.747        0.043      334.738        4.906      859.468
03/30/2014  22:29:00     -371.235      -88.328       -0.300      148.505      115.839       62.606    22053.782    13418.677     3919.508        9.250        1.970      381.598       70.089        0.034      334.713        4.864      859.467
03/30/2014  22:30:00     -292.539     -101.903       -9.152      100.777       70.960       45.334    10156.043     5035.389     2055.204        5.664        0.862      309.780       50.927        0.027      334.732        4.896      859.459
03/30/2014  22:31:00     -360.535      -60.489       -3.143      123.379       89.760       57.922    15222.404     8056.943     3354.915        8.014        1.332      365.574       58.490        0.026      334.724        4.881      859.428
03/30/2014  22:32:00     -415.273      -77.552      -15.943      163.466      103.504       68.105    26721.082    10713.170     4638.269       11.039        2.104      422.452       72.168        0.029      334.708        4.854      859.407
03/30/2014  22:33:00     -300.406      -80.338       -3.844      158.421      106.812       61.615    25097.238    11408.864     3796.391        6.850        2.015      310.963       67.971        0.048      334.716        4.869      859.389
03/30/2014  22:34:00     -398.966        3.666      -35.640       97.828       96.524       62.385     9570.234     9316.796     3891.881        9.161        1.139      398.982       50.670        0.016      334.727        4.887      859.365
03/30/2014  22:35:00     -274.652      -97.700       -4.554      115.702      106.525       57.662    13386.961    11347.634     3324.934        5.652        1.403      291.512       54.552        0.035      334.733        4.897      859.349
03/30/2014  22:36:00     -238.508      -49.374       -7.864       87.676       97.842       47.685     7687.054     9573.029     2273.889        3.946        0.977      243.565       32.366        0.018      334.743        4.912      859.327
03/30/2014  22:37:00     -265.094      -91.633      -16.908       79.395       88.216       50.374     6303.524     7782.045     2537.490        4.779        0.831      280.484       44.114        0.025      334.732        4.893      859.323
03/30/2014  22:38:00     -236.012      -49.554      -14.282       85.720       77.791       46.483     7347.914     6051.464     2160.648        3.696        0.778      241.158       33.627        0.019      334.749        4.923      859.326
03/30/2014  22:39:00     -212.242      -56.049       -7.650      116.245       92.726       50.592    13512.879     8598.034     2559.598        3.645        1.234      219.518       52.340        0.057      334.727        4.887      859.332
03/30/2014  22:40:00     -280.432      -75.613      -13.212      110.605      103.462       42.235    12233.466    10704.381     1783.784        5.462        1.236      290.447       43.050        0.022      334.724        4.881      859.343
03/30/2014  22:41:00     -300.679     -116.715      -15.824       86.955       75.907       52.788     7561.250     5761.859     2786.569        6.019        0.805      322.537       48.650        0.023      334.694        4.830      859.363
03/30/2014  22:42:00     -244.192      -88.597       -8.866      102.984       66.444       43.847    10605.658     4414.807     1922.588        4.225        0.847      259.768       38.101        0.022      334.703        4.846      859.390
03/30/2014  22:43:00     -304.905      -43.020      -11.080       96.667       68.501       54.505     9344.511     4692.358     2970.762        5.597        0.850      307.925       53.497        0.030      334.704        4.846      859.387
03/30/2014  22:44:00     -160.706      -43.405        3.121      119.243       50.877       44.175    14218.808     2588.433     1951.399        2.324        0.938      166.464       54.971        0.109      334.759        4.941      859.394
03/30/2014  22:45:00     -117.489      -18.605        5.770       75.463       91.852       55.724     5694.629     8436.757     3105.190        1.571        0.862      118.953       49.493        0.173      334.765        4.952      859.400
03/30/2014  22:46:00     -149.920      -33.265       -4.135       95.052       74.975       39.374     9034.805     5621.181     1550.342        1.990        0.810      153.566       36.888        0.058      334.749        4.926      859.393
03/30/2014  22:47:00     -172.407      -94.062       -1.373       60.485       58.479       31.236     3658.385     3419.779      975.658        2.331        0.403      196.397       29.607        0.023      334.769        4.957      859.400
03/30/2014  22:48:00     -162.925     -163.294       -1.406      128.332       95.192       60.924    16469.131     9061.477     3711.691        4.122        1.462      230.672       68.700        0.089      334.767        4.953      859.388
03/30/2014  22:49:00     -170.803      -86.330        4.396      100.013       58.324       42.643    10002.529     3401.680     1818.446        2.593        0.761      191.380       46.038        0.058      334.792        4.995      859.389
03/30/2014  22:50:00      -84.648      -71.886        4.320       85.644       55.292       39.835     7334.888     3057.202     1586.789        1.216        0.599      111.053       44.772        0.163      334.852        5.098      859.388
03/30/2014  22:51:00      -12.050      -13.903       26.041       57.690       27.251       29.432     3328.081      742.640      866.242        0.298        0.247       18.398       32.526        3.125      334.868        5.124      859.369
03/30/2014  22:52:00      -67.405      -58.910        2.955       54.781       64.334       33.360     3000.984     4138.808     1112.856        0.814        0.413       89.520       35.173        0.154      334.816        5.038      859.357
03/30/2014  22:53:00     -148.864      -81.656      -12.301       49.688       33.872       26.897     2468.933     1147.342      723.452        1.666        0.217      169.788       15.526        0.008      334.788        4.990      859.343
03/30/2014  22:54:00     -129.570     -108.842       -1.212       59.343       59.959       36.155     3521.596     3595.077     1307.209        1.853        0.421      169.219       36.170        0.046      334.813        5.031      859.340
03/30/2014  22:55:00      -94.041      -71.859        5.068       53.810       53.497       33.336     2895.476     2861.891     1111.283        1.045        0.343      118.353       32.341        0.075      334.837        5.071      859.334
03/30/2014  22:56:00     -125.965     -108.768       -9.005       47.460       39.741       30.491     2252.476     1579.331      929.720        1.627        0.238      166.426       21.146        0.016      334.830        5.058      859.328
03/30/2014  22:57:00     -129.433       -1.143        3.194       61.950       48.656       28.339     3837.750     2367.394      803.077        1.188        0.350      129.438       25.659        0.039      334.799        5.010      859.331
03/30/2014  22:58:00     -118.468      -23.571        0.529       74.679       48.632       29.463     5576.904     2365.108      868.093        1.170        0.441      120.790       32.632        0.073      334.795        5.002      859.328
03/30/2014  22:59:00     -185.945      -67.992       -3.259       73.962       78.994       35.325     5470.317     6240.020     1247.859        2.608        0.648      197.986       33.272        0.028      334.825        5.051      859.334
03/30/2014  23:00:00     -174.549      -72.739       -6.011       55.071       75.812       33.773     3032.867     5747.513     1140.584        2.286        0.496      189.099       29.197        0.024      334.815        5.035      859.360
03/30/2014  23:01:00     -133.971      -15.087       -0.666       75.641       44.513       32.271     5721.595     1981.423     1041.444        1.346        0.437      134.818       36.085        0.072      334.837        5.071      859.382
03/30/2014  23:02:00     -164.608      -49.292        4.188       69.773       60.633       30.789     4868.317     3676.400      947.966        1.952        0.475      171.830       31.192        0.033      334.863        5.114      859.400
03/30/2014  23:03:00     -128.129      -55.577       -0.546       66.091       59.193       33.023     4368.034     3503.786     1090.521        1.423        0.448      139.664       35.054        0.063      334.866        5.119      859.423
03/30/2014  23:04:00     -120.124      -62.929       -8.216       32.281       45.264       18.438     1042.077     2048.837      339.955        1.094        0.172      135.609        7.808        0.003      334.908        5.191      859.440
03/30/2014  23:05:00      -83.597      -33.208       -3.012       61.327       51.219       28.221     3760.974     2623.380      796.428        0.764        0.359       89.951       31.821        0.125      334.951        5.262      859.460
03/30/2014  23:06:00      -74.991      -39.319        9.389       58.064       57.383       29.412     3371.427     3292.844      865.091        0.739        0.376       84.674       29.477        0.121      334.939        5.243      859.451
03/30/2014  23:07:00     -131.676      -53.585        0.023       74.926       48.269       27.555     5613.916     2329.898      759.259        1.445        0.435      142.161       32.984        0.054      334.878        5.140      859.444
03/30/2014  23:08:00     -141.821     -105.080       -0.433       59.880       42.716       35.810     3585.666     1824.666     1282.349        1.892        0.335      176.508       34.181        0.037      334.860        5.109      859.442
03/30/2014  23:09:00     -170.566      -84.750       -5.913       56.725       50.708       26.708     3217.689     2571.347      713.296        2.140        0.325      190.460       29.512        0.024      334.870        5.126      859.448
03/30/2014  23:10:00     -202.926      -74.440       -1.744       46.565       50.019       28.115     2168.277     2501.922      790.467        2.609        0.273      216.149       25.911        0.014      334.833        5.063      859.463
03/30/2014  23:11:00     -182.543      -79.770        1.045       76.742       38.839       29.305     5889.377     1508.468      858.787        2.397        0.413      199.211       34.696        0.030      334.877        5.139      859.487
03/30/2014  23:12:00      -66.848      -52.442        9.919       62.227       43.835       26.127     3872.170     1921.505      682.621        0.690        0.324       84.964       26.548        0.098      334.928        5.224      859.505
03/30/2014  23:13:00     -145.084      -72.896       -5.606       54.160       46.243       29.138     2933.341     2138.372      849.008        1.616        0.296      162.368       26.158        0.026      334.914        5.199      859.527
03/30/2014  23:14:00     -136.224        4.726        5.611       51.846       57.190       36.002     2688.048     3270.742     1296.149        1.293        0.363      136.306       32.329        0.056      334.906        5.186      859.534
03/30/2014  23:15:00      -98.951      -39.182       10.452       56.155       41.534       29.014     3153.409     1725.051      841.817        0.858        0.286      106.426       31.365        0.087      334.945        5.252      859.530
03/30/2014  23:16:00     -190.727      -62.194       -7.887       63.839       59.785       32.847     4075.364     3574.242     1078.915        2.452        0.436      200.611       36.789        0.034      334.900        5.176      859.526
03/30/2014  23:17:00     -189.347      -76.707      -13.750       29.712       42.615       23.991      882.796     1816.000      575.584        2.260        0.164      204.294       16.718        0.007      334.906        5.187      859.517
03/30/2014  23:18:00     -109.726      -39.335       -1.360       73.189       35.408       23.514     5356.666     1253.752      552.893        1.037        0.358      116.563       30.641        0.069      334.922        5.214      859.510
03/30/2014  23:19:00     -117.083     -127.696       -7.236       58.921       74.600       35.634     3471.708     5565.175     1269.781        2.018        0.515      173.248       25.134        0.021      334.920        5.209      859.519
03/30/2014  23:20:00     -120.858      -91.185        7.535       64.549       61.389       39.528     4166.619     3768.644     1562.431        1.624        0.475      151.398       38.230        0.064      334.910        5.193      859.517
03/30/2014  23:21:00     -146.606      -84.310        2.515       74.214       47.702       35.776     5507.710     2275.466     1279.908        1.883        0.453      169.120       38.152        0.051      334.897        5.171      859.510
03/30/2014  23:22:00     -163.146      -34.430       -7.572       90.390       41.852       33.162     8170.323     1751.582     1099.698        1.944        0.551      166.740       40.677        0.060      334.890        5.160      859.510
03/30/2014  23:23:00     -107.741      -36.884       -3.563       60.494       54.603       30.158     3659.583     2981.525      909.491        1.026        0.378      113.880       12.806        0.013      334.890        5.161      859.515
03/30/2014  23:24:00     -121.104      -66.900       -3.638       65.644       49.240       29.689     4309.073     2424.622      881.439        1.338        0.381      138.354       35.239        0.065      334.898        5.175      859.525
03/30/2014  23:25:00      -50.782      -22.011       12.846       52.243       47.864       25.196     2729.345     2290.946      634.838        0.444        0.283       55.347       22.495        0.165      334.919        5.210      859.531
03/30/2014  23:26:00     -112.213      -67.336       -2.055       52.882       38.715       29.830     2796.551     1498.830      889.802        1.116        0.259      130.866       30.267        0.053      334.864        5.119      859.534
03/30/2014  23:27:00     -138.906      -31.456        1.370       54.255       30.115       28.544     2943.567      906.932      814.736        1.247        0.233      142.423       29.201        0.042      334.843        5.082      859.523
03/30/2014  23:28:00     -151.438      -15.881       -2.140       77.382       40.901       29.360     5988.000     1672.906      862.038        1.585        0.426      152.269       33.896        0.050      334.833        5.065      859.502
03/30/2014  23:29:00     -171.094      -22.430      -11.014       59.501       45.394       27.414     3540.338     2060.603      751.520        1.812        0.318      172.558       31.220        0.033      334.826        5.053      859.480
03/30/2014  23:30:00     -136.145      -18.874       -7.842       49.757       42.421       26.860     2475.730     1799.542      721.435        1.197        0.250      137.447       26.473        0.037      334.807        5.023      859.461
03/30/2014  23:31:00      -93.288      -28.241       -8.920       30.719       39.053       18.122      943.669     1525.120      328.389        0.619        0.140       97.469       15.672        0.026      334.787        4.989      859.443
03/30/2014  23:32:00      -39.087      -23.232       -5.201       48.587       16.734       19.869     2360.710      280.017      394.763        0.256        0.152       45.470       24.112        0.281      334.859        5.109      859.423
03/30/2014  23:33:00      -29.898      -46.246        8.517       22.096       26.205       18.189      488.223      686.697      330.853        0.231        0.075       55.069       16.804        0.093      334.821        5.048      859.416
03/30/2014  23:34:00      -55.709       10.075       -9.944       21.507       21.245       17.955      462.568      451.367      322.374        0.227        0.062       56.613       11.196        0.039      334.823        5.051      859.404
03/30/2014  23:35:00      -62.738      -22.150      -15.806       19.159       17.727       14.741      367.072      314.232      217.291        0.279        0.045       66.534        6.977        0.011      334.830        5.060      859.389
03/30/2014  23:36:00      -35.718      -21.879        1.601       33.655       18.056       21.403     1132.674      326.034      458.100        0.184        0.096       41.886       16.888        0.163      334.892        5.163      859.368
03/30/2014  23:37:00      -52.333        6.271       -1.775       46.817       29.989       20.937     2191.833      899.331      438.342        0.315        0.176       52.708       27.343        0.269      334.836        5.071      859.364
03/30/2014  23:38:00      -50.359      -10.214        1.173       39.578       30.138       17.259     1566.403      908.312      297.871        0.271        0.139       51.384       17.235        0.113      334.850        5.094      859.354
03/30/2014  23:39:00        0.290       10.728        4.254       10.153       14.944       15.564      103.076      223.331      242.236        0.035        0.028       10.732       10.182        0.900      334.887        5.157      859.344
03/30/2014  23:40:00       18.096       14.470        0.688       12.718       12.938        9.600      161.738      167.402       92.156        0.048        0.021       23.170        6.228        0.072      334.916        5.206      859.331
03/30/2014  23:41:00       -8.473        7.897      -10.914       22.016       17.213       12.313      484.706      296.302      151.607        0.059        0.047       11.582       11.531        0.991      334.963        5.282      859.316
03/30/2014  23:42:00       -0.513       28.826       -5.021       20.175       17.188       11.464      407.034      295.444      131.421        0.084        0.042       28.831        5.845        0.041      334.914        5.202      859.305
03/30/2014  23:43:00      -15.067      -11.455       11.650       11.578       15.616       12.206      134.042      243.857      148.983        0.051        0.026       18.927        8.193        0.187      334.916        5.206      859.311
03/30/2014  23:44:00       -8.938      -46.408       -7.793       23.720       29.139       25.220      562.634      849.099      636.026        0.217        0.102       47.261       17.625        0.139      335.041        5.412      859.306
03/30/2014  23:45:00      -55.263      -13.888       -1.198       26.790       18.538       17.544      717.706      343.651      307.780        0.231        0.068       56.982       14.090        0.061      334.894        5.167      859.297
03/30/2014  23:46:00      -62.347      -17.325       -2.165       16.071       11.106        9.976      258.284      123.334       99.513        0.234        0.024       64.710        6.145        0.009      334.891        5.163      859.290
03/30/2014  23:47:00      -30.148      -35.758        0.474       22.955       17.941       11.882      526.926      321.866      141.183        0.159        0.049       46.771        7.284        0.024      334.948        5.258      859.279
03/30/2014  23:48:00       -6.337      -17.231        9.205       22.054       16.624       19.330      486.381      276.345      373.640        0.078        0.057       18.360       15.146        0.681      334.924        5.218      859.268
03/30/2014  23:49:00      -24.447       -3.473       -1.899       20.796       14.832       12.758      432.471      219.983      162.775        0.071        0.041       24.692        7.403        0.090      334.932        5.231      859.266
03/30/2014  23:50:00      -56.276      -13.407       -3.703       21.027       18.263       10.322      442.143      333.549      106.544        0.212        0.044       57.851       10.025        0.030      334.971        5.295      859.268
03/30/2014  23:51:00      -59.566      -11.446       -9.160       21.212       17.881       11.682      449.951      319.736      136.462        0.233        0.045       60.655        9.800        0.026      334.948        5.257      859.279
03/30/2014  23:52:00      -59.128       -0.132       -5.016       23.027       21.807       11.099      530.245      475.566      123.177        0.232        0.056       59.128       11.668        0.039      334.920        5.211      859.293
03/30/2014  23:53:00      -55.415      -20.072        7.799       43.958       27.497       18.544     1932.300      756.104      343.889        0.328        0.152       58.938       17.596        0.089      334.897        5.174      859.297
03/30/2014  23:54:00      -17.130      -37.190       12.673       48.726       31.799       26.515     2374.191     1011.205      703.068        0.296        0.204       40.945       17.163        0.176      335.017        5.374      859.287
03/30/2014  23:55:00      -12.229      -26.600       11.063       29.429       22.728       21.785      866.076      516.569      474.597        0.142        0.093       29.276       16.279        0.309      335.071        5.464      859.284
03/30/2014  23:56:00      -16.909      -25.396       13.991       33.028       17.922       19.680     1090.853      321.196      387.310        0.146        0.090       30.510       13.818        0.205      335.008        5.359      859.277
03/30/2014  23:57:00     -111.181      -59.504       -5.408       43.250       34.576       18.051     1870.596     1195.496      325.823        0.966        0.170      126.103       13.751        0.012      334.949        5.259      859.272
03/30/2014  23:58:00     -169.487      -53.914        4.075       79.909       56.261       28.909     6385.453     3165.330      835.736        2.102        0.519      177.856       26.885        0.023      334.829        5.059      859.266
03/30/2014  23:59:00     -193.181      -97.344       -7.650       47.467       48.212       28.425     2253.130     2324.410      807.977        2.612        0.269      216.321       22.818        0.011      334.740        4.909      859.262
